[[{"header":{"parameterUnit":"m.s-1","parameterCategory":1,"la1":30.6,"la2":28.766,"lo1":-90.7593,"lo2":-88.6598,"dy":0.0162,"dx":0.0183,"nx":116,"ny":114,"refTime":"2024-06-20T06:00:00:Z","depth":0,"parameterNumber":2,"parameterNumberName":"U-component_of_WINDS"},"data":[0.0,0.0,0.0,0.0,0.0,0.0,0.0,0.0,0.0,0.0,0.0,0.0,0.0,0.0,0.0,0.0,0.0,0.0,0.0,0.0,0.0,0.0,0.0,0.0,0.0,0.0,0.0,0.0,0.0,0.0,0.0,0.0,0.0,0.0,0.0,0.0,0.0,0.0,0.0,0.0,0.0,0.0,0.0,0.0,0.0,0.0,0.0,0.0,0.0,0.0,0.0,0.0,0.0,0.0,0.0,0.0,0.0,0.0,0.0,0.0,0.0,0.0,0.0,0.0,0.0,0.0,0.0,0.0,0.0,0.0,0.0,0.0,0.0,0.0,0.0,0.0,0.0,0.0,0.0,0.0,0.0,0.0,0.0,0.0,0.0,0.0,0.0,0.0,0.0,0.0,0.0,0.0,0.0,0.0,0.0,0.0,0.0,0.0,0.0,0.0,0.0,0.0,0.0,0.0,0.0,0.0,0.0,0.0,0.0,0.0,0.0,0.0,0.0,0.0,0.0,0.0,0.0,0.0,0.0,0.0,0.0,0.0,0.0,0.0,0.0,0.0,0.0,0.0,0.0,0.0,0.0,0.0,0.0,0.0,0.0,0.0,0.0,0.0,0.0,0.0,0.0,0.0,0.0,0.0,0.0,0.0,0.0,0.0,0.0,0.0,0.0,0.0,0.0,0.0,0.0,0.0,0.0,0.0,0.0,0.0,0.0,0.0,0.0,0.0,0.0,0.0,0.0,0.0,0.0,0.0,0.0,0.0,0.0,0.0,0.0,0.0,0.0,0.0,0.0,0.0,0.0,0.0,0.0,0.0,0.0,0.0,0.0,0.0,0.0,0.0,0.0,0.0,0.0,0.0,0.0,0.0,0.0,0.0,0.0,0.0,0.0,0.0,0.0,0.0,0.0,0.0,0.0,0.0,0.0,0.0,0.0,0.0,0.0,0.0,0.0,0.0,0.0,0.0,0.0,0.0,0.0,0.0,0.0,0.0,0.0,0.0,0.0,0.0,0.0,0.0,0.0,0.0,0.0,0.0,0.0,0.0,0.0,0.0,0.0,0.0,0.0,0.0,0.0,0.0,0.0,0.0,0.0,0.0,0.0,0.0,0.0,0.0,0.0,0.0,0.0,0.0,0.0,0.0,0.0,0.0,0.0,0.0,0.0,0.0,0.0,0.0,0.0,0.0,0.0,0.0,0.0,0.0,0.0,0.0,0.0,0.0,0.0,0.0,0.0,0.0,0.0,0.0,0.0,0.0,0.0,0.0,0.0,0.0,0.0,0.0,0.0,0.0,0.0,0.0,0.0,0.0,0.0,0.0,0.0,0.0,0.0,0.0,0.0,0.0,0.0,0.0,0.0,0.0,0.0,0.0,0.0,0.0,0.0,0.0,0.0,0.0,0.0,0.0,0.0,0.0,0.0,0.0,0.0,0.0,0.0,0.0,0.0,0.0,0.0,0.0,0.0,0.0,0.0,0.0,0.0,0.0,0.0,0.0,0.0,0.0,0.0,0.0,0.0,0.0,0.0,0.0,0.0,0.0,0.0,0.0,0.0,0.0,0.0,0.0,0.0,0.0,0.0,0.0,0.0,0.0,0.0,0.0,0.0,0.0,0.0,0.0,0.0,0.0,0.0,0.0,0.0,0.0,0.0,0.0,0.0,0.0,0.0,0.0,0.0,0.0,0.0,0.0,0.0,0.0,0.0,0.0,0.0,0.0,0.0,0.0,0.0,0.0,0.0,0.0,0.0,0.0,0.0,0.0,0.0,0.0,0.0,0.0,0.0,0.0,0.0,0.0,0.0,0.0,0.0,0.0,0.0,0.0,0.0,0.0,0.0,0.0,0.0,0.0,0.0,0.0,0.0,0.0,0.0,0.0,0.0,0.0,0.0,0.0,0.0,0.0,0.0,0.0,0.0,0.0,0.0,0.0,0.0,0.0,0.0,0.0,0.0,0.0,0.0,0.0,0.0,0.0,0.0,0.0,0.0,0.0,0.0,0.0,0.0,0.0,0.0,0.0,0.0,0.0,0.0,0.0,0.0,0.0,0.0,0.0,0.0,0.0,0.0,0.0,0.0,0.0,0.0,0.0,0.0,0.0,0.0,0.0,0.0,0.0,0.0,0.0,0.0,0.0,0.0,0.0,0.0,0.0,0.0,0.0,0.0,0.0,0.0,0.0,0.0,0.0,0.0,0.0,0.0,0.0,0.0,0.0,0.0,0.0,0.0,0.0,0.0,0.0,0.0,0.0,0.0,0.0,0.0,0.0,0.0,0.0,0.0,0.0,0.0,0.0,0.0,0.0,0.0,0.0,0.0,0.0,0.0,0.0,0.0,0.0,0.0,0.0,0.0,0.0,0.0,0.0,0.0,0.0,0.0,0.0,0.0,0.0,0.0,0.0,0.0,0.0,0.0,0.0,0.0,0.0,0.0,0.0,0.0,0.0,0.0,0.0,0.0,0.0,0.0,0.0,0.0,0.0,0.0,0.0,0.0,0.0,0.0,0.0,0.0,0.0,0.0,0.0,0.0,0.0,0.0,0.0,0.0,0.0,0.0,0.0,0.0,0.0,0.0,0.0,0.0,0.0,0.0,0.0,0.0,0.0,0.0,0.0,0.0,0.0,0.0,0.0,0.0,0.0,0.0,0.0,0.0,0.0,0.0,0.0,0.0,0.0,0.0,0.0,0.0,0.0,0.0,0.0,0.0,0.0,0.0,0.0,0.0,0.0,0.0,0.0,0.0,0.0,0.0,0.0,0.0,0.0,0.0,0.0,0.0,0.0,0.0,0.0,0.0,0.0,0.0,0.0,0.0,0.0,0.0,0.0,0.0,0.0,0.0,0.0,0.0,0.0,0.0,0.0,0.0,0.0,0.0,0.0,0.0,0.0,0.0,0.0,0.0,0.0,0.0,0.0,0.0,0.0,0.0,0.0,0.0,0.0,0.0,0.0,0.0,0.0,0.0,0.0,0.0,0.0,0.0,0.0,0.0,0.0,0.0,0.0,0.0,0.0,0.0,0.0,0.0,0.0,0.0,0.0,0.0,0.0,0.0,0.0,0.0,0.0,0.0,0.0,0.0,0.0,0.0,0.0,0.0,0.0,0.0,0.0,0.0,0.0,0.0,0.0,0.0,0.0,0.0,0.0,0.0,0.0,0.0,0.0,0.0,0.0,0.0,0.0,0.0,0.0,0.0,0.0,0.0,0.0,0.0,0.0,0.0,0.0,0.0,0.0,0.0,0.0,0.0,0.0,0.0,0.0,0.0,0.0,0.0,0.0,0.0,0.0,0.0,0.0,0.0,0.0,0.0,0.0,0.0,0.0,0.0,0.0,0.0,0.0,0.0,0.0,0.0,0.0,0.0,0.0,0.0,0.0,0.0,0.0,0.0,0.0,0.0,0.0,0.0,0.0,0.0,0.0,0.0,0.0,0.0,0.0,0.0,0.0,0.0,0.0,0.0,0.0,0.0,0.0,0.0,0.0,0.0,0.0,0.0,0.0,0.0,0.0,0.0,0.0,0.0,0.0,0.0,0.0,0.0,0.0,0.0,0.0,0.0,0.0,0.0,0.0,0.0,0.0,0.0,0.0,0.0,0.0,0.0,0.0,0.0,0.0,0.0,0.0,0.0,0.0,0.0,0.0,0.0,0.0,0.0,0.0,0.0,0.0,0.0,0.0,0.0,0.0,0.0,0.0,0.0,0.0,0.0,0.0,0.0,0.0,0.0,0.0,0.0,0.0,0.0,0.0,0.0,0.0,0.0,0.0,0.0,0.0,0.0,0.0,0.0,0.0,0.0,0.0,0.0,0.0,0.0,0.0,0.0,0.0,0.0,0.0,0.0,0.0,0.0,0.0,0.0,0.0,0.0,0.0,0.0,0.0,0.0,0.0,0.0,0.0,0.0,0.0,0.0,0.0,0.0,0.0,0.0,0.0,0.0,0.0,0.0,0.0,0.0,0.0,0.0,0.0,0.0,0.0,0.0,0.0,0.0,0.0,0.0,0.0,0.0,0.0,0.0,0.0,0.0,0.0,0.0,0.0,0.0,0.0,0.0,0.0,0.0,0.0,0.0,0.0,0.0,0.0,0.0,0.0,0.0,0.0,0.0,0.0,0.0,0.0,0.0,0.0,0.0,0.0,0.0,0.0,0.0,0.0,0.0,0.0,0.0,0.0,0.0,0.0,0.0,0.0,0.0,0.0,0.0,0.0,0.0,0.0,0.0,0.0,0.0,0.0,0.0,0.0,0.0,0.0,0.0,0.0,0.0,0.0,0.0,0.0,0.0,0.0,0.0,0.0,0.0,0.0,0.0,0.0,0.0,0.0,0.0,0.0,0.0,0.0,0.0,0.0,0.0,0.0,0.0,0.0,0.0,0.0,0.0,0.0,0.0,0.0,0.0,0.0,0.0,0.0,0.0,0.0,0.0,0.0,0.0,0.0,0.0,0.0,0.0,0.0,0.0,0.0,0.0,0.0,0.0,0.0,0.0,0.0,0.0,0.0,0.0,0.0,0.0,0.0,0.0,0.0,0.0,0.0,0.0,0.0,0.0,0.0,0.0,0.0,0.0,0.0,0.0,0.0,0.0,0.0,0.0,0.0,0.0,0.0,0.0,0.0,0.0,0.0,0.0,0.0,0.0,0.0,0.0,0.0,0.0,0.0,0.0,0.0,0.0,0.0,0.0,0.0,0.0,0.0,0.0,0.0,0.0,0.0,0.0,0.0,0.0,0.0,0.0,0.0,0.0,0.0,0.0,0.0,0.0,0.0,0.0,0.0,0.0,0.0,0.0,0.0,0.0,0.0,0.0,0.0,0.0,0.0,0.0,0.0,0.0,0.0,0.0,0.0,0.0,0.0,0.0,0.0,0.0,0.0,0.0,0.0,0.0,0.0,0.0,0.0,0.0,0.0,0.0,0.0,0.0,0.0,0.0,0.0,0.0,0.0,0.0,0.0,0.0,0.0,0.0,0.0,0.0,0.0,0.0,0.0,0.0,0.0,0.0,0.0,0.0,0.0,0.0,0.0,0.0,0.0,0.0,0.0,0.0,0.0,0.0,0.0,0.0,0.0,0.0,0.0,0.0,0.0,0.0,0.0,0.0,0.0,0.0,0.0,0.0,0.0,0.0,0.0,0.0,0.0,0.0,0.0,0.0,0.0,0.0,0.0,0.0,0.0,0.0,0.0,0.0,0.0,0.0,0.0,0.0,0.0,0.0,0.0,0.0,0.0,0.0,0.0,0.0,0.0,0.0,0.0,0.0,0.0,0.0,0.0,0.0,0.0,0.0,0.0,0.0,0.0,0.0,0.0,0.0,0.0,0.0,0.0,0.0,0.0,0.0,0.0,0.0,0.0,0.0,0.0,0.0,0.0,0.0,0.0,0.0,0.0,0.0,0.0,0.0,0.0,0.0,0.0,0.0,0.0,0.0,0.0,0.0,0.0,0.0,0.0,0.0,0.0,0.0,0.0,0.0,0.0,0.0,0.0,0.0,0.0,0.0,0.0,0.0,0.0,0.0,0.0,0.0,0.0,0.0,0.0,0.0,0.0,0.0,0.0,0.0,0.0,0.0,0.0,0.0,0.0,0.0,0.0,0.0,0.0,0.0,0.0,0.0,0.0,0.0,0.0,0.0,0.0,0.0,0.0,0.0,0.0,0.0,0.0,0.0,0.0,0.0,0.0,0.0,0.0,0.0,0.0,0.0,0.0,0.0,0.0,0.0,0.0,0.0,0.0,0.0,0.0,0.0,0.0,0.0,0.0,0.0,0.0,0.0,0.0,0.0,0.0,0.0,0.0,0.0,0.0,0.0,0.0,0.0,0.0,0.0,0.0,0.0,0.0,0.0,0.0,0.0,0.0,0.0,0.0,0.0,0.0,0.0,0.0,0.0,0.0,0.0,0.0,0.0,0.0,0.0,0.0,0.0,0.0,0.0,0.0,0.0,0.0,0.0,0.0,0.0,0.0,0.0,0.0,0.0,0.0,0.0,0.0,0.0,0.0,0.0,0.0,0.0,0.0,0.0,0.0,0.0,0.0,0.0,0.0,0.0,0.0,0.0,0.0,0.0,0.0,0.0,0.0,0.0,0.0,0.0,0.0,0.0,0.0,0.0,0.0,-2.3359,0.0,0.0,0.0,0.0,0.0,0.0,0.0,0.0,0.0,0.0,0.0,0.0,0.0,0.0,0.0,0.0,0.0,0.0,0.0,0.0,0.0,0.0,0.0,0.0,-0.9943,-1.0162,-1.0184,-1.0467,-1.0466,-1.0004,-0.9919,-0.9702,-0.9325,-0.9724,-0.9914,-0.9771,-1.028,-1.1073,-1.2138,-1.2609,-1.3737,-1.5392,-1.4866,-1.4263,-1.3606,0.0,0.0,0.0,0.0,0.0,0.0,0.0,0.0,0.0,0.0,0.0,0.0,0.0,0.0,0.0,0.0,0.0,0.0,0.0,0.0,0.0,0.0,0.0,0.0,0.0,0.0,0.0,0.0,0.0,0.0,0.0,0.0,0.0,0.0,0.0,0.0,0.0,0.0,0.0,0.0,0.0,0.0,0.0,0.0,0.0,0.0,0.0,0.0,0.0,0.0,0.0,0.0,0.0,0.0,0.0,0.0,0.0,0.0,0.0,0.0,0.0,0.0,0.0,0.0,0.0,0.0,0.0,0.0,0.0,0.0,0.0,-2.5727,0.0,0.0,0.0,0.0,0.0,0.0,0.0,0.0,0.0,0.0,0.0,0.0,0.0,0.0,0.0,0.0,0.0,0.0,0.0,0.0,0.0,-0.9753,-0.99,-1.0494,-1.0968,-1.1138,-1.1633,-1.167,-1.1033,-1.0862,-1.0476,-0.981,-1.0533,-1.0876,-1.0754,-1.1667,-1.2864,-1.434,-1.5083,-1.666,-1.901,-1.9782,-1.9168,-1.7332,-1.5949,0.0,0.0,0.0,0.0,0.0,0.0,0.0,0.0,0.0,0.0,0.0,0.0,0.0,0.0,0.0,0.0,0.0,0.0,0.0,0.0,0.0,0.0,0.0,0.0,0.0,0.0,0.0,0.0,0.0,0.0,0.0,0.0,0.0,0.0,0.0,0.0,0.0,0.0,0.0,0.0,0.0,0.0,0.0,0.0,0.0,0.0,0.0,0.0,0.0,0.0,0.0,0.0,0.0,0.0,0.0,0.0,0.0,0.0,0.0,0.0,0.0,0.0,0.0,-3.2628,-3.273,-3.2374,-3.2628,-3.3339,-3.4252,-3.1799,-3.0717,-3.0531,0.0,0.0,0.0,0.0,0.0,0.0,0.0,0.0,0.0,0.0,0.0,0.0,0.0,0.0,0.0,0.0,0.0,0.0,0.0,0.0,-0.997,-1.0677,-1.0838,-1.1462,-1.2837,-1.2429,-1.2314,-1.289,-1.228,-1.1836,-1.1745,-1.1846,-1.1844,-1.1714,-1.2634,-1.3832,-1.5317,-1.8992,-2.1668,-2.3364,-2.3511,-2.3759,-2.3961,-2.0307,-1.8618,-1.8361,0.0,0.0,0.0,0.0,0.0,0.0,0.0,0.0,0.0,0.0,0.0,0.0,0.0,0.0,0.0,0.0,0.0,0.0,0.0,0.0,0.0,0.0,0.0,0.0,0.0,0.0,0.0,0.0,0.0,0.0,0.0,0.0,0.0,0.0,0.0,0.0,0.0,0.0,0.0,0.0,0.0,-1.9264,-2.1248,0.0,0.0,0.0,0.0,0.0,0.0,0.0,0.0,0.0,0.0,0.0,0.0,0.0,0.0,-3.1853,-3.4663,-3.5707,-3.5059,-3.8328,-3.8886,-3.706,-3.8328,-3.8691,-3.8244,-3.7838,0.0,-3.2899,-3.1955,0.0,0.0,0.0,0.0,0.0,0.0,0.0,0.0,0.0,0.0,0.0,0.0,0.0,0.0,0.0,0.0,0.0,0.0,0.0,0.0,0.0,-1.2792,-1.4059,-1.5209,-1.5821,-1.5717,-1.4707,-1.4321,-1.3513,-1.215,-1.2522,-1.296,-1.3346,-1.4659,-1.6766,-1.9713,-2.2465,-2.442,-2.5548,-2.5548,-2.5731,-2.5988,-2.4208,-2.2391,-2.0637,-1.9572,0.0,0.0,0.0,0.0,0.0,0.0,0.0,0.0,0.0,0.0,0.0,0.0,0.0,0.0,0.0,0.0,0.0,0.0,0.0,0.0,0.0,0.0,0.0,0.0,0.0,0.0,0.0,0.0,0.0,0.0,0.0,0.0,0.0,0.0,0.0,0.0,0.0,0.0,0.0,-1.903,-2.1914,-2.2764,-2.3355,-2.3279,0.0,0.0,0.0,0.0,0.0,0.0,0.0,0.0,0.0,-3.2056,-3.4269,-3.5864,-3.6677,-3.8826,-3.9698,-3.9394,-4.1035,-4.1305,-4.0392,-4.1035,-4.1179,-4.0849,-4.0849,-3.9918,-3.821,-3.5831,-3.3288,-3.0866,0.0,0.0,0.0,0.0,-3.0192,-3.0194,0.0,0.0,0.0,0.0,0.0,0.0,0.0,0.0,0.0,0.0,0.0,0.0,-1.2884,-1.4811,-1.6493,-1.7715,-1.8739,-1.8636,-1.7032,-1.6353,-1.5215,-1.3416,-1.3697,-1.4285,-1.5099,-1.7312,-2.0052,-2.3299,-2.5117,-2.6329,-2.6906,-2.7115,-2.7207,-2.7207,-2.7207,-2.5768,-2.3281,-2.2455,-2.0813,-1.8621,0.0,0.0,0.0,0.0,0.0,0.0,0.0,0.0,0.0,0.0,0.0,0.0,0.0,0.0,0.0,0.0,0.0,0.0,0.0,0.0,0.0,0.0,0.0,0.0,0.0,0.0,0.0,0.0,0.0,0.0,0.0,0.0,0.0,0.0,0.0,0.0,0.0,-2.1823,-2.4183,-2.4487,-2.5839,-2.62,0.0,0.0,0.0,0.0,0.0,0.0,-3.1424,-3.3102,-3.4612,-3.5876,-3.7939,-3.9546,-4.0654,-4.1745,-4.2286,-4.2286,-4.2489,-4.2472,-4.2303,-4.2489,-4.2472,-4.2286,-4.2286,-4.2286,-4.2066,-3.9123,-3.6705,-3.4759,-3.4015,-3.3152,-3.2476,-3.3795,-3.3914,-3.38,0.0,0.0,0.0,0.0,0.0,0.0,0.0,0.0,0.0,0.0,0.0,-1.2921,-1.5258,-1.631,-1.7789,-2.0118,-1.9693,-1.9565,-2.0217,-1.8119,-1.6798,-1.667,-1.5967,-1.5967,-1.6762,-2.0658,-2.3171,-2.4135,-2.6531,-2.7706,-2.775,-2.851,-2.8877,-2.8877,-2.8877,-2.8374,-2.7302,-2.4245,-2.329,-2.3419,-1.8731,0.0,0.0,0.0,0.0,0.0,0.0,0.0,0.0,0.0,0.0,0.0,0.0,0.0,0.0,0.0,0.0,0.0,0.0,0.0,0.0,0.0,0.0,0.0,0.0,0.0,0.0,0.0,0.0,0.0,0.0,0.0,0.0,0.0,0.0,0.0,0.0,0.0,0.0,-2.7446,-2.8956,0.0,0.0,0.0,0.0,-3.0852,-3.229,-3.3757,-3.5245,-3.7449,-3.9005,-3.9791,-4.1271,-4.21,-4.2185,-4.2252,-4.2286,-4.2303,-4.3014,-4.298,-4.232,-4.3031,-4.2963,-4.2286,-4.2286,-4.2286,-4.2219,-4.1339,-4.0087,-3.865,-3.7905,-3.6698,-3.5481,-3.6315,-3.6609,-3.6711,0.0,0.0,0.0,-0.9702,-0.9702,-0.9702,-0.9702,-0.9702,-0.9808,-1.0098,-1.2187,-1.4169,-1.5551,-1.8298,-2.0611,-2.1997,-2.2318,-2.2143,-2.1382,-1.9528,-1.8445,-1.8445,-1.7172,-1.7851,-2.0768,-2.2749,-2.4667,-2.6521,-2.7394,-2.8319,-2.9347,-2.9641,-3.0063,-3.054,-3.054,-3.0393,-2.9946,-2.7236,-2.5364,-2.4006,-2.174,-1.9711,0.0,0.0,0.0,0.0,0.0,0.0,0.0,0.0,0.0,0.0,0.0,0.0,0.0,0.0,0.0,0.0,0.0,0.0,0.0,0.0,0.0,0.0,0.0,0.0,0.0,0.0,0.0,0.0,0.0,0.0,0.0,0.0,0.0,0.0,0.0,0.0,0.0,-3.0603,-3.2437,0.0,0.0,-3.2405,-3.344,-3.4714,-3.6163,-3.7652,-3.914,-4.0426,-4.1238,-4.1517,-4.2489,-4.3014,-4.3014,-4.3995,-4.4485,-4.4502,-4.5246,-4.5196,-4.4502,-4.4773,-4.4485,-4.3785,-4.3785,-4.3785,-4.3768,-4.3515,-4.2472,-4.1085,-4.0832,-4.0392,-3.9952,-4.0223,-4.035,-4.0307,-0.9847,-0.9765,0.0,-0.9702,-0.9702,-0.9702,-0.9702,-0.9702,-0.9992,-1.0805,-1.3233,-1.5527,-1.7142,-2.0244,-2.252,-2.3318,-2.3896,-2.3749,-2.2675,-2.106,-2.0142,-2.0142,-1.9373,-2.0346,-2.3336,-2.4722,-2.6337,-2.8209,-2.8484,-2.9292,-3.0595,-3.0595,-3.0889,-3.1397,-3.1397,-3.1397,-3.1305,-2.9689,-2.7769,-2.5695,-2.4355,-2.2666,-2.0692,0.0,0.0,0.0,0.0,0.0,0.0,0.0,0.0,0.0,0.0,0.0,0.0,0.0,0.0,0.0,0.0,0.0,0.0,0.0,0.0,0.0,0.0,0.0,0.0,0.0,0.0,0.0,0.0,0.0,0.0,0.0,0.0,0.0,0.0,0.0,-3.2286,-3.3242,-3.5128,-3.5887,-3.4675,-3.5656,-3.6924,-3.82,-3.9411,-4.0527,-4.1525,-4.2269,-4.2794,-4.3075,-4.3792,-4.4316,-4.4553,-4.5568,-4.6075,-4.6075,-4.6566,-4.6532,-4.6075,-4.6075,-4.5788,-4.5359,-4.5359,-4.5359,-4.5326,-4.506,-4.4367,-4.3403,-4.2861,-4.2523,-4.2286,-4.2286,-4.2286,-4.2219,-0.9893,-0.9788,-0.9706,-0.9706,-0.9702,-0.9702,-0.9706,-0.9702,-1.0566,-1.2949,-1.4707,-1.694,-2.0126,-2.1997,-2.3354,-2.4135,-2.4171,-2.4171,-2.419,-2.2639,-2.1739,-2.1794,-2.263,-2.3465,-2.4281,-2.6631,-2.8227,-2.9042,-2.9831,-3.065,-3.1452,-3.1452,-3.1452,-3.147,-3.147,-3.147,-3.147,-3.147,-3.0558,-2.8895,-2.6476,-2.5026,-2.4006,0.0,0.0,0.0,0.0,0.0,0.0,0.0,0.0,0.0,0.0,0.0,0.0,0.0,0.0,0.0,0.0,0.0,0.0,0.0,0.0,0.0,0.0,0.0,0.0,0.0,0.0,0.0,0.0,0.0,0.0,0.0,0.0,0.0,-3.0907,-3.2449,-3.4027,-3.5364,-3.6989,-3.7719,-3.7015,-3.8928,-4.0493,-4.1221,-4.1957,-4.239,-4.2441,-4.3081,-4.3842,-4.4677,-4.5376,-4.6075,-4.6786,-4.6802,-4.6819,-4.6819,-4.6853,-4.6853,-4.6819,-4.6819,-4.6802,-4.6786,-4.6786,-4.6786,-4.6735,-4.6024,-4.572,-4.5551,-4.4045,-4.3014,-4.2354,-4.2354,-4.2354,-4.232,-0.9904,-0.9834,-0.9779,-0.9779,-0.9725,-0.9725,-0.9768,-0.9725,-1.0359,-1.2191,-1.4842,-1.7355,-1.9399,-2.2171,-2.3951,-2.4171,-2.3676,-2.3584,-2.4153,-2.1555,-2.0527,-2.1739,-2.3685,-2.5393,-2.6778,-2.8033,-2.906,-2.9879,-3.0687,-3.1476,-3.2284,-3.2284,-3.2577,-3.3128,-3.3128,-3.3128,-3.3128,-3.3128,-3.2559,-3.139,-2.8968,-2.7181,-2.575,0.0,0.0,0.0,0.0,0.0,0.0,0.0,0.0,0.0,0.0,0.0,0.0,0.0,0.0,0.0,0.0,0.0,0.0,0.0,0.0,0.0,0.0,0.0,0.0,0.0,0.0,0.0,0.0,0.0,0.0,0.0,0.0,-3.3437,-3.2786,-3.4987,-3.7011,-3.7893,-3.9357,-4.0223,-4.0003,-4.1465,-4.2517,-4.2787,-4.3433,-4.4311,-4.5423,-4.5216,-4.5637,-4.6886,-4.6664,-4.6583,-4.6786,-4.7344,-4.7614,-4.7614,-4.8139,-4.8122,-4.7614,-4.7614,-4.731,-4.6786,-4.6786,-4.6786,-4.6769,-4.6583,-4.6177,-4.5602,-4.4637,-4.413,-4.3972,-4.3972,-4.3589,-4.3115,-0.9957,-0.986,-0.9805,-0.9841,-0.9768,-0.9732,-0.9781,-0.9739,-1.0525,-1.2811,-1.5025,-1.7264,-1.9546,-2.1822,-2.3189,-2.3189,-2.3088,-2.307,-2.3189,-2.1712,-2.1592,-2.3245,-2.497,-2.6649,-2.8282,-2.9078,-3.0051,-3.1207,-3.1678,-3.232,-3.3096,-3.3096,-3.3348,-3.3807,-3.3807,-3.3807,-3.3807,-3.3807,-3.3532,-3.2963,-3.1207,-2.9537,-2.7934,-2.6319,-2.5136,-2.4163,-2.2978,-2.2556,-2.2336,-2.0858,0.0,0.0,0.0,0.0,0.0,0.0,0.0,0.0,0.0,0.0,0.0,0.0,0.0,0.0,0.0,0.0,0.0,0.0,0.0,0.0,0.0,0.0,0.0,0.0,-3.3864,-3.6162,-3.6084,-3.7799,-3.9352,-4.0089,-4.1229,-4.2075,-4.2386,-4.3234,-4.4021,-4.4613,-4.5104,-4.5736,-4.6621,-4.6605,-4.6959,-4.7809,-4.7461,-4.7411,-4.7716,-4.8156,-4.8376,-4.8376,-4.8798,-4.8781,-4.8376,-4.8376,-4.8139,0.0,-4.7716,-4.7716,-4.7699,-4.7394,-4.7022,0.0,0.0,0.0,0.0,0.0,-4.4282,-4.391,-0.9997,-0.9902,-0.9834,-0.9896,-0.9798,-0.9729,-0.9798,-0.9754,-1.0827,-1.3967,-1.5141,-1.6885,-2.0016,-2.1216,-2.1794,-2.1794,-2.2446,-2.2556,-2.1849,-2.2721,-2.3914,-2.5338,-2.6264,-2.7482,-2.9097,-2.9922,-3.1091,-3.2601,-3.2693,-3.3096,-3.3807,-3.3807,-3.3807,-3.3807,-3.3807,-3.3807,-3.3807,-3.3807,-3.3807,-3.3733,-3.3023,-3.183,-3.0301,-2.8686,-2.8007,-2.7732,-2.6219,-2.5668,-2.5319,-2.3098,0.0,0.0,0.0,0.0,0.0,0.0,0.0,0.0,0.0,0.0,0.0,0.0,0.0,0.0,0.0,0.0,0.0,0.0,0.0,0.0,0.0,0.0,0.0,0.0,-3.6355,-3.8659,-3.9692,-4.0605,-4.1342,-4.1867,-4.2629,-4.343,-4.4165,-4.4541,-4.524,-4.6454,-4.6768,-4.6934,-4.6995,0.0,0.0,0.0,0.0,-4.8359,-4.9001,-4.9001,-4.9001,-4.9001,-4.9001,-4.9001,-4.9001,-4.9001,-4.9001,-4.9001,-4.9001,-4.9001,-4.8951,-4.8308,-4.7973,-4.7736,-4.6295,-4.5297,-4.4716,-4.4632,-4.4615,-4.4615,-1.0004,-0.9941,-0.9899,-0.9962,-0.9869,-0.9798,-0.9879,-0.9825,-1.0683,-1.3198,-1.4799,-1.669,-1.9253,-2.0894,-2.1794,-2.1794,-2.1941,-2.1978,-2.1812,-2.3777,-2.5062,-2.5393,-2.6788,-2.8319,-2.9934,-3.076,-3.1641,-3.2601,-3.3256,-3.3642,-3.3807,-3.3807,-3.3807,-3.3807,-3.3807,-3.3807,-3.3807,-3.3807,-3.3807,-3.3788,-3.3623,-3.2999,-3.1959,-3.0356,-2.9329,-2.8638,-2.7677,-2.7339,-2.7174,-2.6043,-2.5676,-2.5383,-2.3749,-2.2253,0.0,0.0,0.0,0.0,0.0,0.0,0.0,0.0,0.0,0.0,0.0,0.0,0.0,0.0,0.0,0.0,0.0,0.0,0.0,-3.6398,-3.9009,-4.0556,-4.0092,-4.2281,-4.3645,-4.2864,-4.3426,-4.42,-4.4984,-4.6123,-4.6994,-4.7423,-4.7949,-4.8568,-4.9296,-4.8931,0.0,-4.9648,-4.9099,-4.8866,-4.9001,-4.9001,-4.9001,-4.9001,0.0,0.0,-4.9001,-4.9001,-4.9001,-4.9001,-4.9001,-4.9001,-4.8984,-4.8849,-4.8443,-4.7736,-4.6295,-4.5618,-4.5415,-4.4835,-4.4615,-4.4615,-1.0061,-1.0006,-0.9978,-1.0046,-0.9944,-0.9866,-0.9944,-0.986,-1.0644,-1.3043,-1.4024,-1.5423,-1.7839,-1.8849,-1.9344,-1.9344,-2.0087,-2.1078,-2.2318,-2.3906,-2.5154,-2.597,-2.7174,-2.8539,-3.0173,-3.0993,-3.1788,-3.2601,-3.3421,-3.3807,-3.3807,-3.3807,-3.3807,-3.3807,-3.3807,-3.3807,-3.3807,-3.3807,-3.3807,-3.3807,-3.3807,-3.3568,-3.3073,-3.1849,-3.0638,-2.9537,-2.9145,-2.8741,-2.8282,-2.7475,-2.72,-2.6998,-2.5786,-2.43,-2.2731,0.0,0.0,0.0,0.0,0.0,0.0,0.0,0.0,0.0,0.0,0.0,0.0,0.0,0.0,-3.0803,-3.2414,0.0,-3.6873,-3.8443,-4.0073,-4.135,-4.1938,-4.3072,-4.3652,-4.3073,-4.4549,-4.5761,-4.6179,-4.7298,-4.8033,-4.8113,-4.884,-4.9319,-4.9407,-4.943,-4.9499,-4.9538,-4.9199,-4.9152,-4.9492,-4.9152,-4.9152,-4.9492,-4.9152,-4.9001,-4.9001,-4.9001,-4.9001,-4.9001,-4.9001,-4.9001,-4.9001,-4.9001,-4.8781,-4.8359,-4.7242,-4.6583,-4.616,-4.5415,-4.5145,-4.5094,-1.0094,-1.0061,-1.0046,-1.0088,-1.0006,-0.9941,-0.9987,-0.9916,-1.0572,-1.2668,-1.3024,-1.3884,-1.5979,-1.6487,-1.6853,-1.733,-1.8684,-2.0519,-2.2841,-2.4061,-2.5236,-2.6528,-2.753,-2.8705,-3.0173,-3.0993,-3.1788,-3.2601,-3.3421,-3.3807,-3.3807,-3.3807,-3.3807,-3.3807,-3.3807,-3.3807,-3.3807,-3.3807,-3.3807,-3.3807,-3.3807,-3.3807,-3.3715,-3.2913,-3.1702,-3.0393,-3.0081,-2.9445,-2.8675,-2.8026,-2.7798,-2.7669,-2.6851,-2.5713,-2.4483,-2.352,-2.2162,0.0,0.0,0.0,0.0,0.0,0.0,0.0,0.0,0.0,-3.0279,-3.2143,-3.3369,-3.4482,-3.5635,-3.7539,-3.9241,-4.0197,-4.0989,-4.2018,-4.3519,-4.3635,-4.3518,-4.3412,-4.5588,-4.7168,-4.7314,-4.8099,-4.8626,-4.8726,-4.9501,-4.9775,-4.9274,-4.9855,-4.9965,-4.9419,-4.9389,-4.9593,-5.0004,-4.9462,-4.9389,-4.9792,-4.9256,-4.9001,-4.9001,-4.9001,-4.9001,-4.9001,-4.9001,-4.9001,-4.9001,-4.9001,-4.9001,-4.8951,-4.8359,-4.7767,-4.7107,-4.6244,-4.5923,-4.5805,-1.0094,-1.009,-1.0088,-1.0094,-1.0046,-0.9987,-0.9994,-0.9982,-1.0298,-1.1165,-1.188,-1.2687,-1.3598,-1.4982,-1.6702,-1.8838,-1.985,-2.1116,-2.2878,-2.5079,-2.64,-2.6583,-2.8051,-2.928,-3.0173,-3.0993,-3.1788,-3.2601,-3.3421,-3.3807,-3.3807,-3.3807,-3.3807,-3.3807,-3.3807,-3.3807,-3.3807,-3.3807,-3.3807,-3.3807,-3.3807,-3.3807,-3.3715,-3.2913,-3.2045,-3.1085,-2.9647,-2.8631,-2.7915,-2.7835,-2.7798,-2.7669,-2.6851,-2.6484,-2.6043,-2.4502,-2.3437,-2.2859,-2.3474,-2.4832,-2.6602,-2.8909,-2.9374,-3.0763,0.0,0.0,-3.5936,-3.8151,-3.872,-3.9211,-4.0484,-4.0572,-4.0897,-4.2171,-4.3041,-4.3461,-4.3138,-4.4525,-4.5384,-4.4915,-4.6185,-4.7369,-4.8104,-4.8366,-4.8798,-4.9505,-4.9779,-5.0185,-5.0822,-5.0946,-5.0929,-5.085,-5.085,-5.0599,-5.0004,-4.9919,-4.9622,-4.9107,-4.9032,-4.9001,-4.9001,-4.9001,-4.9001,-4.9001,-4.9001,-4.9001,-4.9001,-4.9001,-4.9001,-4.9001,-4.8917,-4.8832,-4.8595,-4.7192,-4.6667,-4.6566,-1.0094,-1.0094,-1.0094,-1.0094,-1.0078,-1.0063,-1.0063,-1.0037,-1.0269,-1.1014,-1.1389,-1.184,-1.2576,-1.371,-1.5365,-1.7693,-1.9144,-2.0607,-2.2198,-2.4557,-2.6098,-2.6583,-2.7695,-2.8686,-2.9482,-3.0283,-3.1091,-3.1898,-3.2706,-3.3348,-3.3807,-3.3807,-3.3807,-3.3807,-3.3807,-3.3807,-3.3807,-3.3807,-3.3807,-3.3807,-3.3807,-3.3532,-3.3018,-3.221,-3.1109,-2.9922,-2.9244,-2.818,0.0,-2.7108,-2.7108,-2.7034,-2.6722,-2.6282,-2.5778,-2.5099,-2.4997,-2.5585,-2.7787,-2.9219,-3.0564,-3.2509,-3.3968,-3.5634,-3.8255,-3.8594,-3.879,-4.0342,-4.0924,-4.1269,-4.1622,-4.2019,-4.2555,0.0,-4.3669,-4.4251,-4.5254,-4.5409,-4.5636,-4.6205,-4.634,-4.6728,-4.7516,-4.8969,-4.9789,-4.9708,-5.0605,-5.1155,-5.1094,-5.1086,-5.1086,-5.1086,-5.1086,-5.1138,-5.1223,-5.085,-5.0945,-5.1501,-5.0201,-4.9862,-5.0321,-4.9416,-4.9001,-4.9001,-4.9001,-4.9001,-4.9001,-4.9001,-4.9001,-4.9001,-4.9001,-4.9001,-4.8883,-4.7834,-4.7445,-4.7344,-1.0094,-1.0094,-1.0094,-1.0094,-1.0094,-1.0094,-1.0094,-1.0063,-1.0235,-1.0804,-1.0834,-1.1147,-1.2097,-1.2761,-1.4073,-1.6371,-1.8133,-1.9771,-2.1335,-2.3722,-2.5429,-2.6227,-2.7255,-2.8062,-2.8656,-2.9666,-3.0485,-3.1072,-3.188,-3.2577,-3.3128,-3.3366,-3.3476,-3.3476,-3.3697,-3.3807,-3.3807,-3.3807,-3.3678,-3.3476,-3.3476,-3.2999,-3.2173,-3.1127,-2.9879,-2.8675,-2.8675,-2.764,-2.6245,-2.6007,-2.6098,-2.6227,-2.6007,-2.5676,-2.5485,-2.5925,-2.6778,-2.8099,-3.043,-3.2137,-3.3647,-3.5279,-3.7536,-3.9423,-3.9643,-4.0322,-4.1103,-4.1833,-4.232,-4.2556,-4.2298,-4.294,-4.3631,-4.4049,-4.43,-4.507,-4.6855,-4.6059,-4.569,-4.6653,-4.6067,-4.5883,-4.6691,-4.8646,-4.9804,-4.9713,-5.0807,-5.1453,-5.1376,-5.1368,-5.1487,-5.1661,-5.1679,-5.1915,-5.2437,-5.194,-5.2258,-5.3329,-5.1731,-5.1172,-5.1531,-5.02,-4.958,-4.958,-4.958,-4.9462,-4.9286,-4.9303,-4.9199,-4.9001,-4.9001,-4.9001,-4.8934,-4.8409,-4.8193,-4.8088,-1.0094,-1.0094,-1.0094,-1.0094,-1.0094,-1.0094,-1.0094,-1.0094,-1.0074,-1.0039,-1.003,-1.0585,-1.205,-1.2214,-1.3187,-1.5539,-1.7215,-1.8831,-2.0437,-2.2868,-2.4603,-2.5393,-2.6953,-2.7816,-2.7835,-2.9384,-3.021,-3.0246,-3.1035,-3.1452,-3.1488,-3.2284,-3.2638,-3.2674,-3.3458,-3.3807,-3.3807,-3.3807,-3.3348,-3.2638,-3.2638,-3.2155,-3.1256,-2.9684,-2.8558,-2.7842,-2.7842,-2.6806,-2.5319,-2.4548,-2.4787,-2.5301,-2.453,-2.4787,-2.5705,-2.7265,-2.8851,-3.0118,-3.021,-3.2528,-3.5334,-3.7015,-3.9239,-4.1224,-4.2011,-4.28,-4.3387,-4.3442,-4.3442,-4.3461,-4.3444,-4.3479,-4.3754,-4.4563,-4.5333,-4.6122,-4.6984,-4.6397,-4.5883,-4.5938,-4.5241,-4.5057,0.0,-4.6826,-4.8045,-4.9577,-4.9875,-5.0585,-5.1987,-5.2065,-5.2399,-5.3103,-5.3143,-5.3174,-5.3255,-5.3231,-5.3333,-5.3504,-5.3433,-5.2989,-5.2236,-5.1414,-5.1034,-5.1034,-5.1034,-5.0635,-4.9976,-5.0028,-4.9644,-4.9001,-4.9001,-4.9001,-4.9001,-4.8984,-4.8968,-4.8765,-1.0094,-1.0094,-1.0094,-1.0094,-1.0094,-1.0094,-1.0094,-1.0094,-1.0088,-1.0072,-1.0522,0.0,0.0,0.0,0.0,0.0,-1.689,-1.8172,-1.9617,-2.1537,-2.3208,-2.4548,-2.5631,-2.6458,-2.6998,-2.753,-2.8326,-2.939,-2.9666,-3.0356,-3.1415,-3.1678,-3.1806,-3.1825,-3.2082,-3.2223,-3.2223,-3.2223,-3.2357,-3.2509,-3.1439,-3.0852,-3.0485,-2.9409,-2.7501,-2.5474,0.0,-2.5172,-2.3768,-2.3511,-2.3584,-2.3859,-2.4116,-2.4401,-2.5126,-2.7813,-2.9365,-3.0797,-3.3513,-3.5826,-3.7848,-3.9478,-4.091,-4.2121,-4.291,-4.3296,-4.3349,-4.28,-4.269,-4.2543,-4.2011,-4.2341,-4.2965,-4.3773,-4.5021,-4.6177,-4.6984,-4.6856,-4.6507,-4.5957,-4.5663,0.0,0.0,0.0,0.0,-5.0313,-5.098,-5.174,-5.2777,-5.2831,-5.2937,-5.3185,-5.3185,-5.3466,-5.4022,-5.4022,-5.4606,-5.5668,-5.469,-5.3534,-5.2263,-5.1484,-5.1086,-5.1086,-5.1086,-5.0955,-5.0743,-5.0761,-5.0616,-5.038,-5.038,-5.038,-5.038,-5.038,-5.038,-5.0119,-1.0098,-1.0094,-1.0094,-1.0094,-1.0094,0.0,0.0,0.0,0.0,0.0,0.0,0.0,0.0,0.0,0.0,0.0,0.0,-1.7337,-1.8435,-2.0054,-2.1584,-2.292,-2.3998,-2.4816,-2.5371,-2.5615,-2.6392,-2.7714,-2.7714,-2.8419,-2.9798,-3.0093,-3.0249,-3.0346,-3.0624,-3.0754,-3.0754,-3.0754,-3.089,-3.1009,-2.9887,-2.9281,-2.8883,-2.7728,-2.6007,0.0,-2.3768,-2.318,-2.2575,-2.2575,-2.2749,-2.3134,-2.3951,-2.5181,-2.6759,-2.8822,-3.0601,-3.2674,-3.6193,-3.812,-3.9588,-4.1479,-4.2359,-4.2855,-4.3386,-4.3277,-4.2837,-4.2047,-4.1423,-4.0855,-4.0325,-4.0432,-4.113,-4.28,-4.4176,-4.5516,-4.6911,-4.7094,-4.6911,-4.6397,-4.6342,-4.6452,0.0,0.0,0.0,-5.071,-5.1555,-5.2344,-5.317,-5.3185,-5.3185,-5.3185,-5.3185,-5.372,-5.4821,-5.4821,-5.5647,-5.7226,-5.5705,-5.4448,-5.3437,-5.2352,-5.185,-5.185,-5.185,-5.1685,-5.1469,-5.1469,-5.1317,-5.1086,-5.1086,-5.1086,-5.1086,-5.1086,-5.1086,-5.0823,-1.0111,-1.0119,-1.0098,0.0,0.0,0.0,0.0,0.0,0.0,0.0,0.0,0.0,0.0,0.0,0.0,0.0,0.0,0.0,-1.6995,-1.8526,-1.979,-2.0699,-2.2125,-2.2975,-2.3134,-2.3759,-2.4485,-2.5304,-2.5304,-2.5799,-2.6805,-2.7558,-2.8054,-2.831,-2.9071,-2.9447,-2.9485,-2.9485,-2.9034,-2.8311,-2.8035,-2.7475,-2.6591,-2.4819,-2.4099,-2.3731,-2.14,-2.107,-2.1757,-2.1831,-2.2483,-2.3391,-2.419,-2.709,-3.0228,-3.0393,-3.2674,-3.5665,-3.8141,-3.9441,-4.0616,-4.2927,-4.3515,-4.3496,-4.346,-4.2818,-4.1992,-4.1095,-3.968,-3.8542,-3.8414,0.0,-3.8557,-4.1552,-4.2928,-4.4415,-4.6709,-4.7113,-4.7168,0.0,0.0,0.0,0.0,0.0,0.0,-5.0802,0.0,-5.2344,-5.317,-5.3185,-5.3185,-5.3185,-5.3243,-5.4014,-5.5596,-5.5688,-5.6473,-5.7978,-5.6363,-5.5614,-5.5559,-5.394,-5.3185,-5.3185,-5.3185,-5.2791,-5.2159,-5.2159,-5.1783,-5.1215,-5.1215,-5.1215,-5.1215,-5.1215,-5.1215,-5.1006,0.0,0.0,0.0,0.0,0.0,0.0,0.0,0.0,0.0,0.0,0.0,0.0,0.0,0.0,0.0,0.0,0.0,0.0,-1.6307,-1.7302,-1.8454,-1.9764,-2.0914,-2.1753,-2.2287,-2.2577,-2.3101,-2.3905,-2.3905,-2.4351,-2.518,-2.5404,-2.5876,-2.6543,-2.6749,-2.719,-2.7809,-2.7809,-2.7669,-2.7324,-2.6078,-2.5408,-2.5051,-2.3896,-2.2706,-2.1641,-2.1514,-2.1198,-2.1025,-2.2272,-2.4428,-2.6722,-2.7519,-2.8895,-3.0668,-3.3078,-3.5238,-3.7386,-3.9845,-4.1515,-4.2743,-4.3349,-4.3515,-4.3332,-4.2745,-4.1992,-4.0836,-3.8817,-3.7606,-3.6358,-3.4491,-3.6486,0.0,-3.8686,-4.2415,0.0,-4.6122,-4.7241,0.0,-4.7975,0.0,-4.9022,-4.9169,-5.0508,0.0,0.0,-5.1867,-5.2344,-5.317,-5.3185,-5.3185,-5.3185,-5.3794,-5.4583,-5.5574,-5.6785,-5.7593,-5.7978,-5.6363,-5.5614,-5.5559,-5.394,-5.3185,-5.3185,-5.3185,-5.3103,-5.2915,-5.2915,-5.2809,-5.2658,-5.2658,-5.2658,-5.2658,-5.2658,-5.2658,-5.2536,0.0,0.0,0.0,0.0,0.0,0.0,0.0,0.0,0.0,0.0,0.0,0.0,0.0,0.0,0.0,0.0,0.0,0.0,0.0,-1.6375,-1.7195,-1.8067,-1.8864,-1.9494,-1.9937,-2.0669,-2.1088,-2.1155,-2.2344,-2.2989,-2.3124,-2.3496,-2.3985,-2.4544,-2.4544,-2.4816,-2.5266,-2.5266,-2.5253,0.0,0.0,-2.3712,-2.3577,-2.2595,-2.1633,-2.0796,-2.0822,-2.1383,-2.2474,-2.4841,-2.7071,-2.8998,-2.9806,-3.1347,-3.3293,-3.5459,-3.7514,-3.9441,-4.1167,-4.2543,-4.3515,-4.3515,-4.3222,-4.258,-4.1056,-3.9827,-3.8193,-3.5399,-3.3899,-3.2669,-3.128,-3.3476,0.0,0.0,0.0,0.0,-4.57,-4.6985,-4.8049,0.0,-4.9591,0.0,-5.0563,-5.1775,-5.2527,0.0,-5.2527,-5.2729,-5.3167,-5.3185,-5.3185,-5.3185,-5.3647,-5.4436,-5.5574,-5.6492,-5.7116,-5.7446,-5.5831,-5.506,-5.5023,-5.3775,-5.3185,-5.3185,0.0,-5.3185,-5.3185,-5.3185,-5.3185,-5.3185,-5.3185,-5.3185,-5.3185,-5.3185,-5.3185,-5.3143,0.0,0.0,0.0,0.0,0.0,0.0,0.0,0.0,0.0,-1.0423,0.0,0.0,0.0,0.0,0.0,0.0,0.0,0.0,0.0,0.0,-1.6135,-1.628,-1.6761,-1.7101,-1.7305,-1.8648,-1.897,-1.8217,-2.0652,-2.1521,-2.0927,-2.1795,-2.235,-2.2624,-2.2624,-2.2682,-2.2797,-2.2797,-2.274,-2.2611,-2.2449,-2.2296,-2.2108,0.0,-2.0797,-2.0639,-2.0106,-2.1694,-2.4557,-2.7886,-2.9684,-3.0705,-3.1733,-3.4077,-3.6666,-3.7676,-3.946,-4.1297,-4.2213,-4.2965,-4.3515,-4.3515,-4.28,-4.1515,-3.9093,-3.7202,-3.5037,-3.1764,-2.9898,-2.8785,-2.8565,-3.0099,-3.2406,-3.5459,0.0,-4.2214,-4.5443,-4.6581,-4.7736,-4.9462,-5.0343,-5.1151,-5.2068,-5.2803,-5.3185,-5.3185,-5.3185,-5.3185,-5.3185,-5.3185,-5.324,-5.3371,-5.3371,-5.4087,-5.5574,-5.5614,-5.5941,-5.662,-5.5115,-5.4399,-5.4363,-5.3573,-5.3185,-5.3185,0.0,0.0,-5.3185,-5.3185,-5.3185,-5.3185,-5.3185,-5.3185,-5.3185,-5.3185,-5.3185,-5.3167,0.0,0.0,0.0,0.0,0.0,0.0,0.0,-1.0714,-1.1427,-1.2142,-1.0983,-1.0481,-1.1504,0.0,0.0,0.0,0.0,0.0,0.0,0.0,0.0,-1.6195,-1.6468,-1.6814,-1.7296,-1.7772,-1.7924,-1.7719,-1.8958,-1.9515,-1.94,-2.0275,-2.1056,-2.1735,-2.1735,-2.212,-2.2797,-2.2797,-2.237,-2.1712,-2.169,-2.1274,-2.0647,-2.0303,0.0,0.0,-2.1239,-2.2278,-2.3795,-2.7684,-3.0418,-3.2564,-3.4761,-3.6299,-3.7713,-3.9863,-4.0765,-4.1407,-4.2892,-4.3404,-4.3515,-4.3515,-4.2396,-4.0689,-3.8264,-3.5899,0.0,-3.0069,-2.8668,-2.7603,-2.6274,-2.8973,-3.2021,-3.3917,0.0,0.0,0.0,0.0,-4.7957,0.0,0.0,0.0,0.0,0.0,0.0,0.0,0.0,0.0,-5.3185,-5.3185,-5.35,-5.4179,-5.4197,-5.4638,-5.5574,-5.5614,-5.5666,-5.5794,-5.484,-5.4399,-5.4363,-5.3573,-5.3185,-5.3185,0.0,0.0,-5.3185,-5.3185,-5.3185,-5.3185,-5.3185,-5.3185,-5.3185,-5.3185,-5.3185,-5.3093,0.0,0.0,0.0,0.0,0.0,0.0,-1.131,-1.1808,-1.2532,-1.3835,-1.3269,-1.2904,-1.3329,-1.3349,-1.3654,0.0,0.0,0.0,0.0,0.0,0.0,-1.5671,-1.5704,-1.5838,-1.6092,-1.7122,0.0,0.0,0.0,-1.9446,-1.9023,0.0,0.0,-2.0885,-2.0885,-2.1119,-2.1504,-2.1504,-2.1254,-2.0885,-2.0885,-2.0635,-2.0285,-2.0197,0.0,0.0,-2.1515,-2.2483,-2.3647,-2.7177,-2.9702,-3.1861,-3.4711,-3.678,-3.8432,-4.001,-4.1075,-4.1992,-4.3167,-4.3515,-4.3515,-4.3515,-4.1974,-3.9606,-3.6321,0.0,0.0,-2.7255,-2.6209,-2.5676,-2.4915,-2.7376,0.0,-3.221,-3.522,0.0,0.0,0.0,0.0,0.0,0.0,0.0,0.0,0.0,0.0,0.0,0.0,0.0,-5.3185,-5.3185,-5.339,-5.3775,-5.3794,-5.4161,-5.4968,-5.4564,-5.4564,-5.4968,-5.4161,-5.3794,-5.3775,-5.339,-5.3185,-5.3185,-5.3185,0.0,-5.3185,-5.3185,-5.3185,-5.3185,-5.3185,-5.3185,-5.3185,-5.3185,-5.2949,-5.2527,0.0,0.0,0.0,0.0,0.0,0.0,-1.2208,-1.2747,-1.3582,-1.5265,-1.5645,-1.57,-1.5503,-1.4536,-1.4187,0.0,0.0,0.0,0.0,0.0,0.0,0.0,0.0,-1.5032,-1.4995,0.0,0.0,0.0,0.0,0.0,0.0,0.0,0.0,0.0,0.0,0.0,-2.0308,-2.0308,-2.0308,0.0,0.0,-2.0308,0.0,0.0,0.0,0.0,0.0,-2.232,-2.3388,-2.635,-2.8261,-2.9934,-3.2821,-3.5646,-3.8102,-3.9093,-4.0524,-4.1992,-4.2965,-4.3369,-4.346,-4.3277,-4.1423,-3.856,-3.4486,-3.1678,-2.8851,-2.4997,-2.419,-2.419,-2.419,-2.5888,-2.8128,-3.0717,-3.2485,-3.5532,0.0,0.0,0.0,0.0,0.0,0.0,0.0,0.0,0.0,0.0,0.0,0.0,-5.3185,-5.3185,-5.3185,-5.3185,-5.3185,-5.35,-5.4142,-5.3537,-5.3537,-5.4142,-5.35,-5.3185,-5.3185,-5.3185,-5.3185,-5.3185,-5.3185,0.0,0.0,-5.3185,-5.3185,-5.3185,-5.3185,-5.3185,-5.3167,-5.3023,-5.2546,-5.194,0.0,0.0,0.0,0.0,0.0,0.0,-1.1462,-1.2904,-1.4481,-1.6167,-1.7079,-1.7255,-1.6477,-1.4901,-1.3937,0.0,0.0,0.0,0.0,0.0,0.0,0.0,0.0,0.0,0.0,0.0,0.0,0.0,0.0,0.0,0.0,0.0,0.0,0.0,0.0,0.0,0.0,-2.0308,0.0,0.0,0.0,0.0,0.0,0.0,0.0,0.0,0.0,-2.1632,-2.2484,-2.4967,-2.6314,-2.7244,-2.9005,-3.2216,-3.5646,-3.7254,-3.8869,0.0,-4.1992,-4.2928,-4.3331,-4.2598,-4.0598,-3.7753,-3.3628,0.0,-2.818,-2.4887,-2.419,-2.419,-2.419,-2.4989,-2.6641,-2.9806,-3.1659,-3.4692,0.0,0.0,0.0,0.0,0.0,0.0,0.0,0.0,0.0,0.0,0.0,0.0,0.0,-5.3185,-5.3185,-5.3185,-5.3185,-5.3243,-5.3295,-5.3243,-5.3243,-5.3295,-5.3243,-5.3185,-5.3185,-5.3185,-5.3185,-5.3185,0.0,0.0,0.0,-5.3185,-5.3185,-5.3185,-5.3185,-5.3185,-5.3115,-5.238,-5.205,-5.1775,0.0,0.0,0.0,0.0,0.0,0.0,-1.208,-1.2856,-1.4069,-1.6279,-1.6859,-1.715,-1.7314,-1.5325,-1.3759,-1.3219,0.0,0.0,0.0,0.0,0.0,0.0,0.0,0.0,0.0,0.0,0.0,0.0,0.0,0.0,0.0,0.0,0.0,0.0,0.0,0.0,0.0,0.0,0.0,0.0,0.0,0.0,0.0,0.0,0.0,0.0,0.0,0.0,-2.1625,-2.3075,-2.3946,-2.464,-2.5853,-2.794,-3.0638,-3.4211,-3.6446,-3.8303,-4.0891,-4.2176,-4.269,-4.2378,-4.012,-3.7019,-3.3408,-3.0363,-2.7493,-2.4759,-2.419,-2.419,-2.419,-2.4456,-2.5576,-2.8301,-2.8888,-3.0803,-3.5991,0.0,0.0,0.0,0.0,0.0,0.0,0.0,0.0,0.0,0.0,0.0,0.0,-5.3185,-5.3185,-5.3185,-5.3185,-5.3185,-5.3185,-5.3185,-5.3185,-5.3185,-5.3185,-5.3185,-5.3185,-5.3185,-5.3185,-5.3185,0.0,0.0,0.0,-5.3185,-5.3185,-5.3185,-5.3185,-5.2913,-5.2435,-5.2105,-5.1391,-5.0473,0.0,0.0,0.0,0.0,0.0,-1.078,-1.2233,-1.266,-1.3645,-1.595,-1.6256,-1.6571,-1.7416,-1.517,-1.3388,-1.2783,-1.3239,0.0,0.0,0.0,0.0,0.0,0.0,0.0,0.0,0.0,-1.7122,-1.7699,0.0,0.0,0.0,0.0,0.0,0.0,0.0,0.0,0.0,0.0,0.0,0.0,0.0,0.0,0.0,0.0,0.0,0.0,0.0,0.0,0.0,0.0,0.0,-2.2828,-2.3483,-2.4534,-2.6473,-3.1329,-3.4082,-3.6211,-3.9221,-4.0799,-4.1534,-4.1295,-3.9166,-3.6225,-3.2693,-2.9769,-2.7119,-2.4704,-2.419,-2.419,-2.419,-2.419,-2.4832,-2.6788,-2.7016,-2.8558,-3.3146,-3.544,0.0,0.0,0.0,0.0,0.0,0.0,0.0,0.0,0.0,0.0,0.0,-5.3185,-5.3185,-5.3185,-5.3185,-5.3185,-5.3185,-5.3185,-5.3185,-5.3185,-5.3185,-5.3185,-5.3185,-5.3185,-5.3185,-5.3185,0.0,0.0,0.0,-5.3185,-5.3078,-5.2858,-5.2858,-5.2344,-5.161,-5.1371,-5.0583,-4.9555,0.0,0.0,0.0,0.0,0.0,-1.0605,-1.1484,-1.2344,-1.3494,-1.5192,-1.5403,-1.5729,-1.6532,-1.4277,-1.2737,-1.2798,-1.2757,0.0,0.0,0.0,0.0,0.0,0.0,0.0,0.0,0.0,-1.7699,-1.7699,-1.9446,-2.0288,0.0,0.0,0.0,0.0,0.0,0.0,0.0,0.0,0.0,0.0,0.0,0.0,-2.0308,0.0,0.0,0.0,0.0,0.0,0.0,0.0,0.0,0.0,0.0,-2.2483,-2.3997,-2.8815,-3.1935,-3.4376,-3.6868,-3.8704,-3.9735,-3.8946,-3.7514,-3.5238,-3.1164,-2.8962,-2.7119,-2.4704,-2.419,-2.419,-2.419,-2.419,-2.4475,-2.5283,-2.6751,-2.92,-3.322,-3.5932,0.0,0.0,0.0,0.0,0.0,0.0,0.0,0.0,0.0,0.0,0.0,-5.3185,-5.3185,-5.3185,-5.3185,-5.3185,-5.3185,-5.3185,-5.3185,-5.3185,-5.3185,-5.3185,-5.3185,-5.3185,-5.3185,0.0,0.0,0.0,0.0,-5.3185,-5.2729,-5.1995,-5.1995,-5.1518,-5.0729,-4.9922,-4.961,-4.9482,0.0,0.0,0.0,0.0,0.0,0.0,-1.0664,-1.0957,-1.1523,-1.2654,-1.2809,-1.3336,-1.4741,-1.3093,-1.2131,-1.2741,-1.2736,0.0,0.0,0.0,0.0,0.0,0.0,0.0,0.0,-1.683,-1.7988,-1.8588,-2.0292,-2.1115,-2.1115,-2.1115,0.0,0.0,0.0,0.0,0.0,0.0,0.0,0.0,0.0,-2.0308,-2.0308,0.0,0.0,0.0,0.0,0.0,0.0,0.0,0.0,0.0,0.0,0.0,0.0,-2.5356,-2.7928,-3.0228,-3.2682,-3.41,-3.4853,-3.4582,-3.333,-3.1494,-2.9108,-2.7321,-2.5797,-2.4465,-2.419,-2.419,-2.419,-2.419,-2.4997,-2.7457,-2.876,-3.0467,-3.3385,0.0,0.0,0.0,0.0,0.0,0.0,0.0,0.0,0.0,0.0,0.0,0.0,-5.3185,-5.3185,-5.3185,-5.3185,-5.3185,-5.3185,-5.3185,-5.3185,-5.3185,-5.3185,-5.3185,-5.3185,-5.3185,0.0,0.0,0.0,0.0,0.0,-5.238,-5.1903,-5.1187,-5.1187,-5.0692,-4.9939,-4.9702,-4.9225,-4.8673,0.0,0.0,0.0,0.0,0.0,0.0,-1.0293,-1.0293,-1.0605,-1.1484,-1.1309,-1.1875,-1.3887,-1.2265,-1.1521,-1.2732,-1.2777,0.0,0.0,0.0,0.0,0.0,0.0,0.0,-1.5192,-1.6542,-1.7815,-1.8992,-2.0369,-2.137,-2.1985,-2.1985,-2.1543,-2.075,0.0,0.0,0.0,0.0,0.0,0.0,-2.0173,-2.01,-1.985,0.0,0.0,0.0,0.0,0.0,0.0,0.0,0.0,0.0,0.0,0.0,0.0,0.0,-2.4334,-2.634,-2.9706,-3.1146,-3.1684,-3.1684,-3.0711,-2.9329,-2.7714,-2.6347,-2.5172,-2.4373,-2.419,-2.419,-2.419,-2.419,-2.485,-2.6859,-2.8374,-3.0246,0.0,0.0,0.0,0.0,0.0,0.0,0.0,0.0,0.0,0.0,0.0,0.0,0.0,0.0,-5.2307,-5.2307,-5.2873,-5.3185,-5.3185,-5.3185,-5.3185,-5.3185,-5.3185,-5.3041,-5.2747,-5.2747,0.0,0.0,0.0,0.0,0.0,-5.1555,-5.1059,-5.0343,-5.0343,-4.9829,-4.9095,-4.9095,-4.8765,-4.8306,0.0,0.0,0.0,0.0,0.0,0.0,0.0,-1.0293,-1.0586,-1.1406,-1.0801,-1.1191,-1.3574,-1.1719,-1.0957,-1.2578,-1.2708,0.0,0.0,0.0,0.0,0.0,0.0,0.0,-1.5192,-1.6118,-1.7411,-1.9088,-2.0023,-2.1312,-2.2893,-2.2893,-2.2389,-2.1504,-2.1504,-2.1058,0.0,0.0,0.0,0.0,-1.9962,-1.9812,0.0,0.0,0.0,0.0,0.0,0.0,0.0,0.0,0.0,0.0,0.0,0.0,0.0,0.0,0.0,0.0,0.0,-2.9248,-2.9689,-2.9696,-2.917,-2.8271,-2.6767,-2.5841,0.0,-2.4355,-2.419,-2.4226,-2.4355,-2.4318,-2.4373,-2.4667,-2.6686,-2.9329,0.0,0.0,0.0,0.0,0.0,0.0,0.0,0.0,0.0,0.0,0.0,0.0,0.0,0.0,-5.0802,-5.0802,-5.2252,-5.302,-5.302,-5.302,-5.302,-5.302,-5.302,-5.2637,-5.1903,-5.1903,0.0,0.0,0.0,0.0,0.0,-5.071,-5.0233,-4.9519,-4.9519,-4.9003,-4.8306,-4.8306,-4.8306,-4.8306,0.0,0.0,0.0,0.0,0.0,0.0,0.0,0.0,0.0,0.0,-1.043,-1.0527,-1.1133,-1.0664,-1.0469,0.0,0.0,0.0,0.0,0.0,0.0,0.0,0.0,0.0,-1.5192,-1.6657,-1.8254,-1.9985,-2.1485,-2.2759,-2.3783,-2.3783,-2.297,-2.1504,-2.1504,-2.1058,0.0,0.0,0.0,0.0,-2.0212,-2.0173,0.0,0.0,0.0,0.0,-2.0308,-2.0308,0.0,0.0,0.0,0.0,0.0,0.0,0.0,0.0,-2.1161,-2.1521,-2.3546,0.0,-2.482,-2.4714,-2.5016,-2.5236,0.0,-2.4612,-2.4438,-2.4245,-2.419,-2.4575,-2.5805,-2.5529,-2.6127,-2.9212,-3.1219,-3.3311,0.0,0.0,0.0,0.0,0.0,0.0,0.0,0.0,0.0,0.0,0.0,0.0,0.0,0.0,-5.0802,-5.0802,-5.1169,-5.1371,-5.1371,-5.1371,-5.1371,-5.1371,-5.1371,-5.1279,-5.1077,-5.1077,0.0,0.0,0.0,0.0,-4.9886,-4.9886,-4.937,-4.8618,-4.8618,-4.8489,-4.8306,-4.8306,-4.8306,-4.8306,0.0,0.0,0.0,0.0,0.0,0.0,0.0,0.0,0.0,0.0,-1.0293,-1.0293,-1.0293,-1.0293,-1.0293,0.0,0.0,0.0,0.0,0.0,0.0,0.0,0.0,-1.5284,-1.5245,-1.6503,-1.8177,-2.0308,-2.1581,-2.3043,-2.4639,-2.4639,-2.3735,-2.2062,-2.1293,-2.0712,0.0,0.0,0.0,-1.9735,-2.0135,0.0,0.0,0.0,0.0,0.0,-1.9558,-1.9708,0.0,-2.0596,-2.0615,-2.0357,0.0,0.0,0.0,0.0,-2.0646,-2.0576,-2.1195,-2.2523,-2.3722,-2.3656,-2.421,-2.4779,-2.4866,-2.4598,-2.4357,-2.4452,-2.441,-2.4709,-2.5946,-2.607,-2.6888,-2.9824,-3.2096,0.0,0.0,0.0,0.0,0.0,0.0,0.0,0.0,0.0,0.0,0.0,0.0,0.0,0.0,0.0,-4.9664,-4.9664,-4.9664,-5.0031,-5.0802,-5.0802,-5.0802,-5.0802,-5.0802,-5.0618,-5.0251,-5.0251,0.0,0.0,0.0,0.0,-4.9003,-4.9003,-4.8728,-4.8306,-4.8306,-4.8306,-4.8306,-4.8306,-4.8306,-4.8306,0.0,0.0,0.0,0.0,0.0,0.0,0.0,0.0,0.0,0.0,0.0,0.0,0.0,0.0,0.0,0.0,0.0,0.0,0.0,0.0,0.0,0.0,-1.5234,-1.5431,-1.5685,-1.6342,-1.7937,-2.0481,-2.1293,-2.287,-2.5115,-2.525,-2.4404,-2.274,-2.1177,-2.0404,-2.0308,0.0,-1.9869,-1.9261,-2.0004,0.0,0.0,0.0,0.0,0.0,0.0,0.0,0.0,-2.0635,-2.075,-2.0423,-2.1096,0.0,0.0,0.0,0.0,0.0,-2.0341,-2.2413,-2.4435,-2.4141,-2.4782,-2.5495,-2.5548,-2.504,-2.4591,-2.4768,-2.4743,-2.5025,-2.6114,-2.682,0.0,-2.9765,0.0,0.0,0.0,0.0,0.0,0.0,0.0,0.0,0.0,0.0,0.0,0.0,0.0,0.0,0.0,0.0,0.0,-4.8306,-4.8306,-4.8985,-5.0398,-5.0417,-5.0417,-5.0417,-5.0417,-5.005,-4.9408,-4.9408,-4.8985,0.0,0.0,0.0,-4.8306,-4.8306,-4.8306,-4.8306,-4.8306,-4.8306,-4.8306,-4.8306,-4.8306,-4.8306,0.0,0.0,0.0,0.0,0.0,0.0,0.0,0.0,0.0,0.0,0.0,0.0,0.0,0.0,0.0,0.0,0.0,0.0,0.0,0.0,0.0,-1.4257,-1.4986,-1.6015,-1.7393,-1.7534,-1.8812,-2.1331,-2.2177,-2.3182,-2.4298,-2.4981,-2.4404,-2.2759,-2.1754,-2.0942,-2.0308,-2.0308,-2.0212,-2.0119,0.0,0.0,0.0,0.0,0.0,0.0,0.0,0.0,0.0,-1.9304,-1.9785,-2.0327,-2.0442,0.0,0.0,0.0,0.0,0.0,-2.1941,-2.3602,-2.4535,-2.3008,-2.429,-2.5739,-2.5084,-2.4847,-2.476,-2.4797,-2.5185,-2.6253,-2.8638,-2.9626,-3.1129,0.0,0.0,0.0,0.0,0.0,0.0,0.0,0.0,0.0,0.0,0.0,0.0,0.0,0.0,0.0,0.0,0.0,0.0,-4.8306,-4.8306,-4.8416,-4.8691,-4.8691,-4.8691,-4.8691,-4.8691,-4.8618,-4.8508,-4.8508,-4.8434,0.0,0.0,-4.8306,-4.8306,-4.8306,-4.8306,-4.8306,-4.8306,-4.8306,-4.8306,-4.8306,-4.8306,-4.8306,0.0,0.0,0.0,0.0,0.0,0.0,0.0,0.0,0.0,0.0,0.0,0.0,0.0,0.0,0.0,0.0,0.0,0.0,0.0,0.0,-1.3262,-1.4062,-1.5389,-1.645,-1.72,-1.809,-1.9535,-2.1543,-2.2906,-2.3978,-2.4736,-2.4231,-2.3338,-2.2079,-2.0797,-1.9724,-1.8907,-1.8907,-1.9173,-1.9596,0.0,0.0,0.0,0.0,0.0,0.0,0.0,0.0,0.0,0.0,-1.9269,-1.9681,-2.0154,0.0,0.0,0.0,0.0,0.0,-2.1203,-2.2949,-2.4307,-2.3474,-2.567,-2.7974,-2.7679,-2.7647,-2.769,-2.779,-2.7958,-2.8585,-3.0268,0.0,-3.3534,0.0,0.0,0.0,0.0,0.0,0.0,0.0,0.0,0.0,0.0,0.0,0.0,0.0,0.0,0.0,0.0,0.0,0.0,0.0,-4.8621,-4.8532,-4.8306,-4.8306,-4.8306,-4.8306,-4.8306,-4.8306,-4.8306,-4.8306,-4.8306,-4.8306,0.0,-4.8306,-4.8306,-4.8306,-4.8306,-4.8306,-4.8306,-4.8306,-4.8306,-4.8306,-4.8306,-4.8306,0.0,0.0,0.0,0.0,0.0,0.0,0.0,0.0,0.0,0.0,0.0,0.0,0.0,0.0,0.0,0.0,0.0,0.0,0.0,-1.1934,-1.3164,-1.3789,-1.5664,-1.7069,-1.7874,-1.8945,-2.0396,-2.2207,-2.3553,-2.4478,-2.498,-2.3774,-2.252,-2.1235,-1.9951,-1.8763,-1.7699,-1.7699,-1.808,-1.8692,0.0,0.0,0.0,0.0,0.0,0.0,0.0,0.0,0.0,0.0,0.0,0.0,0.0,0.0,0.0,-2.0308,-2.0308,-2.0385,-2.0769,-2.247,-2.4187,-2.4586,-2.6892,-2.9239,-2.9928,-3.0136,-3.0324,-3.0867,-3.1142,-3.1484,0.0,-3.402,0.0,0.0,0.0,0.0,0.0,0.0,0.0,0.0,0.0,0.0,0.0,0.0,0.0,0.0,0.0,0.0,0.0,0.0,0.0,0.0,-4.9027,-4.888,-4.8568,-4.8477,-4.8383,-4.8306,-4.8306,-4.8306,-4.8306,-4.8306,-4.8306,-4.8306,-4.8306,-4.8306,-4.8306,-4.8306,-4.8306,-4.8306,-4.8306,-4.8306,-4.8306,-4.8306,-4.8306,-4.8306,0.0,0.0,0.0,0.0,0.0,0.0,0.0,0.0,0.0,0.0,0.0,0.0,0.0,0.0,0.0,0.0,0.0,0.0,0.0,-1.1934,-1.293,-1.2988,-1.5371,-1.818,-2.1361,-2.0757,-2.1597,-2.4002,-2.4138,-2.4205,-2.418,-2.4136,-2.2782,-2.0387,-2.0271,-1.9284,-1.7699,-1.7699,-1.7738,-1.7795,-1.7795,0.0,0.0,0.0,0.0,0.0,0.0,0.0,0.0,0.0,0.0,0.0,0.0,0.0,-2.0308,-2.0308,-2.0308,-2.0635,-2.2197,-2.3336,-2.4471,-2.6024,-2.6624,-2.7454,-2.9829,-3.0367,-3.0815,-3.241,-3.3798,-3.4832,-3.5151,-3.8497,0.0,0.0,0.0,0.0,0.0,0.0,0.0,0.0,0.0,0.0,0.0,0.0,0.0,0.0,0.0,0.0,0.0,0.0,0.0,0.0,0.0,-4.9445,-4.9416,-4.9027,-4.8675,-4.8306,-4.8306,-4.8306,-4.8306,-4.8306,-4.8306,-4.8306,-4.8306,-4.8306,-4.8306,-4.8306,-4.8306,-4.8306,-4.8306,-4.8306,-4.8306,-4.8306,-4.8306,-4.8306,0.0,0.0,0.0,0.0,0.0,0.0,0.0,0.0,0.0,0.0,0.0,0.0,0.0,0.0,0.0,0.0,0.0,0.0,0.0,-1.1934,-1.3125,-1.3613,-1.5605,-1.7812,-2.0191,-2.0973,-2.2328,-2.4265,-2.4226,-2.4204,-2.42,-2.3184,-2.1882,-2.0396,-1.9856,-1.8933,-1.7728,-1.7186,-1.7237,-1.7661,-1.716,-1.6776,0.0,0.0,0.0,0.0,0.0,0.0,0.0,0.0,-1.7503,-1.835,-1.9231,-1.9865,-2.0308,-2.0308,-2.0308,-2.0442,-2.1081,-2.3004,-2.5005,-2.5635,-2.7385,-2.9481,-3.1506,-3.3173,-3.4808,-3.6526,-3.7713,-3.8497,-3.8596,0.0,0.0,0.0,0.0,0.0,0.0,0.0,0.0,0.0,0.0,0.0,0.0,0.0,0.0,0.0,0.0,0.0,0.0,0.0,0.0,0.0,0.0,-4.8147,-4.7947,-4.7788,-4.7638,-4.7503,-4.8034,-4.8306,-4.8306,-4.8306,-4.8306,-4.8306,-4.8306,-4.8012,-4.759,-4.8104,-4.8012,-4.759,-4.8104,-4.8306,-4.8306,-4.8306,-4.8306,-4.8306,0.0,0.0,0.0,0.0,0.0,0.0,0.0,0.0,0.0,0.0,0.0,0.0,0.0,0.0,0.0,0.0,0.0,0.0,-1.0293,-1.168,-1.2852,-1.3691,-1.5371,-1.7109,-1.8848,-2.0605,-2.2145,-2.3509,-2.3735,-2.3736,-2.349,-2.2366,-2.1355,-2.0456,-1.9596,-1.8843,-1.8177,-1.6998,-1.6822,-1.7243,-1.6419,-1.6099,0.0,0.0,0.0,0.0,0.0,0.0,0.0,0.0,-1.6872,-1.7526,-1.8657,-1.9408,-1.9946,-2.0212,-2.0481,-2.0673,-2.0673,-2.275,-2.5043,-2.5577,-2.8077,-3.1058,-3.3526,-3.5661,-3.768,-3.9681,-4.0527,-4.0989,-4.1266,0.0,0.0,0.0,0.0,0.0,0.0,0.0,0.0,0.0,0.0,0.0,0.0,0.0,0.0,0.0,0.0,0.0,0.0,0.0,0.0,0.0,0.0,-4.7533,-4.718,-4.706,-4.6991,-4.701,-4.7478,-4.7756,-4.7899,-4.7756,-4.7702,-4.7702,-4.7591,-4.7241,-4.6746,-4.7333,-4.7223,-4.6764,-4.7333,-4.7553,-4.7553,-4.7553,-4.7553,-4.7553,0.0,0.0,0.0,0.0,0.0,0.0,0.0,0.0,0.0,0.0,0.0,0.0,0.0,0.0,0.0,0.0,0.0,0.0,-1.0293,-1.1113,-1.1992,-1.2852,-1.4492,-1.6191,-1.7949,-1.9668,-2.0973,-2.1808,-2.2669,-2.263,-2.179,-2.1853,-2.1385,-2.0457,-1.9616,-1.9216,-1.9074,-1.729,-1.6519,-1.6435,-1.5559,-1.5212,-1.5212,0.0,0.0,0.0,0.0,0.0,0.0,0.0,-1.6484,-1.6795,-1.8453,-1.8992,-1.9184,-2.0042,-2.0885,-2.1504,-2.1504,-2.2797,-2.4529,-2.6217,-2.8558,-3.1558,-3.5769,-3.7411,-3.8757,-4.1308,-4.1827,-4.2085,-4.2951,-4.3104,0.0,0.0,0.0,0.0,0.0,0.0,0.0,0.0,0.0,0.0,0.0,0.0,0.0,0.0,0.0,0.0,0.0,0.0,0.0,0.0,0.0,0.0,-4.7571,-4.7194,-4.6989,-4.6976,-4.6588,-4.6591,-4.6982,-4.6579,-4.6408,-4.6376,-4.6044,-4.5902,-4.5883,-4.5883,-4.5883,-4.5902,-4.5902,-4.5902,-4.5902,-4.5902,-4.5902,-4.5902,0.0,0.0,0.0,0.0,0.0,0.0,0.0,0.0,0.0,0.0,0.0,0.0,0.0,0.0,0.0,0.0,0.0,0.0,-1.0231,-1.1093,-1.1992,-1.2852,-1.3926,-1.5019,-1.6152,-1.7285,-1.9179,-2.1872,-2.1521,-2.1208,-2.0955,-2.0976,-2.084,-2.0585,-2.0888,-2.0351,-1.9111,-1.7915,-1.7418,-1.7338,-1.6479,-1.6118,-1.6118,0.0,0.0,0.0,0.0,0.0,0.0,0.0,0.0,0.0,-1.7757,-1.893,-1.9965,-2.0212,-2.1293,-2.2274,-2.1677,-2.4082,-2.703,-2.8088,-3.1198,-3.4769,-3.7834,-3.9161,-4.0669,-4.3816,-4.3989,-4.3643,-4.3893,0.0,0.0,0.0,0.0,0.0,0.0,0.0,0.0,0.0,0.0,0.0,0.0,0.0,0.0,0.0,0.0,0.0,0.0,0.0,0.0,0.0,0.0,0.0,-4.6196,-4.607,-4.603,-4.601,-4.5897,-4.6108,-4.6564,-4.6438,-4.6263,-4.6044,-4.5938,-4.5571,-4.5057,-4.5057,-4.5388,-4.5902,-4.5902,-4.5902,-4.5902,-4.5902,-4.5902,-4.5902,0.0,0.0,0.0,0.0,0.0,0.0,0.0,0.0,0.0,0.0,-1.0094,-1.0127,0.0,0.0,0.0,-1.0198,-1.0194,0.0,-1.0207,-1.0741,-1.1621,-1.2852,-1.3359,-1.4336,-1.5879,-1.6426,-1.7734,-1.9824,-1.9648,-1.9746,-2.0098,-2.0449,-2.0957,-2.1601,-2.2106,-2.1556,-2.0187,-1.8901,-1.8152,-1.7757,-1.6866,-1.6492,-1.6506,0.0,0.0,0.0,0.0,0.0,0.0,0.0,0.0,0.0,-1.6968,-1.7946,-1.8984,-2.0,-2.1235,-2.2389,-2.2885,-2.5409,-2.8338,-3.0165,-3.3064,-3.6423,-4.0008,-4.1431,-4.2689,-4.5094,-4.4921,-4.4412,-4.4739,0.0,0.0,0.0,0.0,0.0,0.0,0.0,0.0,0.0,0.0,0.0,0.0,0.0,0.0,0.0,0.0,0.0,0.0,0.0,0.0,0.0,0.0,0.0,-4.541,-4.541,-4.541,-4.541,-4.541,-4.557,-4.5881,-4.5881,-4.5786,-4.5565,-4.5443,-4.5025,-4.4415,-4.4415,-4.4627,-4.4947,-4.4947,-4.4947,-4.4947,-4.4947,-4.4947,-4.4947,0.0,0.0,-1.0094,-1.0094,0.0,0.0,0.0,0.0,0.0,-1.0094,-1.0094,-1.0094,0.0,0.0,0.0,-1.0186,-1.0202,-1.0204,-1.0204,-1.0252,-1.1074,-1.2812,-1.3047,-1.4219,-1.6523,-1.6582,-1.6582,-1.6582,-1.7441,-1.832,-1.9199,-2.0156,-2.1406,-2.2871,-2.2969,-2.2441,-2.1426,-1.9701,-1.8505,-1.7718,-1.6851,-1.6494,-1.6506,-1.6506,0.0,0.0,0.0,0.0,0.0,0.0,0.0,0.0,-1.6234,-1.6545,-1.708,-1.9485,-2.0869,-2.2139,-2.4538,-2.6563,-2.8819,-3.2179,-3.4564,-3.7288,-4.1931,-4.3662,-4.4547,-4.5421,0.0,-4.4662,0.0,0.0,0.0,0.0,0.0,0.0,0.0,0.0,0.0,0.0,0.0,0.0,0.0,0.0,0.0,0.0,0.0,0.0,0.0,0.0,0.0,0.0,0.0,0.0,-4.5159,-4.5159,-4.5159,0.0,-4.5159,-4.5159,-4.514,-4.5107,-4.5085,-4.5041,-4.472,-4.4387,-4.4043,-4.4043,-4.3884,-4.3597,-4.3597,-4.3597,-4.3615,-4.3565,-4.3548,-4.3548,0.0,0.0,-1.0094,-1.0094,0.0,0.0,0.0,0.0,-1.0094,-1.0094,-1.0094,-1.0094,-1.0094,-1.0106,0.0,-1.0113,-1.0168,-1.0194,-1.0194,-1.0216,-1.0992,-1.275,-1.4121,-1.5117,-1.5664,-1.5684,-1.5684,-1.5684,-1.6543,-1.7422,-1.8301,-1.9863,-2.0781,-2.1172,-2.1855,-2.0918,-1.8769,-1.7688,-1.7097,-1.6854,-1.6594,-1.6494,-1.6506,-1.6506,-1.5965,0.0,0.0,0.0,0.0,0.0,0.0,0.0,-1.6234,-1.693,-1.768,-1.8915,-2.0816,-2.2797,-2.4028,-2.6549,-2.9665,-3.307,-3.7219,-4.0731,-4.1827,-4.3239,-4.4547,-4.5421,-4.546,0.0,0.0,0.0,0.0,0.0,0.0,0.0,0.0,0.0,0.0,0.0,0.0,0.0,0.0,0.0,0.0,0.0,0.0,0.0,0.0,0.0,0.0,0.0,0.0,-4.5568,-4.5495,-4.5495,-4.5495,0.0,-4.5495,-4.5495,-4.5485,-4.5222,-4.4954,-4.4695,-4.4618,-4.4553,-4.4474,-4.4474,-4.4433,-4.4364,-4.4364,-4.4364,-4.4323,-4.4001,-4.3896,-4.3849,0.0,0.0,0.0,0.0,0.0,0.0,0.0,0.0,-1.0094,-1.0094,-1.0094,-1.0094,-1.0094,-1.0094,0.0,0.0,-1.0162,-1.0194,-1.0194,-1.0239,-1.1033,-1.2772,-1.4492,-1.5391,-1.5391,-1.5391,-1.5391,-1.5391,-1.5859,-1.6953,-1.8652,-2.041,-2.1641,-2.2422,-2.2461,-2.1269,-1.916,-1.7869,-1.7036,-1.6591,-1.6555,-1.6555,-1.6539,-1.6513,-1.5981,-1.5242,-1.5207,0.0,0.0,0.0,0.0,0.0,0.0,0.0,-1.6753,-1.8007,-1.9912,-2.1966,-2.3648,-2.6856,-3.0737,-3.4949,-3.8931,-4.1788,-4.1788,-4.2797,-4.3855,-4.4316,0.0,0.0,0.0,0.0,0.0,0.0,0.0,0.0,0.0,0.0,0.0,0.0,0.0,0.0,0.0,0.0,0.0,0.0,0.0,0.0,0.0,0.0,0.0,0.0,-4.5594,-4.5594,-4.5594,-4.5594,-4.5594,-4.5594,-4.5594,-4.5594,-4.5586,-4.5419,-4.5243,-4.5085,-4.5085,-4.4988,-4.4849,-4.4849,-4.4732,-4.4593,-4.4593,-4.4593,-4.4567,-4.4359,-4.4276,-4.4247,0.0,0.0,0.0,0.0,0.0,0.0,0.0,0.0,0.0,-1.0094,-1.0094,-1.0094,-1.0094,-1.0094,-1.0098,0.0,0.0,0.0,-1.0194,-1.0384,-1.1211,-1.2832,-1.4355,-1.5176,-1.5176,-1.5176,-1.5176,-1.5176,-1.5332,-1.6894,-1.9785,-2.1074,-2.2578,-2.4141,-2.3281,-2.1953,-2.0254,-1.8516,-1.7243,-1.6384,-1.6384,-1.6386,-1.637,-1.6314,-1.5875,-1.5289,-1.5236,-1.5212,-1.521,-1.5218,0.0,0.0,0.0,0.0,-1.55,-1.7045,-1.8715,-2.0562,-2.2836,-2.6851,-3.1596,-3.6546,-3.9585,-4.1412,-4.1546,-4.2258,-4.2874,-4.2874,0.0,0.0,0.0,0.0,0.0,0.0,0.0,0.0,0.0,0.0,0.0,0.0,0.0,0.0,0.0,0.0,0.0,0.0,0.0,0.0,0.0,0.0,-4.5594,-4.5594,-4.5594,-4.5594,-4.5594,-4.5594,-4.5594,-4.5594,-4.5594,-4.5594,-4.5594,-4.5594,-4.5594,-4.5594,-4.5594,-4.5438,-4.5191,-4.5191,-4.5011,-4.4769,-4.4769,-4.4769,-4.4757,-4.4714,-4.4701,-4.467,0.0,0.0,0.0,0.0,0.0,0.0,0.0,0.0,0.0,0.0,-1.0094,-1.0094,-1.0094,-1.0094,-1.0115,-1.0178,-1.0191,-1.0209,-1.0193,0.0,0.0,-1.2852,-1.3789,-1.4277,-1.4277,-1.4277,-1.4277,-1.4277,-1.5039,-1.7519,-2.1543,-2.1016,-2.1699,-2.332,-2.2441,-2.1094,-1.9355,-1.7617,-1.6365,-1.5569,-1.5569,-1.5536,-1.5468,-1.5464,-1.5384,-1.5307,-1.5281,-1.5299,-1.5292,-1.5285,-1.5286,0.0,0.0,0.0,0.0,-1.6369,-1.7853,-1.9411,-2.0504,-2.55,-3.1442,-3.5788,-3.8257,-3.9823,-4.0516,0.0,-4.1962,0.0,0.0,0.0,0.0,0.0,0.0,0.0,0.0,0.0,0.0,0.0,0.0,0.0,0.0,0.0,0.0,0.0,0.0,0.0,0.0,0.0,0.0,-4.5594,-4.5594,-4.5594,-4.5594,-4.5594,-4.5594,-4.5594,-4.5594,-4.5594,-4.5594,-4.5594,-4.5594,-4.5594,-4.5594,-4.5594,-4.5594,-4.5577,-4.5522,-4.5522,-4.5504,-4.5476,-4.5476,-4.5476,-4.5429,-4.514,-4.5041,-4.4988,0.0,0.0,0.0,0.0,0.0,0.0,0.0,0.0,0.0,0.0,0.0,-1.0094,-1.0094,-1.0124,-1.0169,-1.0209,-1.0206,-1.0212,-1.0246,-1.1071,-1.1738,-1.2148,-1.2988,-1.3437,-1.3437,-1.3437,-1.3652,-1.4102,-1.4023,-1.6465,-2.1152,-2.0781,-2.2285,-2.5254,-2.3437,-2.1934,-2.0586,-1.7852,-1.6484,-1.6091,-1.5602,-1.6264,-1.7372,-1.5914,-1.6241,-1.7295,-1.5833,-1.5296,-1.5293,-1.5294,-1.5596,-1.5893,-1.54,0.0,0.0,0.0,-1.6968,-1.9084,-2.2812,-2.6697,-3.0698,-3.4962,-3.6949,-3.818,-3.9515,-4.0123,0.0,0.0,0.0,0.0,0.0,0.0,0.0,0.0,0.0,0.0,0.0,0.0,0.0,0.0,0.0,0.0,0.0,0.0,0.0,0.0,0.0,0.0,-4.5594,-4.5594,-4.5594,-4.5594,-4.5594,-4.5594,-4.5594,-4.5594,-4.5594,-4.5594,-4.5594,-4.5594,-4.5594,-4.5594,-4.5594,-4.5594,-4.5594,-4.5594,-4.5594,-4.5594,-4.5594,-4.5594,-4.5594,-4.5594,-4.5577,-4.5429,-4.539,-4.5352,0.0,0.0,0.0,0.0,0.0,0.0,0.0,0.0,0.0,0.0,0.0,-1.0094,-1.0094,0.0,0.0,0.0,-1.019,-1.023,-1.0293,-1.0918,-1.1367,-1.1582,-1.2227,-1.2578,-1.2578,-1.2578,-1.2852,-1.3457,-1.3086,-1.5547,-2.0605,-2.082,-2.3105,-2.6914,-2.4785,-2.3105,-2.1719,-1.8887,-1.7559,-1.7324,-1.6894,-1.7891,-1.9453,-1.7945,-1.8547,-1.9894,-1.7518,-1.6652,-1.6572,-1.6114,-1.6224,-1.6443,0.0,0.0,0.0,0.0,0.0,-1.8273,-2.3793,-2.637,-2.853,-3.2814,-3.4808,-3.6199,0.0,0.0,0.0,0.0,0.0,0.0,0.0,0.0,0.0,0.0,0.0,0.0,0.0,0.0,0.0,0.0,0.0,0.0,0.0,0.0,0.0,0.0,0.0,0.0,-4.5267,-4.5479,-4.5594,-4.5594,-4.5594,-4.5594,-4.5594,-4.5594,-4.5594,-4.5594,-4.5594,-4.5594,-4.5594,-4.5594,-4.5594,-4.5594,-4.5594,-4.5594,-4.5594,-4.5594,-4.5594,-4.5594,-4.5594,-4.5594,-4.5594,-4.5594,-4.5594,-4.5594,0.0,0.0,0.0,0.0,0.0,0.0,0.0,0.0,0.0,0.0,0.0,-1.0094,-1.0094,-1.0164,-1.0204,-1.019,-1.0197,-1.023,-1.0293,-1.0332,0.0,0.0,-1.1641,0.0,-1.168,-1.168,-1.1699,-1.1738,-1.252,-1.5547,-2.0625,-2.1445,-2.3672,-2.6953,-2.5996,-2.4199,-2.1836,-2.082,-1.9922,-1.9238,-2.0019,-2.041,-2.0684,-2.2148,-2.2812,-2.2754,-2.0976,-2.0312,0.0,0.0,0.0,0.0,0.0,-1.5997,-1.536,0.0,0.0,0.0,-2.06,-2.2427,-2.4144,-2.8376,-3.1275,-3.3545,0.0,0.0,0.0,0.0,0.0,0.0,0.0,0.0,0.0,0.0,0.0,0.0,0.0,0.0,0.0,0.0,0.0,0.0,0.0,0.0,0.0,0.0,0.0,0.0,-4.4374,-4.5152,-4.5594,-4.5594,-4.5594,-4.5594,-4.5594,-4.5594,-4.5594,-4.5594,-4.5594,-4.5594,-4.5594,-4.5594,-4.5594,-4.5594,-4.5594,-4.5594,-4.5594,-4.5594,-4.5594,-4.5594,-4.5594,-4.5594,-4.5594,-4.5594,-4.5594,-4.5594,0.0,0.0,0.0,0.0,0.0,0.0,0.0,0.0,0.0,0.0,0.0,0.0,0.0,-1.0164,-1.0195,-1.0207,-1.0195,-1.0217,-1.0231,-1.0231,0.0,0.0,-1.0762,-1.0762,-1.0762,-1.0762,-1.1035,-1.1602,-1.1914,-1.4121,-1.8125,-1.9551,-2.1484,-2.3769,-2.4512,-2.4355,-2.3379,-2.1426,-2.0742,-2.0996,-2.1309,-2.2402,-2.3828,-2.3301,-2.416,-2.5332,-2.3086,0.0,0.0,0.0,0.0,0.0,-1.779,-1.7225,-1.6749,-1.5627,-1.6043,-1.7318,-1.9397,-2.1348,-2.3567,-2.6717,-2.8986,-3.1044,-3.3314,0.0,0.0,0.0,0.0,0.0,0.0,0.0,0.0,0.0,0.0,0.0,0.0,0.0,0.0,0.0,0.0,0.0,0.0,0.0,0.0,0.0,0.0,0.0,-4.3528,-4.3835,-4.3989,-4.3989,-4.3989,-4.4239,-4.4759,-4.5325,-4.5594,-4.5594,-4.5594,-4.5594,-4.5594,-4.5594,-4.5594,-4.5594,-4.5594,-4.5594,-4.5594,-4.5594,-4.5594,-4.5594,-4.5594,-4.5594,-4.5594,-4.5594,-4.5594,-4.5594,0.0,0.0,0.0,-1.0094,0.0,-1.0094,-1.0094,-1.0094,-1.0094,-1.0094,0.0,0.0,0.0,0.0,-1.0926,-1.0669,-1.0649,-1.0513,-1.0218,-1.0199,0.0,0.0,-1.0273,-1.0273,-1.0293,-1.0293,-1.0586,-1.1152,-1.1465,-1.3047,-1.5879,-1.7617,-1.9355,-2.1074,-2.2187,-2.332,-2.4297,-2.2598,-2.2207,-2.2793,-2.3379,-2.4629,-2.6133,-2.6152,-2.7051,-2.8047,0.0,0.0,0.0,0.0,0.0,0.0,-1.9349,-1.8007,-1.6827,-1.5662,-1.6311,-1.7527,-1.8099,-1.9863,-2.2172,0.0,0.0,-2.7841,0.0,0.0,0.0,0.0,0.0,0.0,0.0,0.0,0.0,0.0,0.0,0.0,0.0,0.0,0.0,0.0,0.0,0.0,0.0,0.0,0.0,0.0,0.0,0.0,-4.2662,-4.2931,-4.3104,-4.3104,-4.3104,-4.3355,-4.3893,-4.447,-4.4767,-4.4767,-4.4767,-4.4902,-4.5171,-4.5171,-4.5325,-4.5594,-4.5594,-4.5594,-4.5594,-4.5594,-4.5594,-4.5594,-4.5594,-4.5594,-4.5594,-4.5594,-4.5594,-4.5594,-1.0094,-1.0094,-1.0113,-1.0133,-1.0133,-1.0152,-1.0171,-1.0173,-1.0173,-1.0173,0.0,0.0,0.0,0.0,0.0,-1.1639,-1.1546,-1.1179,-1.029,-1.0213,-1.0206,-1.0206,-1.0207,-1.023,-1.0332,-1.0312,-1.0312,-1.0332,-1.1191,-1.2422,-1.4062,-1.5801,-1.7559,-1.9219,-1.9258,-2.1133,-2.4297,-2.4258,-2.4316,-2.457,-2.625,-2.6992,-2.748,-3.0879,-3.168,0.0,-3.0019,-2.9141,0.0,-2.6426,0.0,0.0,-2.1152,-1.8259,-1.5513,-1.5474,-1.6065,-1.6705,0.0,0.0,0.0,0.0,0.0,0.0,0.0,0.0,0.0,0.0,0.0,0.0,0.0,0.0,0.0,0.0,0.0,0.0,0.0,0.0,0.0,0.0,0.0,0.0,0.0,0.0,0.0,0.0,0.0,-4.175,-4.175,-4.2566,-4.3028,-4.3028,-4.3047,-4.3066,-4.3066,-4.3085,-4.3104,-4.3104,-4.3104,-4.3508,-4.4259,-4.4259,-4.4739,-4.5556,-4.5556,-4.5575,-4.5594,-4.5594,-4.5594,-4.5594,-4.5594,-4.5594,-4.5594,-4.5594,-4.5594,-4.5594,-1.0094,-1.0094,-1.0308,-1.0925,-1.1041,-1.1254,-1.187,-1.1988,-1.1988,0.0,0.0,0.0,-1.2334,-1.307,-1.3484,-1.3267,-1.2698,-1.2001,-1.1139,-1.0529,-1.0199,-1.0205,-1.0206,-1.051,-1.1148,-1.0543,-1.0565,-1.123,-1.1484,-1.1836,-1.2324,-1.4023,-1.5742,-1.7441,-1.8086,-1.959,-2.1602,-2.0977,-2.25,-2.5332,-2.5176,-2.7012,-2.9922,0.0,0.0,0.0,0.0,-3.1816,-3.0957,0.0,-2.7871,-2.5293,0.0,-1.9511,-1.8104,-1.7479,-1.8292,-1.9153,-1.7885,0.0,0.0,0.0,0.0,0.0,0.0,0.0,0.0,0.0,0.0,0.0,0.0,0.0,0.0,0.0,0.0,0.0,0.0,0.0,0.0,0.0,0.0,0.0,0.0,0.0,0.0,0.0,-4.0854,-4.0854,-4.0854,-4.1093,-4.1227,-4.1227,-4.1835,-4.2162,-4.2162,-4.2777,-4.3104,-4.3104,-4.3104,-4.322,-4.3431,-4.3431,-4.3874,-4.4662,-4.4662,-4.5017,-4.5594,-4.5594,-4.5594,-4.5594,-4.5594,-4.5594,-4.5594,-4.5594,-4.5594,-4.5594,-1.0635,-1.0944,-1.1331,-1.1851,-1.2214,-1.2615,-1.3118,-1.3195,-1.3329,0.0,0.0,0.0,-1.4701,-1.5522,-1.5596,-1.4536,-1.4003,-1.3073,-1.1501,-1.0968,-1.0547,-1.0216,-1.0523,-1.0948,-1.1482,-1.1352,-1.1378,-1.1559,-1.1582,-1.1406,-1.1094,-1.2422,-1.3594,-1.4609,-1.5488,-1.6816,-1.8379,-1.75,-2.0039,-2.4727,-2.6035,0.0,0.0,-3.1934,-3.2871,0.0,0.0,0.0,-3.2617,-3.2109,-2.9746,0.0,0.0,-2.1113,-1.9746,-1.9238,-2.0038,-2.0775,-1.9409,-2.0378,-2.183,0.0,0.0,0.0,0.0,0.0,0.0,0.0,0.0,0.0,0.0,0.0,0.0,0.0,0.0,0.0,0.0,0.0,0.0,0.0,0.0,0.0,0.0,0.0,0.0,0.0,-4.0304,-4.0496,-4.0496,-4.0496,-4.0496,-4.0496,-4.0989,-4.1258,-4.1258,-4.1758,-4.2008,-4.2008,-4.2008,-4.22,-4.2566,-4.2566,-4.3008,-4.3797,-4.3797,-4.4278,-4.5056,-4.5056,-4.5267,-4.5594,-4.5594,-4.5594,-4.5594,-4.5594,-4.5594,-4.5594,0.0,-1.2161,-1.276,-1.295,-1.3577,-1.411,-1.4283,-1.4321,-1.4632,0.0,-1.5712,-1.6365,-1.7949,-1.8722,-1.8238,-1.5962,-1.5519,-1.4346,-1.1983,-1.1562,-1.1121,-1.0491,-1.1063,-1.1523,-1.1776,-1.2445,-1.2416,-1.1636,-1.1617,-1.1133,-1.0312,-1.1094,-1.1504,-1.1641,-1.252,-1.3789,-1.5234,-1.4941,-1.7969,-2.3301,-2.7285,-2.9277,0.0,0.0,-3.4199,-3.3789,-3.457,-3.4355,-3.3652,-3.3476,-3.0801,0.0,0.0,-2.3203,-2.1387,-2.0996,-2.1562,-2.2109,-2.1152,-2.1582,-2.2637,-2.3926,0.0,0.0,-2.5576,-2.5141,0.0,0.0,0.0,0.0,0.0,0.0,0.0,0.0,0.0,0.0,0.0,0.0,0.0,0.0,0.0,0.0,0.0,0.0,-3.9169,-3.9169,-3.9823,-4.0227,-4.0227,-4.0304,-4.0362,-4.0362,-4.0458,-4.0496,-4.0496,-4.0496,-4.0496,-4.0496,-4.0496,-4.0912,-4.1662,-4.1662,-4.2124,-4.297,-4.297,-4.3412,-4.4162,-4.4259,-4.4797,-4.5594,-4.5594,-4.5594,-4.5594,-4.5594,-4.5594,-4.5594,-1.2449,-1.2587,-1.3123,-1.4484,-1.4846,-1.5404,-1.6753,-1.6965,-1.7276,-1.8145,-1.8869,-1.9673,-2.0658,-2.0331,-1.985,-1.9346,-1.7426,-1.5734,-1.4538,-1.2541,-1.1644,-1.2196,-1.1693,-1.2067,-1.3471,-1.2987,-1.2657,-1.2557,-1.1854,-1.1064,-1.023,-1.0449,-1.0937,-1.1641,-1.252,-1.3437,-1.457,-1.793,-2.043,-2.2266,-2.3769,0.0,-3.1836,-3.3144,-3.4414,-3.5508,-3.5684,-3.5644,-3.5273,-3.3867,-3.2402,-3.0644,0.0,0.0,-2.6269,-2.3496,-2.3769,-2.4629,-2.3105,-2.3809,-2.4707,-2.3613,0.0,0.0,0.0,-2.3556,0.0,0.0,0.0,0.0,0.0,0.0,0.0,0.0,0.0,0.0,0.0,0.0,0.0,0.0,0.0,0.0,0.0,0.0,-3.8257,-3.8257,-3.8392,-3.8488,-3.8488,-3.915,-3.9534,-3.9534,-4.0169,-4.0496,-4.0496,-4.0496,-4.0496,-4.0496,-4.0496,-4.0593,-4.0746,-4.0746,-4.1219,-4.2038,-4.2038,-4.2547,-4.3374,-4.4028,-4.4797,-4.5594,-4.5594,-4.5594,-4.5594,-4.5594,-4.5594,-4.5594,-1.331,-1.3656,-1.4349,-1.5638,-1.6176,-1.7023,-1.8734,-1.9004,-1.9446,-2.072,-2.1643,-2.2177,-2.2158,-2.2177,-2.1677,-2.0404,-1.9135,-1.7484,-1.5346,-1.4,-1.312,-1.2721,-1.2676,-1.3056,-1.3937,-1.3971,-1.3793,-1.3403,-1.2582,-1.1754,-1.0897,-1.0937,-1.1621,-1.2871,-1.3301,-1.4687,-1.6816,-1.8555,-2.0566,-2.2812,-2.5781,0.0,-3.2383,-3.4062,-3.5234,-3.5996,-3.5996,-3.5996,-3.5664,-3.3516,-3.2539,0.0,0.0,-2.8594,-2.8535,0.0,-2.6348,-2.6621,-2.4902,-2.5059,-2.5586,-2.5156,0.0,0.0,0.0,0.0,0.0,0.0,0.0,0.0,0.0,0.0,0.0,0.0,0.0,0.0,0.0,0.0,0.0,0.0,0.0,0.0,0.0,0.0,-3.7103,-3.793,-3.8007,-3.8007,-3.8007,-3.8411,-3.8642,-3.8642,-3.9046,-3.9457,-3.99,-3.99,-4.0092,-4.0496,-4.0496,-4.0496,-4.0496,-4.0496,-4.0746,-4.1143,-4.1143,-4.1643,-4.2489,-4.2893,-4.3566,-4.4432,-4.5267,-4.5594,-4.5594,-4.5594,-4.5594,-4.5594,-1.4148,-1.4728,-1.5462,-1.6349,-1.718,-1.8238,-1.9808,-2.0192,-2.0908,-2.2586,-2.3836,-2.4317,-2.3605,-2.4009,-2.3644,-2.1908,-2.1,-1.9423,-1.6827,-1.5904,-1.4984,-1.3953,-1.3904,-1.4129,-1.4613,-1.5052,-1.484,-1.3979,-1.3225,-1.242,-1.158,-1.1582,-1.2402,-1.3887,-1.4375,-1.6269,-1.9043,-1.9004,0.0,-2.4336,0.0,-3.1113,-3.1758,-3.4473,-3.5508,-3.5547,-3.5879,-3.5996,-3.5664,-3.3437,0.0,-3.2344,-3.0449,-3.0078,0.0,0.0,0.0,0.0,0.0,0.0,0.0,0.0,0.0,-2.5781,0.0,0.0,0.0,-2.5884,0.0,0.0,0.0,0.0,0.0,0.0,0.0,0.0,0.0,0.0,0.0,0.0,0.0,0.0,0.0,0.0,-3.5212,-3.6892,-3.6873,-3.693,-3.7257,-3.7565,-3.7757,-3.7757,-3.7911,-3.8334,-3.9034,-3.9227,-3.9631,-4.0265,-4.0439,-4.0496,-4.0496,-4.0496,-4.0496,-4.0496,-4.0496,-4.0893,-4.1566,-4.1731,-4.222,-4.3028,-4.4701,-4.5344,-4.5364,-4.5537,-4.5594,-4.5594,-1.5058,-1.5135,-1.5462,-1.6349,-1.718,-1.8023,-1.8996,-1.9808,-2.0908,-2.2586,-2.4851,-2.6274,-2.6178,-2.5577,-2.5673,-2.6928,-2.3562,-2.1523,-2.1912,-1.8427,-1.693,-1.8222,-1.5462,-1.4959,-1.7218,-1.5922,-1.4772,-1.3903,-1.3112,-1.2315,-1.1503,-1.1578,-1.2109,-1.3125,-1.5391,-1.7051,-1.834,-2.1289,-2.4082,0.0,-2.9726,-3.0039,0.0,-3.2422,-3.3691,-3.3906,-3.5449,-3.5996,-3.584,0.0,-3.4414,-3.3984,0.0,-3.1777,-3.2344,0.0,0.0,0.0,0.0,0.0,0.0,0.0,-2.8594,0.0,0.0,0.0,-2.5156,-2.3807,0.0,0.0,0.0,0.0,0.0,0.0,0.0,0.0,0.0,0.0,0.0,0.0,0.0,0.0,0.0,0.0,0.0,-3.3353,-3.2814,-3.3064,-3.4552,-3.6045,-3.6846,-3.6846,-3.7603,-3.8046,-3.8142,-3.8911,-3.9361,-3.9438,-4.0169,-4.0496,-4.0496,-4.0496,-4.0496,-4.0496,-4.0496,-4.0554,-4.0708,-4.1489,-4.1865,-4.2115,-4.3797,-4.4451,-4.4528,-4.5325,-4.5594,-4.5594,-1.5192,-1.5192,-1.5462,-1.6349,-1.718,-1.8315,-2.0173,-2.287,-2.4774,-2.4986,-2.637,-2.7525,-2.8005,-2.7313,-2.7101,-2.7838,0.0,-2.4524,0.0,0.0,-2.0046,-1.9773,-1.7888,-1.7122,-1.7699,-1.6549,-1.5547,-1.4717,-1.3873,-1.328,-1.2952,-1.3011,-1.4291,-1.6597,-1.7714,-2.0078,-2.3242,0.0,-2.5078,0.0,0.0,0.0,0.0,-3.3223,-3.4902,-3.5,-3.5742,-3.5996,-3.5781,0.0,-3.3945,0.0,0.0,0.0,0.0,0.0,0.0,0.0,0.0,0.0,0.0,0.0,0.0,0.0,0.0,0.0,-2.5644,0.0,0.0,0.0,0.0,0.0,0.0,0.0,0.0,0.0,0.0,0.0,0.0,0.0,0.0,0.0,0.0,0.0,0.0,0.0,0.0,-3.1679,-3.3353,-3.4584,-3.5488,-3.5981,-3.6365,-3.6769,-3.7238,-3.7603,-3.8315,-3.9354,-3.9696,-4.0152,-4.066,-4.066,-4.066,-4.066,-4.066,-4.066,-4.0693,-4.1023,-4.115,-4.1279,-4.2414,-4.3162,-4.3643,-4.4008,-4.4432,-4.4855,-1.5558,-1.5365,-1.5462,-1.6349,-1.718,-1.8565,-2.1119,-2.4543,-2.6722,-2.6294,-2.7217,-2.8299,-2.9333,-2.8948,0.0,0.0,-2.8986,-2.7525,0.0,0.0,-2.2947,-2.1712,-2.0177,0.0,-1.8757,-1.7483,-1.643,-1.562,-1.4545,-1.4118,-1.4332,-1.4158,-1.5658,-1.8512,-1.9292,-2.1972,-2.5917,0.0,-2.6602,-2.8496,-2.9355,-2.998,-3.0762,-3.4043,-3.5586,-3.5996,-3.5996,-3.5996,-3.5762,-3.4258,-3.3769,0.0,-3.3476,0.0,0.0,0.0,0.0,0.0,-2.9844,0.0,0.0,0.0,0.0,0.0,0.0,0.0,0.0,0.0,0.0,0.0,0.0,0.0,0.0,0.0,0.0,0.0,0.0,0.0,0.0,0.0,0.0,0.0,0.0,0.0,0.0,0.0,0.0,0.0,-3.2102,-3.3256,-3.4237,-3.5122,-3.5385,-3.5788,-3.6365,-3.6596,-3.7365,-3.8657,-3.893,-3.9524,-4.0429,-4.0454,-4.0583,-4.0797,-4.0797,-4.0797,-4.0793,-4.0742,-4.0721,-4.0787,-4.1326,-4.1899,-4.2503,-4.2929,-4.347,-4.3989,-1.6465,-1.5772,-1.5462,-1.6349,-1.718,-1.8565,-2.1119,-2.3047,-2.449,-2.5231,0.0,0.0,0.0,0.0,0.0,0.0,0.0,-3.0269,-3.0154,0.0,-2.5192,-2.5135,-2.2,-2.0615,0.0,-1.893,-1.7279,-1.6452,-1.4809,-1.4407,-1.5139,-1.4369,-1.4955,-1.6785,-1.9332,-2.1493,-2.3448,-2.6777,-2.9668,-3.2109,-3.291,-3.4258,-3.5586,0.0,-3.4531,-3.5996,-3.5996,0.0,0.0,-3.4961,-3.4668,0.0,0.0,0.0,0.0,0.0,0.0,0.0,0.0,0.0,0.0,-2.9121,0.0,0.0,0.0,0.0,-2.7754,0.0,0.0,0.0,0.0,0.0,-2.4082,-2.3242,-2.3144,0.0,0.0,0.0,0.0,0.0,0.0,0.0,0.0,0.0,0.0,0.0,0.0,0.0,-3.0308,-3.2045,-3.3333,-3.4205,-3.5064,-3.5519,-3.5538,-3.6308,-3.6738,-3.6803,-3.7699,-3.8593,-3.9448,-3.9581,-4.0054,-4.0797,-4.0797,-4.0797,-4.0797,-4.0793,-4.0793,-4.0793,-4.0828,-4.0815,-4.0964,-4.2522,-4.3124,-4.3258,-1.8145,-1.7914,-1.7622,-1.7334,-1.801,-1.9607,-2.274,-2.5144,-2.7318,0.0,0.0,0.0,0.0,-3.4096,-3.4346,0.0,0.0,-3.3846,-3.216,-3.0462,0.0,0.0,0.0,-2.4327,0.0,0.0,-2.0119,-1.815,-1.7581,-1.7151,-1.6842,-1.6024,-1.6894,-1.9153,-2.0048,-2.233,0.0,0.0,0.0,0.0,0.0,-3.4335,-3.5865,0.0,0.0,-3.5996,-3.5996,-3.5996,0.0,-3.5664,-3.5176,-3.4746,-3.5039,-3.4531,-3.3906,-3.418,-3.4062,0.0,0.0,0.0,-3.3574,-3.0723,0.0,0.0,0.0,0.0,0.0,0.0,0.0,0.0,0.0,0.0,-2.4297,-2.4004,-2.3496,-2.2734,0.0,0.0,0.0,0.0,0.0,0.0,0.0,0.0,0.0,0.0,0.0,0.0,0.0,-3.0642,-3.216,-3.4148,-3.4487,-3.495,-3.5554,-3.5844,-3.6328,-3.7026,-3.7345,-3.7971,-3.8889,-3.9507,-3.9942,-4.0235,-4.0803,-4.1056,-4.1054,-4.0964,-4.0877,-4.0793,-4.0752,-4.0666,-4.0639,-4.1292,-4.1827,-4.245,-1.9835,-1.9892,-1.9623,-1.8773,-1.9835,-2.1647,-2.4144,0.0,0.0,0.0,-3.2218,0.0,-3.6404,0.0,-3.625,0.0,-3.7161,-3.6084,-3.3526,-3.3179,0.0,-3.0481,-2.9115,0.0,0.0,0.0,0.0,-1.9881,-1.9296,-1.8703,-1.8145,-1.7307,-1.7995,-1.9927,-2.0553,-2.2703,-2.6018,0.0,-2.9968,0.0,0.0,-3.4854,0.0,0.0,-3.5996,-3.5996,0.0,-3.5996,-3.5996,-3.5996,-3.5625,-3.5254,-3.582,-3.5234,-3.4434,-3.5,-3.4766,-3.4258,-3.3945,-3.4277,0.0,-3.1914,-3.1367,0.0,-2.8066,0.0,0.0,0.0,0.0,0.0,0.0,0.0,-2.4863,-2.4863,-2.3887,-2.2734,0.0,0.0,0.0,0.0,0.0,0.0,0.0,0.0,-2.3395,-2.462,0.0,0.0,0.0,0.0,-3.1052,-3.3313,-3.3981,-3.4724,-3.5639,-3.5639,-3.5986,-3.6677,-3.6715,-3.7226,-3.8121,-3.9023,-3.9609,-3.9941,-4.082,-4.1191,-4.1191,-4.1104,-4.1023,-4.0922,-4.0832,-4.0712,-4.061,-4.0617,-4.1133,-4.2,-2.1427,-2.1639,0.0,0.0,-2.2528,0.0,0.0,0.0,-3.0712,0.0,-3.3314,-3.4968,-3.6692,-3.6885,-3.7219,-3.8046,-3.8123,0.0,-3.4609,-3.5199,0.0,0.0,-3.1442,-3.0698,-2.8261,0.0,0.0,0.0,-2.0027,-1.9165,-1.9107,-1.818,-1.8238,-1.9134,-2.083,0.0,-2.4526,-2.8744,-3.1586,-3.3401,-3.5169,-3.5873,-3.588,-3.5953,-3.5996,-3.5996,-3.5996,-3.5996,-3.5996,-3.5996,-3.5996,-3.5996,-3.5996,-3.5996,-3.5996,-3.5996,-3.5996,-3.582,-3.498,-3.4766,-3.4375,-3.2734,0.0,0.0,0.0,0.0,-3.0527,0.0,0.0,0.0,0.0,0.0,0.0,-2.5703,-2.4336,-2.2676,0.0,0.0,0.0,0.0,0.0,0.0,0.0,0.0,-2.1952,-2.5174,-2.3184,0.0,0.0,0.0,-3.001,-3.1842,-3.3557,-3.4844,-3.5691,-3.5713,-3.5713,-3.572,-3.5843,-3.6336,-3.7177,-3.8103,-3.9004,-3.9883,-4.0762,-4.1152,-4.1191,-4.1191,-4.1191,-4.1171,-4.1052,-4.0917,-4.0773,-4.0577,-4.1035,-4.1881,-2.2547,-2.3466,-2.4269,0.0,-2.4062,-2.4817,0.0,0.0,0.0,0.0,-3.5423,-3.6949,-3.9258,-3.9515,-3.9611,-3.9842,-3.9861,0.0,0.0,0.0,0.0,-3.6084,-3.4449,-3.3244,-3.2609,-2.9646,0.0,-2.5293,0.0,-2.1489,-2.0831,-1.9346,-1.9135,-2.0004,-2.1055,-2.282,-2.5215,-2.8218,-3.12,-3.4038,-3.5154,-3.564,0.0,0.0,-3.5832,-3.5921,-3.5975,-3.5996,-3.5996,-3.5996,-3.5996,-3.5996,-3.5996,-3.5996,-3.5996,-3.5996,-3.5996,-3.5957,-3.5723,-3.5664,-3.541,-3.4336,-3.3574,-3.2754,0.0,0.0,0.0,0.0,0.0,0.0,0.0,0.0,0.0,-2.5918,-2.4805,-2.3945,0.0,0.0,0.0,0.0,0.0,0.0,0.0,-2.1729,-2.2543,-2.283,-2.3295,-2.4529,0.0,0.0,0.0,-3.1803,-3.2957,-3.4275,-3.5823,-3.5843,-3.5864,-3.5929,-3.5953,-3.6092,-3.6345,-3.7226,-3.8105,-3.8984,-3.9863,-4.0605,-4.1191,-4.1191,-4.1149,-4.1051,-4.1,-4.0917,-4.0773,-4.0577,-4.0701,-4.1196,-2.4281,0.0,0.0,-2.7538,0.0,0.0,-2.939,0.0,0.0,-3.5077,-3.6519,0.0,-3.9238,-4.0054,-4.0496,-4.0496,-4.0496,0.0,-3.8815,0.0,0.0,-3.7488,-3.6796,-3.5918,-3.4795,-3.2141,0.0,-2.7178,0.0,-2.274,-2.1466,-2.0173,-1.9827,-2.0346,-2.1543,-2.3081,-2.5024,-2.8679,-3.1781,-3.4289,-3.5187,0.0,0.0,-3.5667,-3.5985,-3.6338,-3.6057,-3.5974,-3.5996,-3.5996,-3.5996,-3.5996,-3.5996,-3.5996,-3.5996,-3.5996,-3.5996,-3.5996,-3.5996,-3.5996,-3.5879,-3.5391,-3.4902,-3.4219,-3.3008,-3.3066,-3.3125,0.0,0.0,0.0,0.0,0.0,0.0,-2.5488,-2.4414,0.0,0.0,0.0,0.0,0.0,0.0,0.0,0.0,-2.0934,-2.1812,-2.1367,-2.2487,-2.3784,0.0,0.0,0.0,-3.0817,-3.2459,-3.3955,-3.536,-3.575,-3.5952,-3.5996,-3.5996,-3.5996,-3.6035,-3.6894,-3.7773,-3.8652,-3.9512,-4.0391,-4.1191,-4.1191,-4.115,-4.108,-4.1023,-4.0955,-4.086,-4.0666,-4.0643,-4.0886,-2.6377,0.0,0.0,0.0,0.0,0.0,0.0,-3.3122,0.0,-3.5923,0.0,-3.8661,-3.8661,-3.9969,-4.0843,-4.0843,0.0,-4.0169,-3.8604,-3.9854,-3.9623,-3.7296,-3.8546,-3.8257,-3.6038,-3.3968,0.0,0.0,0.0,-2.3278,-2.1658,-2.0731,-2.0365,-2.0538,-2.21,0.0,0.0,-2.9717,-3.2737,-3.4449,-3.5375,-3.5811,-3.5924,-3.5993,-3.6476,-3.7063,-3.6433,-3.6173,-3.6132,-3.6035,-3.5996,-3.5996,-3.5996,-3.5996,-3.5996,-3.5996,-3.5996,-3.5996,-3.5996,-3.5996,-3.5996,-3.5996,-3.5996,-3.5605,-3.4082,-3.373,-3.373,-3.373,-3.2578,-3.2402,0.0,0.0,0.0,0.0,0.0,0.0,0.0,0.0,0.0,0.0,0.0,0.0,0.0,-2.0254,-2.0723,-2.0605,-2.1309,0.0,0.0,0.0,0.0,-2.9551,-3.1973,0.0,-3.4687,0.0,-3.5996,-3.5996,-3.5996,-3.5996,-3.6035,-3.6777,-3.7676,-3.8633,-3.9394,-4.0293,-4.1191,-4.1191,-4.1191,-4.1191,-4.1077,-4.1025,-4.0994,-4.0809,-4.074,-4.0848,0.0,0.0,0.0,0.0,0.0,-3.5462,-3.6719,-3.7026,-3.77,-3.94,-4.1123,-4.22,-4.22,-4.247,-4.2643,-4.2643,-4.2643,0.0,0.0,0.0,0.0,-3.99,-3.9496,-3.9092,-3.8642,-3.4872,-3.2295,0.0,-2.6376,-2.3586,-2.2547,-2.1004,-2.0654,-2.1331,-2.235,0.0,-2.8376,-3.0717,0.0,-3.5334,-3.6169,-3.6934,-3.759,-3.7655,-3.7767,-3.7899,-3.7895,-3.7456,-3.6812,-3.6209,-3.5996,-3.5996,-3.5996,-3.5996,-3.5996,-3.5922,-3.595,-3.5995,-3.5921,-3.5951,-3.5996,-3.5996,-3.5996,-3.5918,-3.5605,-3.5547,-3.5547,-3.5547,-3.5312,-3.4844,-3.4004,0.0,0.0,0.0,0.0,0.0,0.0,0.0,0.0,0.0,0.0,0.0,0.0,0.0,-2.1367,-2.0644,0.0,0.0,0.0,0.0,0.0,0.0,0.0,0.0,0.0,0.0,-3.5996,-3.5996,-3.5996,-3.5996,-3.6016,-3.6152,-3.7109,-3.8613,-3.8769,-3.9726,-4.1191,-4.1191,-4.1191,-4.1191,-4.1171,-4.1151,-4.1149,-4.099,-4.0944,-4.1039,0.0,0.0,0.0,0.0,0.0,0.0,0.0,-4.0719,0.0,-4.0573,-4.1227,-4.1739,-4.1739,-4.2566,-4.3104,-4.3104,-4.3104,-4.2912,-4.2508,-4.247,-4.2085,-4.12,-4.0796,0.0,-3.9323,-3.6392,-3.3833,-3.1698,-2.7915,-2.4952,-2.2778,-2.1504,-2.1135,-2.1581,-2.3312,-2.5967,0.0,0.0,0.0,-3.5615,-3.6865,-3.7623,-3.7995,-3.8047,-3.8325,-3.8679,-3.8315,-3.8242,-3.8183,-3.743,-3.7217,-3.7176,-3.6707,-3.6617,-3.6562,-3.6051,-3.5917,-3.5922,-3.5817,-3.5862,-3.5948,-3.5948,-3.5974,-3.5996,-3.5996,-3.5996,-3.5996,-3.5996,-3.5996,-3.5469,-3.3711,-3.1699,0.0,0.0,0.0,0.0,0.0,0.0,0.0,0.0,0.0,0.0,0.0,0.0,0.0,0.0,0.0,0.0,0.0,0.0,0.0,0.0,0.0,0.0,0.0,0.0,0.0,-3.5996,-3.5996,-3.5996,-3.5996,-3.5996,-3.6953,-3.8594,-3.8594,-3.959,-4.1191,-4.1191,-4.1191,-4.1191,-4.1191,-4.1191,-4.1172,-4.1052,-4.1031,-4.1134,0.0,-3.6327,0.0,0.0,-3.9296,0.0,-4.1873,-4.3508,-4.3855,-4.1843,-4.1574,-4.1574,-4.1574,-4.2797,-4.3624,-4.3624,-4.3624,-4.3547,-4.3374,-4.3355,-4.297,-4.2104,-4.2085,-4.1373,-3.9854,-3.8142,-3.5699,0.0,0.0,0.0,-2.3586,-2.235,-2.2062,-2.2697,-2.5058,0.0,0.0,0.0,-3.4391,-3.6423,-3.7738,-3.8373,-3.8527,-3.8527,-3.895,-3.9472,-3.8839,-3.9051,-3.9547,-3.8961,-3.8583,-3.8259,-3.7574,-3.7437,-3.7359,-3.6407,-3.6148,-3.6107,-3.5788,-3.5769,-3.5867,-3.5867,-3.5895,-3.5931,-3.5931,-3.5931,-3.5931,-3.5931,-3.5954,-3.5447,-3.3709,-3.2304,0.0,0.0,0.0,0.0,0.0,0.0,0.0,0.0,0.0,0.0,0.0,0.0,0.0,0.0,0.0,0.0,-2.1816,-2.3144,0.0,0.0,0.0,-3.2324,-3.3144,0.0,-3.5996,0.0,-3.5996,-3.5996,-3.5996,-3.5996,-3.6855,-3.832,-3.8516,-3.959,-4.1191,-4.1191,-4.1191,-4.1191,-4.1191,-4.1191,-4.1191,-4.108,-4.1105,-4.1171,0.0,0.0,0.0,0.0,0.0,0.0,0.0,-4.4393,-4.5383,-4.5152,-4.5114,-4.5114,-4.5114,-4.5267,-4.5364,-4.5364,-4.5364,-4.5037,-4.4239,-4.4182,-4.3835,-4.3008,-4.2989,-4.2547,-4.1577,-3.9912,-3.7777,0.0,0.0,0.0,0.0,-2.3793,-2.3908,-2.6197,-2.7967,0.0,0.0,-3.3975,-3.5956,-3.8957,-3.913,-3.9631,-4.0265,-4.0265,-4.0323,-4.0381,-4.03,-4.0327,-4.0385,-4.033,-3.9414,-3.8303,-3.8206,-3.8233,-3.8101,-3.7176,-3.6971,-3.6889,-3.5943,-3.571,-3.5717,-3.5717,-3.5723,-3.5729,-3.5729,-3.5729,-3.5729,-3.5729,-3.5819,-3.538,-3.362,-3.3236,-3.2383,0.0,0.0,0.0,0.0,0.0,0.0,0.0,0.0,0.0,0.0,0.0,0.0,0.0,0.0,0.0,-2.1816,-2.2051,-2.3672,-2.7012,0.0,-3.1445,-3.2305,-3.4766,0.0,-3.5996,-3.5996,-3.5996,-3.5996,-3.5996,-3.6523,-3.7461,-3.8262,-3.959,-4.1191,-4.1191,-4.1191,-4.1191,-4.1191,-4.1191,-4.1191,-4.1191,-4.1191,-4.1191,0.0,0.0,0.0,0.0,0.0,0.0,0.0,-4.5171,-4.5594,-4.5594,-4.5594,-4.5594,-4.5594,-4.5594,-4.5594,-4.5594,-4.5594,-4.546,-4.5094,-4.5075,-4.4701,-4.3855,-4.3816,-4.3431,-4.2604,-4.0893,-3.9027,0.0,0.0,0.0,0.0,-2.6568,-2.6948,-2.8942,0.0,-3.2718,-3.5045,-3.6045,-3.7565,-3.9342,-3.9823,-4.0208,-4.0496,-4.0496,-4.0496,-4.0496,-4.0496,-4.0496,-4.0496,-4.0496,-4.0159,-3.9645,-3.9136,-3.903,-3.8923,-3.7946,-3.7364,-3.6914,-3.6433,-3.5974,-3.5648,-3.5648,-3.5659,-3.5707,-3.5707,-3.5707,-3.5707,-3.5707,-3.5365,-3.4852,-3.4197,-3.2812,-3.1634,0.0,0.0,0.0,0.0,0.0,0.0,0.0,0.0,0.0,0.0,0.0,0.0,0.0,0.0,-1.873,-2.0996,-2.1621,0.0,-2.6133,0.0,-3.1328,-3.2187,-3.4726,-3.5996,-3.5996,-3.5996,-3.5996,-3.5996,-3.5996,-3.6758,-3.8125,-3.9004,-4.0078,-4.1191,-4.1191,-4.1191,-4.1191,-4.1191,-4.1191,-4.1191,-4.1191,-4.1191,-4.1191,-4.3368,0.0,-4.2266,0.0,-4.3701,-4.3528,-4.5325,-4.5594,-4.5594,-4.5594,-4.5594,-4.5594,-4.5594,-4.5594,-4.5594,-4.5594,-4.5594,-4.5594,-4.5594,-4.5594,-4.5325,-4.4701,-4.4682,0.0,-4.347,-4.2239,-4.0669,-3.8738,-3.5815,0.0,0.0,-3.0146,-3.0525,0.0,-3.3391,-3.4988,-3.6699,-3.7873,-3.8873,-3.9708,-4.0265,-4.0496,-4.0496,-4.0496,-4.0496,-4.0496,-4.0496,-4.0496,-4.0496,-4.0496,-4.0566,-4.0527,-3.9915,-3.9816,-3.9733,-3.8764,-3.8078,-3.7506,-3.6922,-3.6343,-3.5875,-3.5623,-3.5601,-3.5629,-3.5629,-3.5629,-3.5629,-3.5629,-3.5002,-3.4464,-3.4495,-3.2613,-3.1217,-3.1675,0.0,0.0,0.0,0.0,0.0,0.0,0.0,-2.5176,0.0,0.0,0.0,0.0,0.0,-1.9141,-2.1211,0.0,0.0,0.0,0.0,0.0,0.0,-3.4726,-3.5996,-3.5996,-3.5996,-3.5996,-3.6016,-3.6269,-3.7187,-3.8652,-3.9512,-4.0391,-4.1191,-4.1191,-4.1191,-4.1191,-4.1191,-4.1191,-4.1191,-4.1191,-4.1191,-4.1191,-4.4124,-4.4259,-4.4528,-4.5441,-4.5575,-4.5556,-4.5594,-4.5594,-4.5594,-4.5594,-4.5594,-4.5594,-4.5594,-4.5594,-4.5594,-4.5594,-4.5594,-4.5594,-4.5594,-4.5594,-4.5594,0.0,0.0,-4.519,-4.4297,-4.4259,-4.3008,-4.0477,0.0,0.0,-3.5404,-3.4526,-3.4584,-3.5462,-3.6288,-3.7623,-3.9265,-3.9284,-3.9746,-4.0496,-4.0496,-4.0496,-4.0496,-4.0496,-4.0496,-4.0496,-4.0496,-4.0496,-4.0496,-4.0496,-4.0496,-4.0496,-4.0496,-4.0589,-4.0523,-3.9635,-3.9375,-3.9005,-3.7348,-3.6793,-3.6507,-3.5699,-3.5507,-3.5507,-3.5507,-3.5507,-3.5507,-3.5507,-3.4849,-3.4299,-3.4299,-3.2979,-3.1629,-3.0845,0.0,0.0,0.0,0.0,0.0,0.0,0.0,-2.4746,-2.5605,0.0,0.0,0.0,0.0,0.0,0.0,0.0,0.0,-2.6934,-3.0371,0.0,-3.2207,-3.4726,-3.5996,-3.5996,-3.5996,-3.5996,-3.6035,-3.6894,-3.7773,-3.8652,-3.9512,-4.0391,-4.1191,-4.1191,-4.1191,-4.1191,-4.1191,-4.1191,-4.1191,-4.1191,-4.1191,-4.1191,-4.5152,-4.519,-4.5267,-4.5556,-4.5594,-4.5594,-4.5594,-4.5594,-4.5594,-4.5594,-4.5594,-4.5594,-4.5594,-4.5594,-4.5594,0.0,-4.5594,-4.5594,0.0,-4.5594,-4.5594,-4.5594,-4.5594,-4.5479,-4.519,-4.4605,-4.3893,-4.3085,0.0,0.0,0.0,-3.6911,-3.7257,-3.8104,-3.8354,-3.9084,-4.0112,-4.0112,-4.0265,-4.0496,-4.0496,-4.0496,-4.0496,-4.0496,-4.0496,-4.0496,-4.0496,-4.0496,-4.0496,-4.0496,-4.0496,-4.0496,-4.0496,-4.0534,-4.0509,-4.0232,-3.9757,-3.9224,-3.8677,-3.807,-3.7373,-3.6519,-3.6327,-3.6173,-3.5635,-3.55,-3.55,-3.55,-3.4353,-3.3365,-3.3412,-3.2055,-3.0881,-3.0667,-3.0175,0.0,0.0,0.0,0.0,0.0,0.0,-2.5391,0.0,-2.4961,0.0,0.0,0.0,0.0,0.0,0.0,0.0,0.0,-3.0078,0.0,-3.2207,-3.4726,-3.5996,-3.5996,-3.5996,-3.5996,-3.6035,-3.6894,-3.7773,-3.8652,-3.9512,-4.0391,-4.1191,-4.1191,-4.1191,-4.1191,-4.1191,-4.1191,-4.1191,-4.1191,-4.1191,-4.1191,-4.5594,-4.5594,-4.5594,-4.5594,-4.5594,-4.5594,-4.5594,-4.5594,-4.5594,-4.5594,-4.5594,-4.5594,-4.5594,-4.5594,0.0,-4.5594,-4.5594,-4.5594,-4.5594,-4.5594,-4.5594,-4.5594,-4.5594,-4.5594,-4.5594,0.0,0.0,-4.4297,-4.2393,-4.0931,-3.9912,-3.9912,-4.02,-4.0719,-4.0719,-4.1008,-4.1477,-4.1477,-4.1477,-4.1477,-4.1477,-4.1477,-4.1477,-4.1477,-4.1258,-4.0989,-4.0989,-4.0785,-4.0496,-4.0496,-4.0496,-4.0496,-4.0496,-4.0496,-4.0496,-4.0496,-4.015,-3.9688,-3.9381,-3.8892,-3.82,-3.7,-3.6692,-3.6481,-3.5673,-3.55,-3.55,-3.55,-3.4372,-3.3307,-3.3029,-3.1853,-3.0873,-3.0598,-2.9862,-2.9054,-2.8279,0.0,0.0,0.0,0.0,0.0,0.0,-2.6484,0.0,0.0,0.0,0.0,0.0,0.0,0.0,-2.7617,-3.0898,0.0,-3.3144,-3.5039,-3.5996,-3.5996,-3.5996,-3.5996,-3.6035,-3.7246,-3.8086,-3.8672,-3.9863,-4.0703,-4.1191,-4.1191,-4.1191,-4.1191,-4.1191,-4.1191,-4.1191,-4.1191,-4.1191,-4.1191,-4.5568,-4.5577,0.0,0.0,-4.5594,0.0,-4.5594,-4.5594,-4.5594,-4.5594,-4.5594,-4.5594,-4.5594,-4.5594,-4.5594,-4.5594,0.0,0.0,0.0,-4.5594,-4.5594,-4.5594,-4.5594,-4.5594,-4.5594,-4.5594,-4.521,-4.4393,-4.3643,-4.3239,-4.3181,-4.3181,-4.3143,-4.3104,-4.3104,-4.3104,-4.3104,-4.3104,-4.3104,-4.3104,-4.3104,-4.3104,-4.3104,-4.3104,-4.2604,-4.1885,-4.1885,-4.1373,-4.0689,-4.0689,-4.065,-4.0593,-4.0593,-4.0554,-4.0496,-4.0496,-4.0496,-4.0342,-3.9592,-3.9381,-3.8969,-3.7296,-3.6788,-3.6481,-3.5673,-3.55,-3.55,-3.55,-3.4814,-3.3936,-3.3064,-3.2237,-3.1419,-3.0544,-2.9677,-2.8842,-2.8112,0.0,0.0,0.0,0.0,0.0,0.0,-2.7871,-2.8359,0.0,0.0,0.0,0.0,0.0,-2.8398,-3.082,-3.2578,-3.3887,-3.4687,-3.5566,-3.5996,-3.5996,-3.5996,-3.6035,-3.6152,-3.7832,-3.8633,-3.8789,-4.0469,-4.1191,-4.1191,-4.1191,-4.1191,-4.1191,-4.1191,-4.1191,-4.1191,-4.1191,-4.1191,-4.1191,0.0,0.0,-4.5594,-4.5594,-4.5594,-4.5594,-4.5594,-4.5594,-4.5594,-4.5594,-4.5594,-4.5594,-4.5594,-4.5594,-4.5594,-4.5594,-4.5594,-4.5594,-4.5594,-4.5594,-4.5594,-4.5594,-4.5594,-4.5594,-4.5594,-4.5594,-4.5498,-4.5287,-4.5094,-4.4662,-4.4028,-4.4028,-4.3682,-4.3104,-4.3104,-4.3104,-4.3104,-4.3104,-4.3104,-4.3104,-4.3104,-4.3104,-4.3104,-4.3104,-4.297,-4.2797,-4.2797,-4.2662,-4.247,-4.247,-4.2047,-4.1489,-4.1489,-4.1046,-4.0496,-4.0496,-4.0496,-4.0458,-4.0265,-4.0227,-3.9977,-3.8931,-3.768,-3.6481,-3.5673,-3.55,-3.55,-3.55,-3.4814,-3.3936,-3.3064,-3.2237,-3.1191,-2.9671,-2.8737,-2.7928,-2.7144,-2.6849,0.0,0.0,-2.7289,-2.784,-2.7909,-2.8693,-2.8956,0.0,0.0,0.0,0.0,-2.9726,-3.0254,-3.0879,-3.3164,-3.4492,-3.4707,-3.5566,-3.5996,-3.5996,-3.5996,-3.6348,-3.7031,-3.8105,-3.8965,-3.9648,-4.0723,-4.1191,-4.1191,-4.1191,-4.1191,-4.1191,-4.1191,-4.1191,-4.1191,-4.1191,-4.1191,-4.1191,-4.5074,-4.5243,-4.5419,-4.5577,-4.5594,-4.5594,-4.5594,-4.5594,-4.5594,-4.5594,-4.5594,-4.5594,-4.5594,-4.5594,-4.5594,-4.5594,-4.5594,-4.5594,-4.5594,-4.5594,-4.5594,-4.5594,-4.5594,-4.5594,-4.5594,-4.5594,-4.5594,-4.5594,-4.5594,-4.5364,-4.4893,-4.4893,-4.4662,-4.4239,-4.4239,-4.4239,-4.4239,-4.4239,-4.4239,-4.4239,-4.4239,-4.4239,-4.4239,-4.4239,-4.3989,-4.3643,-4.3643,-4.3412,-4.3104,-4.3104,-4.2797,-4.2316,-4.1923,-4.1489,-4.1008,-4.0631,-4.0496,-4.0496,-4.0496,-4.0496,-4.0304,-3.9496,-3.7988,-3.6596,-3.6154,-3.5769,-3.55,-3.55,-3.5115,-3.4526,-3.3641,-3.2814,-3.1698,-2.9967,-2.8986,-2.8167,-2.7364,-2.7257,0.0,-2.7336,-2.8083,-2.878,-2.924,-3.0087,-3.0423,-3.0029,0.0,0.0,-3.0801,-3.1953,-3.2441,-3.2051,-3.3769,-3.4883,-3.5293,-3.5762,-3.5996,-3.5996,-3.5996,-3.6465,-3.7324,-3.8203,-3.9082,-3.9941,-4.082,-4.1191,-4.1191,-4.1191,-4.1191,-4.1191,-4.1191,-4.1191,-4.1191,-4.1191,-4.1191,-4.1191,-4.4877,-4.4977,-4.5129,-4.5476,-4.5522,-4.5531,-4.5586,-4.5594,-4.5594,-4.5594,-4.5594,-4.5594,-4.5594,-4.5594,-4.5594,-4.5594,-4.5594,-4.5594,-4.5594,-4.5594,-4.5594,-4.5594,-4.5594,-4.5594,-4.5594,-4.5594,-4.5594,-4.5594,-4.5594,-4.5594,-4.5594,-4.5594,-4.5594,-4.5594,-4.5594,-4.5594,-4.5594,-4.5594,-4.5594,-4.5594,-4.5594,-4.5594,-4.5594,-4.5594,-4.5152,-4.4489,-4.4489,-4.4066,-4.347,-4.347,-4.3393,-4.3143,-4.2412,-4.2077,-4.1835,-4.095,-4.0708,-4.0669,-4.0535,-4.0496,-4.0304,-3.9496,-3.818,-3.7019,-3.675,-3.6173,-3.5654,-3.5538,-3.55,-3.5231,-3.4359,-3.3487,-3.2314,-3.05,-2.9583,-2.878,-2.7838,0.0,-2.8144,-2.8336,-2.9074,-2.993,-3.0869,-3.1621,-3.2107,-3.2171,-3.2879,-3.3015,0.0,-3.3826,-3.4355,-3.3593,-3.4433,-3.5254,-3.5996,-3.5996,-3.5996,-3.5996,-3.6133,-3.6641,-3.7539,-3.8398,-3.9277,-4.0137,-4.0879,-4.1191,-4.1191,-4.1191,-4.1191,-4.1191,-4.1191,-4.1191,-4.1191,-4.1191,-4.1191,-4.1191,-4.4161,-4.4441,-4.4769,-4.5118,-4.518,-4.5263,-4.5559,-4.5594,-4.5594,-4.5594,-4.5594,-4.5594,-4.5594,-4.5594,-4.5594,-4.5594,-4.5594,-4.5594,-4.5594,-4.5594,-4.5594,-4.5594,-4.5594,-4.5594,-4.5594,-4.5594,-4.5594,-4.5594,-4.5594,-4.5594,-4.5594,-4.5594,-4.5594,-4.5594,-4.5594,-4.5594,-4.5594,-4.5594,-4.5594,-4.5594,-4.5594,-4.5594,-4.5594,-4.5594,-4.5518,-4.5402,-4.5402,-4.5325,-4.521,-4.521,-4.472,-4.4085,-4.3951,-4.3451,-4.2739,-4.1854,-4.1604,-4.145,-4.0708,-4.0496,-4.0304,-3.9496,-3.9111,-3.8507,-3.7038,-3.6596,-3.6327,-3.5635,-3.55,-3.5231,-3.4359,-3.3487,-3.2102,-2.9684,-2.9184,-2.8569,-2.7024,0.0,-2.919,-2.9932,-3.0785,-3.1651,-3.2546,-3.2754,-3.288,-3.2996,-3.3138,-3.3164,-3.3059,-3.4033,-3.4544,-3.4426,-3.5309,-3.5859,-3.5996,-3.5996,-3.5996,-3.6016,-3.6758,-3.7559,-3.8437,-3.9297,-4.0176,-4.1016,-4.1133,-4.1191,-4.1191,-4.1191,-4.1191,-4.1191,-4.1191,-4.1191,-4.1191,-4.1191,-4.1191,-4.1191,-4.3971,-4.4204,-4.4468,-4.4769,-4.4931,-4.5066,-4.5302,-4.5332,-4.54,-4.5577,-4.5594,-4.5594,-4.5594,-4.5594,-4.5594,-4.5594,-4.5594,-4.5594,-4.5594,-4.5594,-4.5594,-4.5594,-4.5594,-4.5594,-4.5594,-4.5594,-4.5594,-4.5594,-4.5594,-4.5594,-4.5594,-4.5594,-4.5594,-4.5594,-4.5594,-4.5594,-4.5594,-4.5594,-4.5594,-4.5594,-4.5594,-4.5594,-4.5594,-4.5594,-4.5594,-4.5594,-4.5594,-4.5594,-4.5594,-4.5594,-4.5325,-4.4921,-4.4451,-4.4047,-4.3585,-4.2758,-4.1835,-4.1008,-4.0612,-4.0496,-4.0419,-4.0035,-3.9631,-3.9092,-3.8277,-3.7373,-3.6596,-3.6212,-3.5808,-3.5385,-3.4968,-3.418,-3.3064,-3.141,-3.0775,0.0,0.0,-2.9717,-3.0641,-3.1038,-3.1833,-3.2685,-3.3566,-3.3649,-3.3685,-3.3783,-3.4223,-3.4311,-3.392,-3.4723,-3.519,-3.519,-3.5712,-3.5996,-3.5996,-3.5996,-3.5996,-3.6016,-3.6875,-3.7754,-3.8633,-3.9492,-4.0371,-4.1191,-4.1191,-4.1191,-4.1191,-4.1191,-4.1191,-4.1191,-4.1191,-4.1191,-4.1191,-4.1191,-4.1191,-4.1191,-4.4392,-4.4513,-4.4625,-4.4706,-4.487,-4.5034,-4.5228,-4.5099,-4.5132,-4.559,-4.5544,-4.5485,-4.5485,-4.5559,-4.5594,-4.5594,-4.5594,-4.5594,-4.5594,-4.5594,-4.5594,-4.5594,-4.5594,-4.5594,-4.5594,-4.5594,-4.5594,-4.5594,-4.5594,-4.5594,-4.5594,-4.5594,-4.5594,-4.5594,-4.5594,-4.5594,-4.5594,-4.5594,-4.5594,-4.5594,-4.5594,-4.5594,-4.5594,-4.5594,-4.5594,-4.5594,-4.5594,-4.5594,-4.5594,-4.5594,-4.5594,-4.5479,-4.4797,-4.4605,-4.4432,-4.3624,-4.2297,-4.1016,-4.0612,-4.0496,-4.0496,-4.0496,-4.0035,-3.9534,-3.9342,-3.8257,-3.7257,-3.7038,-3.6346,-3.5788,-3.5788,-3.4911,-3.3917,-3.3045,0.0,0.0,0.0,-3.1442,-3.2045,-3.2256,-3.2833,-3.3545,-3.441,-3.4507,-3.452,-3.4582,-3.5204,-3.5329,-3.4764,-3.5325,-3.5682,-3.5703,-3.5874,-3.5975,-3.5975,-3.5996,-3.5996,-3.6016,-3.709,-3.7949,-3.8633,-3.9707,-4.0566,-4.1191,-4.1191,-4.1191,-4.1191,-4.1191,-4.1191,-4.1191,-4.1191,-4.1191,-4.1191,-4.1191,-4.1191,-4.1191,-4.5772,-4.5772,-4.5637,-4.5233,-4.5161,-4.5298,-4.569,-4.5115,-4.4915,-4.5689,-4.5413,-4.5148,-4.5148,-4.5419,-4.5594,-4.5594,-4.5594,-4.5594,-4.5594,-4.5594,-4.5594,-4.5594,-4.5594,-4.5594,-4.5594,-4.5594,-4.5594,-4.5594,-4.5594,-4.5594,-4.5594,-4.5594,-4.5594,-4.5594,-4.5594,-4.5594,-4.5594,-4.5594,-4.5594,-4.5594,-4.5594,-4.5594,-4.5594,-4.5594,-4.5594,-4.5594,-4.5594,-4.5594,-4.5594,-4.5594,-4.5594,-4.5594,-4.5518,-4.5498,-4.5325,-4.447,-4.3585,-4.2566,-4.0939,-4.0496,-4.0496,-4.0496,-4.0458,-4.0227,-3.9477,-3.9207,-3.8873,-3.8065,-3.7219,-3.6615,-3.6615,-3.5295,-3.3917,-3.3045,0.0,0.0,-3.1718,-3.2295,-3.3103,-3.3917,-3.4071,-3.4449,-3.5327,-3.5404,-3.5411,-3.5398,-3.5463,-3.5489,-3.5425,-3.5532,-3.5639,-3.5703,-3.5821,-3.5907,-3.5907,-3.5973,-3.5996,-3.6016,-3.7695,-3.8535,-3.8652,-4.0332,-4.1133,-4.1191,-4.1191,-4.1191,-4.1191,-4.1191,-4.1191,-4.1191,-4.1191,-4.1191,-4.1191,-4.1191,-4.1191,-4.1191,-4.5902,-4.6177,-4.6232,-4.5728,-4.591,-4.614,-4.6171,-4.5911,-4.5925,-4.6473,-4.5942,-4.5607,-4.5826,-4.5517,-4.5362,-4.5577,-4.5594,-4.5594,-4.5594,-4.5594,-4.5594,-4.5594,-4.5594,-4.5594,-4.5594,-4.5594,-4.5594,-4.5594,-4.5594,-4.5594,-4.5594,-4.5594,-4.5594,-4.5594,-4.5594,-4.5594,-4.5594,-4.5594,-4.5594,-4.5594,-4.5594,-4.5594,-4.5594,-4.5594,-4.5594,-4.5594,-4.5594,-4.5594,-4.5594,-4.5594,-4.5594,-4.5594,-4.5594,-4.5594,-4.5441,-4.4566,-4.4085,-4.347,-4.1777,-4.1316,-4.1181,-4.065,-4.0496,-4.0419,-4.0112,-3.9669,-3.9207,-3.8873,-3.8104,-3.7507,-3.7507,-3.6546,-3.5641,-3.5315,0.0,-3.3603,-3.3295,-3.3506,-3.384,-3.4167,-3.468,-3.5135,-3.5462,-3.55,-3.55,-3.55,-3.55,-3.55,-3.55,-3.5528,-3.5552,-3.5577,-3.5668,-3.5735,-3.5789,-3.5887,-3.6166,-3.6642,-3.7963,-3.8846,-3.9321,-4.0604,-4.1191,-4.1191,-4.1191,-4.1191,-4.1191,-4.1191,-4.1191,-4.1191,-4.1191,-4.1191,-4.1191,-4.1191,-4.1191,-4.1191,-4.6654,-4.6948,-4.7021,-4.6397,-4.6581,-4.6783,-4.6641,-4.6414,-4.6438,-4.6953,-4.6413,-4.6092,-4.6315,-4.5721,-4.5445,-4.5793,-4.5592,-4.5495,-4.5586,-4.5594,-4.5594,-4.5594,-4.5594,-4.5594,-4.5594,-4.5594,-4.5594,-4.5594,-4.5594,-4.5594,-4.5594,-4.5594,-4.5594,-4.5594,-4.5594,-4.5594,-4.5594,-4.5594,-4.5594,-4.5594,-4.5594,-4.5594,-4.5594,-4.5594,-4.5594,-4.5594,-4.5594,-4.5594,-4.5594,-4.5594,-4.5594,-4.5594,-4.5594,-4.5594,-4.5479,-4.4874,-4.4701,-4.4393,-4.297,-4.2412,-4.1931,-4.0785,-4.0496,-4.0496,-4.0496,-4.0073,-3.9688,-3.9688,-3.8988,-3.8411,-3.8411,-3.77,-3.7019,-3.6731,-3.5738,-3.4891,-3.4641,-3.4603,-3.4603,-3.4603,-3.5135,-3.55,-3.55,-3.55,-3.55,-3.55,-3.55,-3.55,-3.55,-3.55,-3.55,-3.55,-3.554,-3.5706,-3.6008,-3.5908,-3.6223,-3.7003,-3.8026,-3.8923,-3.9726,-4.0692,-4.1151,-4.1191,-4.1191,-4.1191,-4.1191,-4.1191,-4.1191,-4.1191,-4.1191,-4.1191,-4.1191,-4.1191,-4.1191,-4.1191,-4.8306,-4.8306,-4.8048,-4.7241,-4.7113,-4.7113,-4.7113,-4.6434,-4.6214,-4.7003,-4.6698,-4.6408,-4.6408,-4.6048,-4.5949,-4.6279,-4.5581,-4.5262,-4.5596,-4.5594,-4.5594,-4.5594,-4.5594,-4.5594,-4.5594,-4.5594,-4.5594,-4.5594,-4.5594,-4.5594,-4.5594,-4.5594,-4.5594,-4.5594,-4.5594,-4.5594,-4.5594,-4.5594,-4.5594,-4.5594,-4.5594,-4.5594,-4.5594,-4.5594,-4.5594,-4.5594,-4.5594,-4.5594,-4.5594,-4.5594,-4.5594,-4.5594,-4.5594,-4.5594,-4.5594,-4.5594,-4.5594,-4.5421,-4.4528,-4.372,-4.2681,-4.0958,-4.0516,-4.0496,-4.0496,-4.0496,-4.0496,-4.0496,-3.9881,-3.9304,-3.9304,-3.8604,-3.7738,-3.6865,-3.6712,-3.6423,-3.5615,-3.5519,-3.5519,-3.55,-3.55,-3.55,-3.55,-3.55,-3.55,-3.55,-3.55,-3.55,-3.55,-3.55,-3.55,-3.55,-3.55,-3.5885,-3.6692,-3.6037,-3.6147,-3.7039,-3.7902,-3.8805,-3.9743,-4.0604,-4.1077,-4.1191,-4.1191,-4.1191,-4.1191,-4.1191,-4.1191,-4.1191,-4.1191,-4.1191,-4.1191,-4.1191,-4.1191,-4.1191,-4.8306,-4.8306,-4.8233,-4.7994,-4.7938,-4.7938,-4.7938,-4.7755,-4.7682,-4.7901,-4.7335,-4.6998,-4.7268,-4.665,-4.6371,-4.6755,-4.6782,-4.6713,-4.6529,-4.5932,-4.5594,-4.5594,-4.5594,-4.5594,-4.5594,-4.5594,-4.5594,-4.5594,-4.5594,-4.5594,-4.5594,-4.5594,-4.5594,-4.5594,-4.5594,-4.5594,-4.5594,-4.5594,-4.5594,-4.5594,-4.5594,-4.5594,-4.5594,-4.5594,-4.5594,-4.5594,-4.5594,-4.5594,-4.5594,-4.5594,-4.5594,-4.5594,-4.5594,-4.5594,-4.5594,-4.5594,-4.5594,-4.5421,-4.4528,-4.4124,-4.3528,-4.1835,-4.095,-4.0496,-4.0496,-4.0496,-4.0496,-4.0496,-4.0304,-4.015,-4.015,-3.9477,-3.8834,-3.8565,-3.8007,-3.7315,-3.6462,-3.6346,-3.6135,-3.5577,-3.55,-3.55,-3.55,-3.55,-3.55,-3.55,-3.55,-3.55,-3.55,-3.55,-3.55,-3.55,-3.55,-3.5885,-3.6692,-3.6585,-3.7243,-3.8627,-3.9024,-3.9621,-4.0422,-4.0817,-4.1023,-4.1056,-4.1151,-4.1191,-4.1191,-4.1191,-4.1191,-4.1191,-4.1191,-4.1191,-4.1191,-4.1191,-4.1191,-4.1191,-4.8306,-4.8306,-4.8306,-4.8306,-4.8306,-4.8306,-4.8306,-4.8306,-4.8306,-4.8306,-4.7865,-4.7666,-4.7901,-4.7178,-4.6828,-4.7241,-4.7289,-4.7053,-4.6498,-4.5974,-4.5597,-4.54,-4.541,-4.5457,-4.5594,-4.5594,-4.5594,-4.5594,-4.5594,-4.5594,-4.5594,-4.5594,-4.5594,-4.5594,-4.5594,-4.5594,-4.5594,-4.5594,-4.5594,-4.5594,-4.5594,-4.5594,-4.5594,-4.5594,-4.5594,-4.5594,-4.5594,-4.5594,-4.5594,-4.5594,-4.5594,-4.5594,-4.5594,-4.5594,-4.5594,-4.5594,-4.5594,-4.5498,-4.496,-4.4566,-4.4066,-4.3047,-4.1893,-4.1008,-4.1008,-4.0746,-4.0496,-4.0496,-4.0496,-4.0496,-4.0496,-4.0092,-3.9669,-3.9361,-3.8854,-3.82,-3.7334,-3.7219,-3.6904,-3.6077,-3.5962,-3.5846,-3.5538,-3.55,-3.55,-3.55,-3.55,-3.5635,-3.5962,-3.5962,-3.6135,-3.6481,-3.6481,-3.6892,-3.7719,-3.7803,-3.8344,-3.9341,-3.945,-3.9984,-4.0827,-4.0942,-4.1026,-4.1081,-4.1151,-4.1191,-4.1191,-4.1191,-4.1191,-4.1191,-4.1191,-4.1191,-4.1191,-4.1191,-4.1191,-4.1191,-4.8306,-4.8306,-4.8306,-4.8306,-4.8306,-4.8306,-4.8306,-4.8306,-4.8306,-4.8306,-4.8306,-4.8306,-4.8306,-4.7645,-4.7334,-4.772,-4.7319,-4.676,-4.6048,-4.5949,-4.5678,-4.5174,-4.5167,-4.5277,-4.5504,-4.5568,-4.5594,-4.5594,-4.5594,-4.5594,-4.5594,-4.5594,-4.5594,-4.5594,-4.5594,-4.5594,-4.5594,-4.5594,-4.5594,-4.5594,-4.5594,-4.5594,-4.5594,-4.5594,-4.5594,-4.5594,-4.5594,-4.5594,-4.5594,-4.5594,-4.5594,-4.5594,-4.5594,-4.5594,-4.5594,-4.5594,-4.5594,-4.5594,-4.5594,-4.5017,-4.4412,-4.4412,-4.322,-4.1981,-4.1827,-4.1181,-4.0593,-4.0516,-4.0496,-4.0496,-4.0496,-4.0496,-4.0265,-3.9534,-3.9419,-3.9111,-3.8238,-3.8123,-3.7796,-3.6923,-3.6808,-3.6519,-3.5788,-3.5712,-3.5712,-3.5712,-3.5712,-3.6038,-3.6769,-3.6808,-3.718,-3.7969,-3.8007,-3.8411,-3.9284,-3.9304,-3.9371,-3.9491,-3.9491,-4.0018,-4.0962,-4.0986,-4.1054,-4.1172,-4.1191,-4.1191,-4.1191,-4.1191,-4.1191,-4.1191,-4.1191,-4.1191,-4.1191,-4.1191,-4.1191,-4.1191,-4.8306,-4.8306,-4.8306,-4.8306,-4.8306,-4.8306,-4.8306,-4.8306,-4.8306,-4.8306,-4.8306,-4.8306,-4.8306,-4.8141,-4.8069,-4.8163,-4.7796,-4.7588,-4.7669,-4.7085,-4.641,-4.5677,-4.5653,-4.5388,-4.4825,-4.5332,-4.5594,-4.5594,-4.5594,-4.5594,-4.5594,-4.5594,-4.5594,-4.5594,-4.5594,-4.5594,-4.5594,-4.5594,-4.5594,-4.5594,-4.5594,-4.5594,-4.5594,-4.5594,-4.5594,-4.5594,-4.5594,-4.5594,-4.5594,-4.5594,-4.5594,-4.5594,-4.5594,-4.5594,-4.5594,-4.5594,-4.5594,-4.5594,-4.5594,-4.546,-4.5325,-4.5325,-4.4528,-4.3412,-4.2096,-4.1662,-4.1316,-4.065,-4.0496,-4.0496,-4.0496,-4.0496,-4.0439,-4.0265,-4.0246,-3.9958,-3.913,-3.9015,-3.8681,-3.7815,-3.7719,-3.7642,-3.7469,-3.7469,-3.7469,-3.7469,-3.7469,-3.7526,-3.7719,-3.7719,-3.7796,-3.7988,-3.8007,-3.8411,-3.9284,-3.9304,-3.9615,-4.0256,-4.0256,-4.0443,-4.0776,-4.0813,-4.0917,-4.1052,-4.115,-4.1191,-4.1191,-4.1191,-4.1191,-4.1191,-4.1191,-4.1191,-4.1191,-4.1191,-4.1191,-4.1191,-4.8306,-4.8306,-4.8306,-4.8306,-4.8306,-4.8306,-4.8306,-4.8306,-4.8306,-4.8306,-4.8306,-4.8306,-4.8306,-4.8306,-4.8306,-4.8306,-4.8126,-4.7897,-4.7704,-4.7278,-4.6759,-4.6102,-4.6098,-4.5979,-4.5741,-4.5699,-4.5592,-4.5352,-4.5352,-4.5438,-4.5594,-4.5594,-4.5594,-4.5594,-4.5594,-4.5594,-4.5594,-4.5594,-4.5594,-4.5594,-4.5594,-4.5594,-4.5594,-4.5594,-4.5594,-4.5594,-4.5594,-4.5594,-4.5594,-4.5594,-4.5594,-4.5594,-4.5594,-4.5594,-4.5594,-4.5594,-4.5594,-4.5594,-4.5594,-4.5594,-4.5594,-4.5594,-4.5267,-4.4586,-4.3297,-4.2701,-4.2181,-4.1296,-4.1123,-4.0989,-4.0573,-4.0496,-4.0496,-4.0496,-4.0496,-4.0342,-3.9938,-3.9881,-3.9554,-3.8719,-3.8623,-3.845,-3.8046,-3.8007,-3.8007,-3.8007,-3.8007,-3.818,-3.8604,-3.8623,-3.8796,-3.9181,-3.9181,-3.9419,-3.9881,-3.9881,-4.0073,-4.0496,-4.0566,-4.0642,-4.0747,-4.0843,-4.0905,-4.0914,-4.1051,-4.1104,-4.1104,-4.1104,-4.1149,-4.1191,-4.1191,-4.1191,-4.1191,-4.1191,-4.1191,-4.1191,-4.8306,-4.8306,-4.8306,-4.8306,-4.8306,-4.8306,-4.8306,-4.8306,-4.8306,-4.8306,-4.8306,-4.8306,-4.8306,-4.8306,-4.8306,-4.8306,-4.8306,-4.8012,-4.7351,-4.7314,-4.7058,-4.6537,-4.6517,-4.6621,-4.6809,-4.6167,-4.5617,-4.5228,-4.5076,-4.5169,-4.5429,-4.5429,-4.5457,-4.5513,-4.5513,-4.555,-4.5594,-4.5594,-4.5594,-4.5594,-4.5594,-4.5594,-4.5594,-4.5594,-4.5594,-4.5594,-4.5594,-4.5594,-4.5594,-4.5594,-4.5594,-4.5594,-4.5594,-4.5594,-4.5594,-4.5594,-4.5594,-4.5594,-4.5594,-4.5594,-4.5594,-4.5594,-4.5594,-4.5421,-4.4682,-4.3893,-4.3066,-4.22,-4.1904,-4.1585,-4.0854,-4.0593,-4.0496,-4.0496,-4.0496,-4.0496,-4.0496,-4.0496,-4.0246,-3.9573,-3.9515,-3.9227,-3.8507,-3.843,-3.843,-3.843,-3.843,-3.8738,-3.9477,-3.9515,-3.9804,-4.0477,-4.0496,-4.0496,-4.0496,-4.0496,-4.0496,-4.0496,-4.061,-4.0704,-4.0792,-4.0896,-4.0896,-4.0805,-4.0917,-4.0962,-4.0962,-4.0992,-4.1076,-4.1171,-4.1191,-4.1191,-4.1191,-4.1191,-4.1191,-4.1191,-4.8306,-4.8306,-4.8306,-4.8306,-4.8306,-4.8306,-4.8306,-4.8306,-4.8306,-4.8306,-4.8306,-4.8306,-4.8306,-4.8306,-4.8306,-4.8306,-4.8306,-4.8251,-4.8141,-4.8141,-4.7811,-4.704,-4.7004,-4.6709,-4.6063,-4.5934,-4.5839,-4.5714,-4.5003,-4.4682,-4.4751,-4.4751,-4.4896,-4.518,-4.518,-4.5332,-4.5594,-4.5594,-4.5594,-4.5594,-4.5594,-4.5594,-4.5594,-4.5594,-4.5594,-4.5594,-4.5594,-4.5594,-4.5594,-4.5594,-4.5594,-4.5594,-4.5594,-4.5594,-4.5594,-4.5594,-4.5594,-4.5594,-4.5594,-4.5594,-4.5594,-4.5594,-4.5594,-4.5575,-4.546,-4.4759,-4.3912,-4.3085,-4.2316,-4.175,-4.1662,-4.1008,-4.0496,-4.0496,-4.0496,-4.0496,-4.0496,-4.0496,-4.0458,-4.0342,-4.0342,-4.0285,-4.0169,-4.0169,-4.0169,-4.0169,-4.0169,-4.0208,-4.0323,-4.0342,-4.04,-4.0496,-4.0496,-4.0496,-4.0496,-4.0496,-4.0496,-4.0496,-4.0519,-4.0596,-4.0713,-4.0729,-4.0757,-4.0801,-4.0813,-4.0839,-4.0847,-4.0955,-4.1019,-4.1049,-4.115,-4.1191,-4.1191,-4.1191,-4.1191,-4.1191,-4.8306,-4.8306,-4.8306,-4.8306,-4.8306,-4.8306,-4.8306,-4.8306,-4.8306,-4.8306,-4.8306,-4.8306,-4.8306,-4.8306,-4.8306,-4.8306,-4.8306,-4.8306,-4.8306,-4.8306,-4.8141,-4.7791,-4.7755,-4.7609,-4.726,-4.6801,-4.656,-4.6529,-4.5458,-4.5054,-4.5264,-4.4806,-4.467,-4.4837,-4.5019,-4.5191,-4.5332,-4.5513,-4.5594,-4.5594,-4.5594,-4.5594,-4.5594,-4.5594,-4.5594,-4.5594,-4.5594,-4.5594,-4.5594,-4.5594,-4.5594,-4.5594,-4.5594,-4.5594,-4.5594,-4.5594,-4.5594,-4.5594,-4.5594,-4.5594,-4.5594,-4.5594,-4.5594,-4.5594,-4.5594,-4.5306,-4.4778,-4.3932,-4.3451,-4.3066,-4.2604,-4.1816,-4.1239,-4.1239,-4.0823,-4.0496,-4.0496,-4.0496,-4.0496,-4.0496,-4.0496,-4.0496,-4.0496,-4.0496,-4.0496,-4.0496,-4.0496,-4.0496,-4.0496,-4.0496,-4.0496,-4.0496,-4.0496,-4.0496,-4.0496,-4.0496,-4.0496,-4.0496,-4.0496,-4.0523,-4.0582,-4.0681,-4.0672,-4.0641,-4.0707,-4.0738,-4.0742,-4.0818,-4.0906,-4.1017,-4.1076,-4.1129,-4.1191,-4.1191,-4.1191,-4.1191]},{"header":{"parameterUnit":"m.s-1","parameterCategory":1,"la1":30.6,"la2":28.766,"lo1":-90.7593,"lo2":-88.6598,"dy":0.0162,"dx":0.0183,"nx":116,"ny":114,"refTime":"2024-06-20T06:00:00:Z","depth":0,"parameterNumber":3,"parameterNumberName":"V-component_of_WINDS"},"data":[0.0,0.0,0.0,0.0,0.0,0.0,0.0,0.0,0.0,0.0,0.0,0.0,0.0,0.0,0.0,0.0,0.0,0.0,0.0,0.0,0.0,0.0,0.0,0.0,0.0,0.0,0.0,0.0,0.0,0.0,0.0,0.0,0.0,0.0,0.0,0.0,0.0,0.0,0.0,0.0,0.0,0.0,0.0,0.0,0.0,0.0,0.0,0.0,0.0,0.0,0.0,0.0,0.0,0.0,0.0,0.0,0.0,0.0,0.0,0.0,0.0,0.0,0.0,0.0,0.0,0.0,0.0,0.0,0.0,0.0,0.0,0.0,0.0,0.0,0.0,0.0,0.0,0.0,0.0,0.0,0.0,0.0,0.0,0.0,0.0,0.0,0.0,0.0,0.0,0.0,0.0,0.0,0.0,0.0,0.0,0.0,0.0,0.0,0.0,0.0,0.0,0.0,0.0,0.0,0.0,0.0,0.0,0.0,0.0,0.0,0.0,0.0,0.0,0.0,0.0,0.0,0.0,0.0,0.0,0.0,0.0,0.0,0.0,0.0,0.0,0.0,0.0,0.0,0.0,0.0,0.0,0.0,0.0,0.0,0.0,0.0,0.0,0.0,0.0,0.0,0.0,0.0,0.0,0.0,0.0,0.0,0.0,0.0,0.0,0.0,0.0,0.0,0.0,0.0,0.0,0.0,0.0,0.0,0.0,0.0,0.0,0.0,0.0,0.0,0.0,0.0,0.0,0.0,0.0,0.0,0.0,0.0,0.0,0.0,0.0,0.0,0.0,0.0,0.0,0.0,0.0,0.0,0.0,0.0,0.0,0.0,0.0,0.0,0.0,0.0,0.0,0.0,0.0,0.0,0.0,0.0,0.0,0.0,0.0,0.0,0.0,0.0,0.0,0.0,0.0,0.0,0.0,0.0,0.0,0.0,0.0,0.0,0.0,0.0,0.0,0.0,0.0,0.0,0.0,0.0,0.0,0.0,0.0,0.0,0.0,0.0,0.0,0.0,0.0,0.0,0.0,0.0,0.0,0.0,0.0,0.0,0.0,0.0,0.0,0.0,0.0,0.0,0.0,0.0,0.0,0.0,0.0,0.0,0.0,0.0,0.0,0.0,0.0,0.0,0.0,0.0,0.0,0.0,0.0,0.0,0.0,0.0,0.0,0.0,0.0,0.0,0.0,0.0,0.0,0.0,0.0,0.0,0.0,0.0,0.0,0.0,0.0,0.0,0.0,0.0,0.0,0.0,0.0,0.0,0.0,0.0,0.0,0.0,0.0,0.0,0.0,0.0,0.0,0.0,0.0,0.0,0.0,0.0,0.0,0.0,0.0,0.0,0.0,0.0,0.0,0.0,0.0,0.0,0.0,0.0,0.0,0.0,0.0,0.0,0.0,0.0,0.0,0.0,0.0,0.0,0.0,0.0,0.0,0.0,0.0,0.0,0.0,0.0,0.0,0.0,0.0,0.0,0.0,0.0,0.0,0.0,0.0,0.0,0.0,0.0,0.0,0.0,0.0,0.0,0.0,0.0,0.0,0.0,0.0,0.0,0.0,0.0,0.0,0.0,0.0,0.0,0.0,0.0,0.0,0.0,0.0,0.0,0.0,0.0,0.0,0.0,0.0,0.0,0.0,0.0,0.0,0.0,0.0,0.0,0.0,0.0,0.0,0.0,0.0,0.0,0.0,0.0,0.0,0.0,0.0,0.0,0.0,0.0,0.0,0.0,0.0,0.0,0.0,0.0,0.0,0.0,0.0,0.0,0.0,0.0,0.0,0.0,0.0,0.0,0.0,0.0,0.0,0.0,0.0,0.0,0.0,0.0,0.0,0.0,0.0,0.0,0.0,0.0,0.0,0.0,0.0,0.0,0.0,0.0,0.0,0.0,0.0,0.0,0.0,0.0,0.0,0.0,0.0,0.0,0.0,0.0,0.0,0.0,0.0,0.0,0.0,0.0,0.0,0.0,0.0,0.0,0.0,0.0,0.0,0.0,0.0,0.0,0.0,0.0,0.0,0.0,0.0,0.0,0.0,0.0,0.0,0.0,0.0,0.0,0.0,0.0,0.0,0.0,0.0,0.0,0.0,0.0,0.0,0.0,0.0,0.0,0.0,0.0,0.0,0.0,0.0,0.0,0.0,0.0,0.0,0.0,0.0,0.0,0.0,0.0,0.0,0.0,0.0,0.0,0.0,0.0,0.0,0.0,0.0,0.0,0.0,0.0,0.0,0.0,0.0,0.0,0.0,0.0,0.0,0.0,0.0,0.0,0.0,0.0,0.0,0.0,0.0,0.0,0.0,0.0,0.0,0.0,0.0,0.0,0.0,0.0,0.0,0.0,0.0,0.0,0.0,0.0,0.0,0.0,0.0,0.0,0.0,0.0,0.0,0.0,0.0,0.0,0.0,0.0,0.0,0.0,0.0,0.0,0.0,0.0,0.0,0.0,0.0,0.0,0.0,0.0,0.0,0.0,0.0,0.0,0.0,0.0,0.0,0.0,0.0,0.0,0.0,0.0,0.0,0.0,0.0,0.0,0.0,0.0,0.0,0.0,0.0,0.0,0.0,0.0,0.0,0.0,0.0,0.0,0.0,0.0,0.0,0.0,0.0,0.0,0.0,0.0,0.0,0.0,0.0,0.0,0.0,0.0,0.0,0.0,0.0,0.0,0.0,0.0,0.0,0.0,0.0,0.0,0.0,0.0,0.0,0.0,0.0,0.0,0.0,0.0,0.0,0.0,0.0,0.0,0.0,0.0,0.0,0.0,0.0,0.0,0.0,0.0,0.0,0.0,0.0,0.0,0.0,0.0,0.0,0.0,0.0,0.0,0.0,0.0,0.0,0.0,0.0,0.0,0.0,0.0,0.0,0.0,0.0,0.0,0.0,0.0,0.0,0.0,0.0,0.0,0.0,0.0,0.0,0.0,0.0,0.0,0.0,0.0,0.0,0.0,0.0,0.0,0.0,0.0,0.0,0.0,0.0,0.0,0.0,0.0,0.0,0.0,0.0,0.0,0.0,0.0,0.0,0.0,0.0,0.0,0.0,0.0,0.0,0.0,0.0,0.0,0.0,0.0,0.0,0.0,0.0,0.0,0.0,0.0,0.0,0.0,0.0,0.0,0.0,0.0,0.0,0.0,0.0,0.0,0.0,0.0,0.0,0.0,0.0,0.0,0.0,0.0,0.0,0.0,0.0,0.0,0.0,0.0,0.0,0.0,0.0,0.0,0.0,0.0,0.0,0.0,0.0,0.0,0.0,0.0,0.0,0.0,0.0,0.0,0.0,0.0,0.0,0.0,0.0,0.0,0.0,0.0,0.0,0.0,0.0,0.0,0.0,0.0,0.0,0.0,0.0,0.0,0.0,0.0,0.0,0.0,0.0,0.0,0.0,0.0,0.0,0.0,0.0,0.0,0.0,0.0,0.0,0.0,0.0,0.0,0.0,0.0,0.0,0.0,0.0,0.0,0.0,0.0,0.0,0.0,0.0,0.0,0.0,0.0,0.0,0.0,0.0,0.0,0.0,0.0,0.0,0.0,0.0,0.0,0.0,0.0,0.0,0.0,0.0,0.0,0.0,0.0,0.0,0.0,0.0,0.0,0.0,0.0,0.0,0.0,0.0,0.0,0.0,0.0,0.0,0.0,0.0,0.0,0.0,0.0,0.0,0.0,0.0,0.0,0.0,0.0,0.0,0.0,0.0,0.0,0.0,0.0,0.0,0.0,0.0,0.0,0.0,0.0,0.0,0.0,0.0,0.0,0.0,0.0,0.0,0.0,0.0,0.0,0.0,0.0,0.0,0.0,0.0,0.0,0.0,0.0,0.0,0.0,0.0,0.0,0.0,0.0,0.0,0.0,0.0,0.0,0.0,0.0,0.0,0.0,0.0,0.0,0.0,0.0,0.0,0.0,0.0,0.0,0.0,0.0,0.0,0.0,0.0,0.0,0.0,0.0,0.0,0.0,0.0,0.0,0.0,0.0,0.0,0.0,0.0,0.0,0.0,0.0,0.0,0.0,0.0,0.0,0.0,0.0,0.0,0.0,0.0,0.0,0.0,0.0,0.0,0.0,0.0,0.0,0.0,0.0,0.0,0.0,0.0,0.0,0.0,0.0,0.0,0.0,0.0,0.0,0.0,0.0,0.0,0.0,0.0,0.0,0.0,0.0,0.0,0.0,0.0,0.0,0.0,0.0,0.0,0.0,0.0,0.0,0.0,0.0,0.0,0.0,0.0,0.0,0.0,0.0,0.0,0.0,0.0,0.0,0.0,0.0,0.0,0.0,0.0,0.0,0.0,0.0,0.0,0.0,0.0,0.0,0.0,0.0,0.0,0.0,0.0,0.0,0.0,0.0,0.0,0.0,0.0,0.0,0.0,0.0,0.0,0.0,0.0,0.0,0.0,0.0,0.0,0.0,0.0,0.0,0.0,0.0,0.0,0.0,0.0,0.0,0.0,0.0,0.0,0.0,0.0,0.0,0.0,0.0,0.0,0.0,0.0,0.0,0.0,0.0,0.0,0.0,0.0,0.0,0.0,0.0,0.0,0.0,0.0,0.0,0.0,0.0,0.0,0.0,0.0,0.0,0.0,0.0,0.0,0.0,0.0,0.0,0.0,0.0,0.0,0.0,0.0,0.0,0.0,0.0,0.0,0.0,0.0,0.0,0.0,0.0,0.0,0.0,0.0,0.0,0.0,0.0,0.0,0.0,0.0,0.0,0.0,0.0,0.0,0.0,0.0,0.0,0.0,0.0,0.0,0.0,0.0,0.0,0.0,0.0,0.0,0.0,0.0,0.0,0.0,0.0,0.0,0.0,0.0,0.0,0.0,0.0,0.0,0.0,0.0,0.0,0.0,0.0,0.0,0.0,0.0,0.0,0.0,0.0,0.0,0.0,0.0,0.0,0.0,0.0,0.0,0.0,0.0,0.0,0.0,0.0,0.0,0.0,0.0,0.0,0.0,0.0,0.0,0.0,0.0,0.0,0.0,0.0,0.0,0.0,0.0,0.0,0.0,0.0,0.0,0.0,0.0,0.0,0.0,0.0,0.0,0.0,0.0,0.0,0.0,0.0,0.0,0.0,0.0,0.0,0.0,0.0,0.0,0.0,0.0,0.0,0.0,0.0,0.0,0.0,0.0,0.0,0.0,0.0,0.0,0.0,0.0,0.0,0.0,0.0,0.0,0.0,0.0,0.0,0.0,0.0,0.0,0.0,0.0,0.0,0.0,0.0,0.0,0.0,0.0,0.0,0.0,0.0,0.0,0.0,0.0,0.0,0.0,0.0,0.0,0.0,0.0,0.0,0.0,0.0,0.0,0.0,0.0,0.0,0.0,0.0,0.0,0.0,0.0,0.0,0.0,0.0,0.0,0.0,0.0,0.0,0.0,0.0,0.0,0.0,0.0,0.0,0.0,0.0,0.0,0.0,0.0,0.0,0.0,0.0,0.0,0.0,0.0,0.0,0.0,0.0,0.0,0.0,0.0,0.0,0.0,0.0,0.0,0.0,0.0,0.0,0.0,0.0,0.0,0.0,0.0,0.0,0.0,0.0,0.0,0.0,0.0,0.0,0.0,0.0,0.0,0.0,0.0,0.0,0.0,0.0,0.0,0.0,0.0,0.0,0.0,0.0,0.0,0.0,0.0,0.0,0.0,0.0,0.0,0.0,0.0,0.0,0.0,0.0,0.0,0.0,0.0,0.0,0.0,0.0,0.0,0.0,0.0,0.0,0.0,0.0,0.0,0.0,0.0,0.0,0.0,0.0,0.0,0.0,0.0,0.0,0.0,0.0,0.0,0.0,0.0,0.0,0.0,0.0,0.0,0.0,0.0,0.0,0.0,0.0,0.0,0.0,0.0,0.0,0.0,0.0,0.0,0.0,0.0,0.0,0.0,0.0,0.0,0.0,0.0,0.0,0.0,0.0,0.0,0.0,0.0,0.0,0.0,0.0,0.0,0.0,0.0,0.0,0.0,0.0,0.0,0.0,0.0,0.0,0.0,0.0,0.0,0.0,0.0,0.0,0.0,0.0,0.0,0.0,0.0,0.0,0.0,0.0,0.0,0.0,0.0,0.0,0.0,0.0,0.0,0.0,0.0,0.0,0.0,0.0,0.0,0.0,-1.3486,0.0,0.0,0.0,0.0,0.0,0.0,0.0,0.0,0.0,0.0,0.0,0.0,0.0,0.0,0.0,0.0,0.0,0.0,0.0,0.0,0.0,0.0,0.0,0.0,-0.3854,-0.3939,-0.3935,-0.4176,-0.4335,-0.4324,-0.4468,-0.4473,-0.4311,-0.433,-0.4479,-0.4739,-0.4617,-0.4901,-0.5628,-0.563,-0.5778,-0.6063,-0.6063,-0.5835,-0.5428,0.0,0.0,0.0,0.0,0.0,0.0,0.0,0.0,0.0,0.0,0.0,0.0,0.0,0.0,0.0,0.0,0.0,0.0,0.0,0.0,0.0,0.0,0.0,0.0,0.0,0.0,0.0,0.0,0.0,0.0,0.0,0.0,0.0,0.0,0.0,0.0,0.0,0.0,0.0,0.0,0.0,0.0,0.0,0.0,0.0,0.0,0.0,0.0,0.0,0.0,0.0,0.0,0.0,0.0,0.0,0.0,0.0,0.0,0.0,0.0,0.0,0.0,0.0,0.0,0.0,0.0,0.0,0.0,0.0,0.0,0.0,-1.4853,0.0,0.0,0.0,0.0,0.0,0.0,0.0,0.0,0.0,0.0,0.0,0.0,0.0,0.0,0.0,0.0,0.0,0.0,0.0,0.0,0.0,-0.3526,-0.3579,-0.3832,-0.4128,-0.4444,-0.4627,-0.4745,-0.4797,-0.4751,-0.461,-0.4329,-0.4376,-0.4519,-0.4802,-0.4803,-0.523,-0.6106,-0.6305,-0.6731,-0.7321,-0.7322,-0.6953,-0.6287,-0.5805,0.0,0.0,0.0,0.0,0.0,0.0,0.0,0.0,0.0,0.0,0.0,0.0,0.0,0.0,0.0,0.0,0.0,0.0,0.0,0.0,0.0,0.0,0.0,0.0,0.0,0.0,0.0,0.0,0.0,0.0,0.0,0.0,0.0,0.0,0.0,0.0,0.0,0.0,0.0,0.0,0.0,0.0,0.0,0.0,0.0,0.0,0.0,0.0,0.0,0.0,0.0,0.0,0.0,0.0,0.0,0.0,0.0,0.0,0.0,0.0,0.0,0.0,0.0,-1.8838,-1.8896,-1.8691,-1.8838,-1.9248,-1.9775,-1.8359,-1.7734,-1.7627,0.0,0.0,0.0,0.0,0.0,0.0,0.0,0.0,0.0,0.0,0.0,0.0,0.0,0.0,0.0,0.0,0.0,0.0,0.0,0.0,-0.3616,-0.3899,-0.3972,-0.42,-0.4704,-0.457,-0.4543,-0.4787,-0.4576,-0.4425,-0.4391,-0.44,-0.4517,-0.4792,-0.4802,-0.5223,-0.6092,-0.7148,-0.7967,-0.8561,-0.8557,-0.8618,-0.8691,-0.7366,-0.6753,-0.666,0.0,0.0,0.0,0.0,0.0,0.0,0.0,0.0,0.0,0.0,0.0,0.0,0.0,0.0,0.0,0.0,0.0,0.0,0.0,0.0,0.0,0.0,0.0,0.0,0.0,0.0,0.0,0.0,0.0,0.0,0.0,0.0,0.0,0.0,0.0,0.0,0.0,0.0,0.0,0.0,0.0,-0.9816,-0.9937,0.0,0.0,0.0,0.0,0.0,0.0,0.0,0.0,0.0,0.0,0.0,0.0,0.0,0.0,-1.8344,-1.9962,-2.0615,-2.0292,-2.2129,-2.2451,-2.1396,-2.2129,-2.2282,-2.208,-2.1846,0.0,-1.8994,-1.8403,0.0,0.0,0.0,0.0,0.0,0.0,0.0,0.0,0.0,0.0,0.0,0.0,0.0,0.0,0.0,0.0,0.0,0.0,0.0,0.0,0.0,-0.4656,-0.5117,-0.5554,-0.5758,-0.5701,-0.5335,-0.5195,-0.4902,-0.4422,-0.4542,-0.4765,-0.5073,-0.5408,-0.6185,-0.7395,-0.8232,-0.8858,-0.9299,-0.9299,-0.9365,-0.9459,-0.8811,-0.815,-0.7486,-0.71,0.0,0.0,0.0,0.0,0.0,0.0,0.0,0.0,0.0,0.0,0.0,0.0,0.0,0.0,0.0,0.0,0.0,0.0,0.0,0.0,0.0,0.0,0.0,0.0,0.0,0.0,0.0,0.0,0.0,0.0,0.0,0.0,0.0,0.0,0.0,0.0,0.0,0.0,0.0,-1.0548,-1.1991,-1.1977,-1.2979,-1.3272,0.0,0.0,0.0,0.0,0.0,0.0,0.0,0.0,0.0,-1.8461,-1.9785,-2.0654,-2.1122,-2.236,-2.292,-2.2744,-2.3691,-2.3848,-2.332,-2.3691,-2.3715,-2.3584,-2.3584,-2.3047,-2.206,-2.0635,-1.9219,-1.7866,0.0,0.0,0.0,0.0,-1.7432,-1.7389,0.0,0.0,0.0,0.0,0.0,0.0,0.0,0.0,0.0,0.0,0.0,0.0,-0.4689,-0.5391,-0.6023,-0.6492,-0.682,-0.676,-0.6199,-0.5952,-0.5538,-0.4883,-0.4968,-0.5182,-0.5514,-0.6344,-0.7323,-0.8509,-0.9111,-0.955,-0.9793,-0.9903,-0.9936,-0.9936,-0.9936,-0.9379,-0.8445,-0.8145,-0.7575,-0.6801,0.0,0.0,0.0,0.0,0.0,0.0,0.0,0.0,0.0,0.0,0.0,0.0,0.0,0.0,0.0,0.0,0.0,0.0,0.0,0.0,0.0,0.0,0.0,0.0,0.0,0.0,0.0,0.0,0.0,0.0,0.0,0.0,0.0,0.0,0.0,0.0,0.0,-1.2316,-1.3578,-1.3434,-1.4619,-1.505,0.0,0.0,0.0,0.0,0.0,0.0,-1.8189,-1.9111,-1.9933,-2.0713,-2.1904,-2.2832,-2.3413,-2.4102,-2.4414,-2.4414,-2.4531,-2.4521,-2.4424,-2.4531,-2.4521,-2.4414,-2.4414,-2.4414,-2.4287,-2.2588,-2.1191,-2.0068,-1.9639,-1.9141,-1.875,-1.9512,-1.958,-1.9465,0.0,0.0,0.0,0.0,0.0,0.0,0.0,0.0,0.0,0.0,0.0,-0.4703,-0.5534,-0.5956,-0.6518,-0.7372,-0.7168,-0.7121,-0.7383,-0.6639,-0.6156,-0.6109,-0.5812,-0.5812,-0.6142,-0.7544,-0.8462,-0.8784,-0.9624,-1.005,-1.01,-1.0412,-1.0546,-1.0546,-1.0546,-1.0327,-0.9903,-0.8824,-0.8477,-0.8524,-0.6841,0.0,0.0,0.0,0.0,0.0,0.0,0.0,0.0,0.0,0.0,0.0,0.0,0.0,0.0,0.0,0.0,0.0,0.0,0.0,0.0,0.0,0.0,0.0,0.0,0.0,0.0,0.0,0.0,0.0,0.0,0.0,0.0,0.0,0.0,0.0,0.0,0.0,0.0,-1.3275,-1.5599,0.0,0.0,0.0,0.0,-1.7812,-1.8643,-1.9539,-2.04,-2.1621,-2.2519,-2.2916,-2.3828,-2.4307,-2.4355,-2.4394,-2.4414,-2.4424,-2.4834,-2.4814,-2.4434,-2.4844,-2.4805,-2.4414,-2.4414,-2.4414,-2.4375,-2.3867,-2.3144,-2.2314,-2.1885,-2.1241,-2.0537,-2.0967,-2.1083,-2.1142,0.0,0.0,0.0,-0.3495,-0.3495,-0.3495,-0.3495,-0.3495,-0.3546,-0.3663,-0.4436,-0.5157,-0.5641,-0.666,-0.7502,-0.8033,-0.8123,-0.8032,-0.7782,-0.7108,-0.6713,-0.6713,-0.6271,-0.6519,-0.7584,-0.8308,-0.8978,-0.9653,-0.9937,-1.0307,-1.0681,-1.0788,-1.0942,-1.1116,-1.1116,-1.1062,-1.0863,-0.9913,-0.9232,-0.8738,-0.794,-0.7174,0.0,0.0,0.0,0.0,0.0,0.0,0.0,0.0,0.0,0.0,0.0,0.0,0.0,0.0,0.0,0.0,0.0,0.0,0.0,0.0,0.0,0.0,0.0,0.0,0.0,0.0,0.0,0.0,0.0,0.0,0.0,0.0,0.0,0.0,0.0,0.0,0.0,-1.6659,-1.8305,0.0,0.0,-1.8521,-1.9307,-1.9991,-2.0879,-2.1738,-2.2598,-2.334,-2.3809,-2.391,-2.4531,-2.4834,-2.4834,-2.54,-2.5684,-2.5693,-2.6123,-2.6094,-2.5693,-2.585,-2.5684,-2.5216,-2.5216,-2.5216,-2.5206,-2.506,-2.4521,-2.3721,-2.3574,-2.332,-2.3066,-2.3223,-2.3237,-2.3271,-0.2929,-0.3255,0.0,-0.3495,-0.3495,-0.3495,-0.3495,-0.3495,-0.3612,-0.3893,-0.4816,-0.5651,-0.6239,-0.7368,-0.8196,-0.8516,-0.8697,-0.8644,-0.8225,-0.7639,-0.7306,-0.7306,-0.7075,-0.743,-0.8523,-0.8998,-0.9586,-1.0267,-1.0367,-1.0661,-1.1136,-1.1136,-1.1243,-1.1389,-1.1389,-1.1389,-1.1355,-1.0769,-1.0107,-0.9352,-0.8864,-0.825,-0.7506,0.0,0.0,0.0,0.0,0.0,0.0,0.0,0.0,0.0,0.0,0.0,0.0,0.0,0.0,0.0,0.0,0.0,0.0,0.0,0.0,0.0,0.0,0.0,0.0,0.0,0.0,0.0,0.0,0.0,0.0,0.0,0.0,0.0,0.0,0.0,-1.8453,-1.8427,-1.9976,-2.0772,-2.0019,-2.0586,-2.1318,-2.1999,-2.2754,-2.3398,-2.3975,-2.4404,-2.4707,-2.4806,-2.5283,-2.5586,-2.5723,-2.6309,-2.6602,-2.6602,-2.6885,-2.6865,-2.6602,-2.6602,-2.6435,-2.6122,-2.6122,-2.6122,-2.6103,-2.6016,-2.5615,-2.5059,-2.4746,-2.4551,-2.4414,-2.4414,-2.4414,-2.4375,-0.2697,-0.3121,-0.3485,-0.3485,-0.3495,-0.3495,-0.3485,-0.3495,-0.3806,-0.4681,-0.5335,-0.6166,-0.735,-0.8033,-0.8529,-0.8784,-0.8798,-0.8798,-0.8804,-0.8212,-0.7885,-0.7905,-0.8237,-0.8569,-0.8838,-0.9693,-1.0274,-1.0606,-1.0894,-1.1156,-1.1409,-1.1409,-1.1409,-1.1415,-1.1415,-1.1415,-1.1415,-1.1415,-1.1122,-1.0553,-0.9604,-0.9078,-0.8738,0.0,0.0,0.0,0.0,0.0,0.0,0.0,0.0,0.0,0.0,0.0,0.0,0.0,0.0,0.0,0.0,0.0,0.0,0.0,0.0,0.0,0.0,0.0,0.0,0.0,0.0,0.0,0.0,0.0,0.0,0.0,0.0,0.0,-1.579,-1.7802,-1.9105,-1.8312,-2.045,-2.1777,-2.1317,-2.2418,-2.3379,-2.3799,-2.4163,-2.4351,-2.438,-2.4873,-2.5312,-2.5664,-2.6132,-2.6602,-2.7012,-2.7021,-2.7031,-2.7031,-2.7051,-2.7051,-2.7031,-2.7031,-2.7021,-2.7012,-2.7012,-2.7012,-2.6982,-2.6572,-2.6396,-2.6299,-2.543,-2.4834,-2.4453,-2.4453,-2.4453,-2.4434,-0.2654,-0.2971,-0.3213,-0.3213,-0.3372,-0.3432,-0.3245,-0.3372,-0.3745,-0.4422,-0.542,-0.6338,-0.7061,-0.807,-0.8717,-0.8798,-0.8617,-0.8584,-0.8791,-0.7819,-0.7446,-0.7885,-0.8591,-0.9211,-0.9746,-1.0238,-1.0613,-1.0875,-1.1169,-1.1456,-1.175,-1.175,-1.1857,-1.2058,-1.2058,-1.2058,-1.2058,-1.2058,-1.185,-1.1464,-1.0579,-0.9893,-0.9372,0.0,0.0,0.0,0.0,0.0,0.0,0.0,0.0,0.0,0.0,0.0,0.0,0.0,0.0,0.0,0.0,0.0,0.0,0.0,0.0,0.0,0.0,0.0,0.0,0.0,0.0,0.0,0.0,0.0,0.0,0.0,0.0,-1.6717,-1.808,-1.9946,-2.1207,-2.1275,-2.2494,-2.3223,-2.3096,-2.2808,-2.3205,-2.4641,-2.389,-2.3623,-2.4152,-2.5387,-2.5754,-2.5061,-2.62,-2.6894,-2.7012,-2.7334,-2.749,-2.749,-2.7793,-2.7783,-2.749,-2.749,-2.7314,-2.7012,-2.7012,-2.7012,-2.7002,-2.6894,-2.666,-2.6328,-2.5771,-2.5478,-2.5323,-2.5323,-2.5166,-2.4893,-0.2448,-0.2816,-0.3068,-0.295,-0.3245,-0.3411,-0.3143,-0.333,-0.3805,-0.4663,-0.5487,-0.6305,-0.7114,-0.7943,-0.8412,-0.8412,-0.8404,-0.8397,-0.8412,-0.7903,-0.7832,-0.8432,-0.9058,-0.9699,-1.0294,-1.062,-1.0975,-1.1397,-1.153,-1.1764,-1.2087,-1.2087,-1.2138,-1.2305,-1.2305,-1.2305,-1.2305,-1.2305,-1.2204,-1.1997,-1.1397,-1.0787,-1.0167,-0.9579,-0.9118,-0.8765,-0.8363,-0.821,-0.813,-0.7566,0.0,0.0,0.0,0.0,0.0,0.0,0.0,0.0,0.0,0.0,0.0,0.0,0.0,0.0,0.0,0.0,0.0,0.0,0.0,0.0,0.0,0.0,0.0,0.0,-1.8101,-1.8725,-1.9745,-2.031,-2.0759,-2.1204,-2.1807,-2.2254,-2.2418,-2.2566,-2.2916,-2.3596,-2.3542,-2.3682,-2.414,-2.5173,-2.5829,-2.6026,-2.6852,-2.7373,-2.7549,-2.7803,-2.793,-2.793,-2.8174,-2.8164,-2.793,-2.793,-2.7793,0.0,-2.7549,-2.7549,-2.7539,-2.7363,-2.7148,0.0,0.0,0.0,0.0,0.0,-2.5566,-2.5352,-0.2193,-0.2665,-0.2971,-0.2686,-0.3089,-0.3362,-0.3089,-0.3287,-0.3887,-0.5084,-0.5511,-0.6146,-0.731,-0.7722,-0.7905,-0.7905,-0.817,-0.821,-0.7925,-0.827,-0.8704,-0.9191,-0.9559,-1.0037,-1.0626,-1.0928,-1.1316,-1.1906,-1.194,-1.2087,-1.2305,-1.2305,-1.2305,-1.2305,-1.2305,-1.2305,-1.2305,-1.2305,-1.2305,-1.2278,-1.206,-1.1625,-1.1029,-1.0441,-1.0194,-1.0094,-0.9511,-0.9311,-0.9184,-0.8378,0.0,0.0,0.0,0.0,0.0,0.0,0.0,0.0,0.0,0.0,0.0,0.0,0.0,0.0,0.0,0.0,0.0,0.0,0.0,0.0,0.0,0.0,0.0,0.0,-2.0464,-2.1264,-2.0994,-1.9531,-1.8786,-1.9467,-1.9821,-2.0136,-2.0594,-2.1844,-2.2371,-2.1785,-2.2937,-2.3785,-2.4139,0.0,0.0,0.0,0.0,-2.792,-2.8291,-2.8291,-2.8291,-2.8291,-2.8291,-2.8291,-2.8291,-2.8291,-2.8291,-2.8291,-2.8291,-2.8291,-2.8262,-2.7891,-2.7767,-2.763,-2.6728,-2.6152,-2.5752,-2.5703,-2.5693,-2.5693,-0.2161,-0.2513,-0.2676,-0.2346,-0.2783,-0.3089,-0.2821,-0.3004,-0.3588,-0.4739,-0.5368,-0.6054,-0.7007,-0.7579,-0.7905,-0.7905,-0.7959,-0.7972,-0.7912,-0.8625,-0.9091,-0.9211,-0.9717,-1.0307,-1.0895,-1.1196,-1.1516,-1.1906,-1.2104,-1.2245,-1.2305,-1.2305,-1.2305,-1.2305,-1.2305,-1.2305,-1.2305,-1.2305,-1.2305,-1.2298,-1.2238,-1.2011,-1.1672,-1.1049,-1.0675,-1.0459,-1.0074,-0.9917,-0.9857,-0.9479,-0.9345,-0.9239,-0.8644,-0.8072,0.0,0.0,0.0,0.0,0.0,0.0,0.0,0.0,0.0,0.0,0.0,0.0,0.0,0.0,0.0,0.0,0.0,0.0,0.0,-1.9201,-1.8659,-1.9181,-2.2224,-1.9269,-1.7523,-1.9591,-2.0192,-2.0611,-2.0917,-2.0535,-2.0739,-2.1925,-2.1285,-2.1624,-2.3315,-2.4597,0.0,-2.6399,-2.7567,-2.8213,-2.8291,-2.8291,-2.8291,-2.8291,0.0,0.0,-2.8291,-2.8291,-2.8291,-2.8291,-2.8291,-2.8291,-2.8281,-2.8203,-2.7969,-2.763,-2.6728,-2.6338,-2.6221,-2.582,-2.5693,-2.5693,-0.1978,-0.2241,-0.2361,-0.2055,-0.2502,-0.2794,-0.2502,-0.2816,-0.3458,-0.4475,-0.4983,-0.5594,-0.6493,-0.686,-0.7041,-0.7041,-0.7286,-0.7646,-0.8123,-0.8671,-0.9124,-0.9452,-0.9857,-1.0388,-1.0982,-1.1242,-1.157,-1.1906,-1.2164,-1.2305,-1.2305,-1.2305,-1.2305,-1.2305,-1.2305,-1.2305,-1.2305,-1.2305,-1.2305,-1.2305,-1.2305,-1.2218,-1.2037,-1.1631,-1.1189,-1.0787,-1.0608,-1.0461,-1.0294,-1.0,-0.99,-0.9826,-0.9385,-0.8844,-0.8301,0.0,0.0,0.0,0.0,0.0,0.0,0.0,0.0,0.0,0.0,0.0,0.0,0.0,0.0,-1.5822,-1.7417,0.0,-1.8184,-1.9799,-1.9599,-1.9557,-2.0454,-1.9177,-1.8529,-1.9743,-1.9313,-1.8955,-1.9069,-1.9531,-2.0204,-2.1107,-2.149,-2.2476,-2.4298,-2.5254,-2.6181,-2.7178,-2.7906,-2.795,-2.7222,-2.795,-2.795,-2.7222,-2.795,-2.8291,-2.8291,-2.8291,-2.8291,-2.8291,-2.8291,-2.8291,-2.8291,-2.8291,-2.8164,-2.792,-2.7275,-2.6894,-2.665,-2.6221,-2.6064,-2.6035,-0.1803,-0.1978,-0.2055,-0.1836,-0.2241,-0.2513,-0.2237,-0.2611,-0.3232,-0.4116,-0.4469,-0.4968,-0.5836,-0.6041,-0.6176,-0.635,-0.68,-0.7468,-0.8342,-0.8758,-0.9185,-0.9688,-1.002,-1.0448,-1.0982,-1.1242,-1.157,-1.1906,-1.2164,-1.2305,-1.2305,-1.2305,-1.2305,-1.2305,-1.2305,-1.2305,-1.2305,-1.2305,-1.2305,-1.2305,-1.2305,-1.2305,-1.2271,-1.202,-1.1578,-1.1062,-1.0949,-1.0754,-1.0472,-1.02,-1.0083,-1.0037,-0.9773,-0.9359,-0.8911,-0.859,-0.8094,0.0,0.0,0.0,0.0,0.0,0.0,0.0,0.0,0.0,-1.3719,-1.5764,-1.5693,-1.6125,-1.8848,-1.8512,-1.8351,-1.9878,-2.0436,-2.0154,-1.8641,-1.8916,-1.9376,-1.9613,-1.8188,-1.7226,-1.728,-1.9007,-2.0204,-2.037,-2.2169,-2.3808,-2.5174,-2.5539,-2.6218,-2.7394,-2.7447,-2.6997,-2.61,-2.7276,-2.7447,-2.6545,-2.7726,-2.8291,-2.8291,-2.8291,-2.8291,-2.8291,-2.8291,-2.8291,-2.8291,-2.8291,-2.8291,-2.8262,-2.792,-2.7578,-2.7197,-2.6699,-2.6514,-2.6445,-0.1803,-0.1825,-0.1836,-0.1803,-0.2055,-0.2237,-0.2204,-0.2259,-0.2615,-0.3494,-0.3889,-0.4307,-0.4899,-0.5435,-0.6079,-0.6833,-0.7249,-0.7712,-0.8355,-0.9159,-0.9641,-0.9708,-1.0244,-1.0693,-1.0982,-1.1242,-1.157,-1.1906,-1.2164,-1.2305,-1.2305,-1.2305,-1.2305,-1.2305,-1.2305,-1.2305,-1.2305,-1.2305,-1.2305,-1.2305,-1.2305,-1.2305,-1.2271,-1.202,-1.1663,-1.1275,-1.0827,-1.0421,-1.016,-1.0097,-1.0083,-1.0037,-0.9773,-0.9639,-0.9479,-0.8918,-0.853,-0.8348,-0.8544,-0.9038,-0.9715,-1.0629,-1.1386,-1.2546,0.0,0.0,-1.6235,-1.7638,-1.785,-1.7715,-1.7393,-1.8117,-1.8584,-1.8118,-1.827,-1.8728,-1.9602,-1.8159,-1.7478,-1.8547,-1.7787,-1.73,-1.7508,-1.9235,-2.04,-2.0632,-2.2359,-2.3535,-2.3969,-2.4028,-2.4156,-2.4322,-2.4322,-2.4884,-2.61,-2.6264,-2.6943,-2.8067,-2.8237,-2.8291,-2.8291,-2.8291,-2.8291,-2.8291,-2.8291,-2.8291,-2.8291,-2.8291,-2.8291,-2.8291,-2.8242,-2.8193,-2.8057,-2.7246,-2.6943,-2.6885,-0.1803,-0.1803,-0.1803,-0.1803,-0.1891,-0.1968,-0.1968,-0.2099,-0.2406,-0.2964,-0.3293,-0.3691,-0.4269,-0.4637,-0.529,-0.644,-0.6732,-0.7222,-0.8052,-0.8938,-0.9499,-0.9708,-1.008,-1.0441,-1.0767,-1.1022,-1.1316,-1.161,-1.1904,-1.2138,-1.2305,-1.2305,-1.2305,-1.2305,-1.2305,-1.2305,-1.2305,-1.2305,-1.2305,-1.2305,-1.2305,-1.2204,-1.2017,-1.1724,-1.1323,-1.0928,-1.068,-1.0291,0.0,-0.9866,-0.9866,-0.984,-0.9726,-0.9566,-0.9351,-0.9104,-0.9098,-0.9312,-1.0114,-1.0635,-1.1162,-1.1873,-1.2658,-1.35,-1.4685,-1.5106,-1.5722,-1.728,-1.7056,-1.6936,-1.8206,-1.7728,-1.7301,0.0,-1.8033,-1.816,-1.8284,-1.8002,-1.7747,-1.7736,-1.7268,-1.7007,-1.7353,-1.8491,-1.9675,-2.0653,-2.1742,-2.2776,-2.3758,-2.3822,-2.3822,-2.3822,-2.3822,-2.371,-2.3479,-2.4322,-2.471,-2.4634,-2.6272,-2.7073,-2.7251,-2.7958,-2.8291,-2.8291,-2.8291,-2.8291,-2.8291,-2.8291,-2.8291,-2.8291,-2.8291,-2.8291,-2.8223,-2.7617,-2.7393,-2.7334,-0.1803,-0.1803,-0.1803,-0.1803,-0.1803,-0.1803,-0.1803,-0.1968,-0.2199,-0.2519,-0.2726,-0.3144,-0.3916,-0.4085,-0.4658,-0.5959,-0.631,-0.6832,-0.7739,-0.8605,-0.9224,-0.9546,-0.992,-1.0214,-1.0466,-1.0834,-1.1096,-1.1309,-1.1603,-1.1857,-1.2058,-1.2144,-1.2184,-1.2184,-1.2265,-1.2305,-1.2305,-1.2305,-1.2258,-1.2184,-1.2184,-1.2011,-1.171,-1.1329,-1.0875,-1.0472,-1.0472,-1.006,-0.9552,-0.9466,-0.9499,-0.9546,-0.9466,-0.9345,-0.9244,-0.9404,-0.9746,-1.0227,-1.1076,-1.1697,-1.2288,-1.2884,-1.3708,-1.4349,-1.4429,-1.4676,-1.5214,-1.6531,-1.6139,-1.6123,-1.8118,-1.7023,-1.6205,-1.7407,-1.7674,-1.7583,-1.7228,-1.768,-1.7768,-1.7154,-1.6767,-1.67,-1.7052,-1.8128,-1.9368,-2.0592,-2.1566,-2.2439,-2.3143,-2.3207,-2.2991,-2.2597,-2.2605,-2.2305,-2.172,-2.2787,-2.313,-2.2774,-2.4744,-2.5793,-2.5904,-2.6692,-2.706,-2.706,-2.706,-2.7276,-2.7672,-2.7682,-2.7906,-2.8291,-2.8291,-2.8291,-2.8252,-2.7949,-2.7894,-2.7764,-0.1803,-0.1803,-0.1803,-0.1803,-0.1803,-0.1803,-0.1803,-0.1803,-0.1913,-0.218,-0.2224,-0.2676,-0.3872,-0.3998,-0.4476,-0.5617,-0.6266,-0.6854,-0.7464,-0.8323,-0.8924,-0.9211,-0.9777,-1.009,-1.0097,-1.0695,-1.0995,-1.1009,-1.1296,-1.1409,-1.1422,-1.175,-1.1919,-1.1933,-1.2178,-1.2305,-1.2305,-1.2305,-1.2138,-1.1919,-1.1919,-1.1703,-1.1376,-1.0841,-1.0394,-1.0134,-1.0134,-0.9724,-0.9184,-0.8904,-0.8991,-0.9178,-0.8898,-0.8991,-0.9324,-0.989,-1.0501,-1.0962,-1.0995,-1.1879,-1.2904,-1.3427,-1.4282,-1.5055,-1.5291,-1.5578,-1.5792,-1.5812,-1.5812,-1.5818,-1.592,-1.5825,-1.5925,-1.6274,-1.6556,-1.6844,-1.7159,-1.6945,-1.6757,-1.672,-1.6466,-1.64,0.0,-1.8563,-2.0024,-2.0662,-2.2336,-2.2853,-2.1734,-2.1699,-2.1038,-1.9591,-1.954,-2.0345,-2.1991,-2.2049,-2.2914,-2.4595,-2.4704,-2.4639,-2.4358,-2.4043,-2.3933,-2.3933,-2.3933,-2.4765,-2.6155,-2.6182,-2.7025,-2.8291,-2.8291,-2.8291,-2.8291,-2.8281,-2.8271,-2.8154,-0.1803,-0.1803,-0.1803,-0.1803,-0.1803,-0.1803,-0.1803,-0.1803,-0.1836,-0.1924,-0.2165,0.0,0.0,0.0,0.0,0.0,-0.5407,-0.5948,-0.7092,-0.7812,-0.8418,-0.8904,-0.9297,-0.9597,-0.9826,-1.002,-1.0345,-1.0734,-1.0834,-1.1049,-1.1395,-1.153,-1.1577,-1.1583,-1.1677,-1.1688,-1.1688,-1.1688,-1.1777,-1.1873,-1.1443,-1.1229,-1.1096,-1.074,-1.0043,-0.9272,0.0,-0.9131,-0.8651,-0.8557,-0.8584,-0.8684,-0.8778,-0.8851,-0.9145,-1.0157,-1.0688,-1.1209,-1.2198,-1.3039,-1.3822,-1.4369,-1.489,-1.5331,-1.5618,-1.5758,-1.5724,-1.5578,-1.5538,-1.5484,-1.5291,-1.5411,-1.5638,-1.5932,-1.6386,-1.6807,-1.7159,-1.7112,-1.6927,-1.6727,-1.662,0.0,0.0,0.0,0.0,-1.9188,-1.9953,-2.0316,-2.0127,-2.0148,-1.9924,-1.9424,-1.9424,-1.9791,-2.0534,-2.0534,-2.103,-2.2069,-2.2863,-2.3625,-2.4301,-2.3939,-2.3822,-2.3822,-2.3822,-2.41,-2.4544,-2.4552,-2.4893,-2.5325,-2.5325,-2.5325,-2.5325,-2.5325,-2.5325,-2.5537,-0.1781,-0.1803,-0.1803,-0.1803,-0.1803,0.0,0.0,0.0,0.0,0.0,0.0,0.0,0.0,0.0,0.0,0.0,0.0,-0.5218,-0.6393,-0.7028,-0.7564,-0.8004,-0.8587,-0.891,-0.8922,-0.9228,-0.9606,-1.0087,-1.0087,-1.0203,-1.0406,-1.0509,-1.0416,-1.0191,-1.0284,-1.0327,-1.0327,-1.0327,-1.0411,-1.0488,-1.0327,-1.0226,-1.0122,-0.999,-0.9466,0.0,-0.8651,-0.8437,-0.8216,-0.8216,-0.8308,-0.8449,-0.8717,-0.9165,-0.974,-1.0526,-1.1176,-1.1933,-1.3173,-1.3874,-1.4409,-1.5097,-1.5418,-1.5598,-1.5738,-1.5752,-1.5591,-1.5304,-1.5077,-1.487,-1.4727,-1.4716,-1.497,-1.5578,-1.6079,-1.6567,-1.7132,-1.7199,-1.7132,-1.6887,-1.6867,-1.6907,0.0,0.0,0.0,-1.8457,-1.8764,-1.9052,-1.9352,-1.9424,-1.9424,-1.9424,-1.9424,-1.9553,-1.9953,-1.9953,-2.0254,-2.0828,-2.1383,-2.2067,-2.282,-2.2425,-2.2209,-2.2209,-2.2209,-2.254,-2.2983,-2.2983,-2.3319,-2.3822,-2.3822,-2.3822,-2.3822,-2.3822,-2.3822,-2.4105,-0.1703,-0.1773,-0.1781,0.0,0.0,0.0,0.0,0.0,0.0,0.0,0.0,0.0,0.0,0.0,0.0,0.0,0.0,0.0,-0.5399,-0.5997,-0.6406,-0.6576,-0.7672,-0.8023,-0.7489,-0.8268,-0.8791,-0.9054,-0.9054,-0.8883,-0.8516,-0.8788,-0.8577,-0.7984,-0.8233,-0.834,-0.835,-0.835,-0.8223,-0.8051,-0.8638,-0.8729,-0.8544,-0.8667,-0.8712,-0.8579,-0.7789,-0.7669,-0.7892,-0.7919,-0.8183,-0.8543,-0.8804,-0.986,-1.1002,-1.1062,-1.1933,-1.3025,-1.3929,-1.4355,-1.4783,-1.5571,-1.5784,-1.5778,-1.5764,-1.5585,-1.5284,-1.5008,-1.4442,-1.4028,-1.3981,0.0,-1.3986,-1.5124,-1.5625,-1.6166,-1.7058,-1.7206,-1.7226,0.0,0.0,0.0,0.0,0.0,0.0,-1.849,0.0,-1.9052,-1.9352,-1.9424,-1.9424,-1.9424,-1.9379,-1.9659,-2.0167,-2.02,-2.0555,-2.1102,-2.0514,-2.0173,-2.0153,-1.9633,-1.9424,-1.9424,-1.9424,-2.0199,-2.1472,-2.1472,-2.2315,-2.3543,-2.3543,-2.3543,-2.3543,-2.3543,-2.3543,-2.3717,0.0,0.0,0.0,0.0,0.0,0.0,0.0,0.0,0.0,0.0,0.0,0.0,0.0,0.0,0.0,0.0,0.0,0.0,-0.4637,-0.5063,-0.5642,-0.6422,-0.6544,-0.6807,-0.7188,-0.6983,-0.7008,-0.7251,-0.7251,-0.7329,-0.7488,-0.7555,-0.7542,-0.7486,-0.7544,-0.7636,-0.7745,-0.7745,-0.7738,-0.7738,-0.7478,-0.7406,-0.751,-0.7736,-0.7542,-0.7215,-0.7645,-0.7715,-0.7678,-0.8134,-0.8891,-0.9726,-1.005,-1.0553,-1.1162,-1.208,-1.2826,-1.3607,-1.4502,-1.511,-1.5505,-1.5724,-1.5784,-1.5772,-1.5558,-1.5284,-1.4863,-1.4128,-1.3687,-1.3233,-1.2596,-1.328,0.0,-1.4033,-1.5438,0.0,-1.6787,-1.7194,0.0,-1.7521,0.0,-1.7842,-1.7896,-1.8384,0.0,0.0,-1.8878,-1.9052,-1.9352,-1.9424,-1.9424,-1.9424,-1.9579,-1.9867,-2.0227,-2.0668,-2.0962,-2.1102,-2.0514,-2.0173,-2.0153,-1.9633,-1.9424,-1.9424,-1.9424,-1.9591,-1.9982,-1.9982,-2.0206,-2.0544,-2.0544,-2.0544,-2.0544,-2.0544,-2.0544,-2.0694,0.0,0.0,0.0,0.0,0.0,0.0,0.0,0.0,0.0,0.0,0.0,0.0,0.0,0.0,0.0,0.0,0.0,0.0,0.0,-0.4235,-0.4648,-0.5159,-0.5565,-0.5844,-0.6,-0.6073,-0.6172,-0.6291,-0.6328,-0.6268,-0.6142,-0.6186,-0.6091,-0.5864,-0.5864,-0.5901,-0.5949,-0.5949,-0.6004,0.0,0.0,-0.6132,-0.6262,-0.6586,-0.6666,-0.6657,-0.7017,-0.7546,-0.8208,-0.9072,-0.9853,-1.0555,-1.0848,-1.141,-1.2118,-1.2906,-1.3654,-1.4355,-1.4983,-1.5484,-1.5784,-1.5784,-1.5732,-1.5498,-1.4943,-1.4496,-1.3901,-1.2841,-1.2338,-1.1891,-1.1424,-1.2184,0.0,0.0,0.0,0.0,-1.6633,-1.7101,-1.7488,0.0,-1.805,0.0,-1.8404,-1.8844,-1.9118,0.0,-1.9118,-1.9192,-1.9417,-1.9424,-1.9424,-1.9424,-1.9526,-1.9813,-2.0227,-2.0561,-2.0788,-2.0909,-2.0321,-2.004,-2.0027,-1.9573,-1.9424,-1.9424,0.0,-1.9424,-1.9424,-1.9424,-1.9424,-1.9424,-1.9424,-1.9424,-1.9424,-1.9424,-1.9424,-1.954,0.0,0.0,0.0,0.0,0.0,0.0,0.0,0.0,0.0,-0.185,0.0,0.0,0.0,0.0,0.0,0.0,0.0,0.0,0.0,0.0,-0.3651,-0.3628,-0.4609,-0.4984,-0.4617,-0.5259,-0.5619,-0.5613,-0.563,-0.5316,-0.4687,-0.4832,-0.4572,-0.3964,-0.3964,-0.3974,-0.3994,-0.3994,-0.3984,-0.4038,-0.4669,-0.4917,-0.4952,0.0,-0.5841,-0.631,-0.6315,-0.7364,-0.8938,-1.0184,-1.0841,-1.1176,-1.155,-1.2361,-1.33,-1.3666,-1.4362,-1.5082,-1.5364,-1.5638,-1.5784,-1.5784,-1.5578,-1.511,-1.4229,-1.354,-1.2752,-1.1522,-1.0882,-1.0512,-1.0432,-1.0955,-1.1755,-1.2906,0.0,-1.5417,-1.654,-1.7012,-1.7434,-1.8003,-1.8323,-1.8617,-1.8951,-1.9219,-1.9424,-1.9424,-1.9424,-1.9424,-1.9424,-1.9424,-1.9444,-1.9426,-1.9426,-1.9686,-2.0227,-2.0173,-2.0361,-2.0608,-2.006,-1.98,-1.9786,-1.9499,-1.9424,-1.9424,0.0,0.0,-1.9424,-1.9424,-1.9424,-1.9424,-1.9424,-1.9424,-1.9424,-1.9424,-1.9424,-1.9417,0.0,0.0,0.0,0.0,0.0,0.0,0.0,-0.1889,-0.2002,-0.2114,-0.1937,-0.186,-0.2016,0.0,0.0,0.0,0.0,0.0,0.0,0.0,0.0,-0.3739,-0.35,-0.3747,-0.4574,-0.394,-0.3789,-0.4172,-0.39,-0.3705,-0.3574,-0.3781,-0.3855,-0.3832,-0.3832,-0.39,-0.3994,-0.3994,-0.3944,-0.3853,-0.3971,-0.3967,-0.392,-0.4431,0.0,0.0,-0.6418,-0.7589,-0.869,-1.011,-1.1109,-1.1893,-1.2652,-1.3167,-1.368,-1.4509,-1.4888,-1.5122,-1.5611,-1.5744,-1.5784,-1.5784,-1.5431,-1.481,-1.388,-1.3066,0.0,-1.0981,-1.0434,-1.0047,-0.9531,-1.051,-1.1615,-1.2345,0.0,0.0,0.0,0.0,-1.7514,0.0,0.0,0.0,0.0,0.0,0.0,0.0,0.0,0.0,-1.9424,-1.9424,-1.9472,-1.972,-1.9726,-1.9887,-2.0227,-2.0173,-2.0261,-2.0307,-1.996,-1.98,-1.9786,-1.9499,-1.9424,-1.9424,0.0,0.0,-1.9424,-1.9424,-1.9424,-1.9424,-1.9424,-1.9424,-1.9424,-1.9424,-1.9424,-1.939,0.0,0.0,0.0,0.0,0.0,0.0,-0.1753,-0.1857,-0.2027,-0.2408,-0.2355,-0.229,-0.235,-0.2354,-0.2423,0.0,0.0,0.0,0.0,0.0,0.0,-0.3206,-0.3142,-0.3366,-0.3919,-0.362,0.0,0.0,0.0,-0.3429,-0.3354,0.0,0.0,-0.3706,-0.3706,-0.3724,-0.3792,-0.3792,-0.3748,-0.3706,-0.3706,-0.3662,-0.3622,-0.388,0.0,0.0,-0.645,-0.7468,-0.8171,-0.9791,-1.0847,-1.1597,-1.2677,-1.3387,-1.3988,-1.4563,-1.495,-1.5284,-1.5712,-1.5784,-1.5784,-1.5784,-1.5277,-1.4416,-1.322,0.0,0.0,-0.992,-0.9539,-0.9345,-0.9038,-0.993,0.0,-1.1724,-1.2819,0.0,0.0,0.0,0.0,0.0,0.0,0.0,0.0,0.0,0.0,0.0,0.0,0.0,-1.9424,-1.9424,-1.9432,-1.9573,-1.9579,-1.9713,-2.0007,-1.986,-1.986,-2.0007,-1.9713,-1.9579,-1.9573,-1.9432,-1.9424,-1.9424,-1.9424,0.0,-1.9424,-1.9424,-1.9424,-1.9424,-1.9424,-1.9424,-1.9424,-1.9424,-1.9272,-1.9118,0.0,0.0,0.0,0.0,0.0,0.0,-0.154,-0.1636,-0.1879,-0.2503,-0.26,-0.2627,-0.2734,-0.2596,-0.2549,0.0,0.0,0.0,0.0,0.0,0.0,0.0,0.0,-0.3212,-0.329,0.0,0.0,0.0,0.0,0.0,0.0,0.0,0.0,0.0,0.0,0.0,-0.3604,-0.3604,-0.3604,0.0,0.0,-0.3604,0.0,0.0,0.0,0.0,0.0,-0.6957,-0.7656,-0.9202,-1.0182,-1.0895,-1.1986,-1.3018,-1.3868,-1.4229,-1.475,-1.5284,-1.5638,-1.5785,-1.5764,-1.5752,-1.5077,-1.4035,-1.2552,-1.153,-1.0501,-0.9098,-0.8804,-0.8804,-0.8804,-0.9391,-1.0203,-1.1142,-1.1824,-1.2933,0.0,0.0,0.0,0.0,0.0,0.0,0.0,0.0,0.0,0.0,0.0,0.0,-1.9424,-1.9424,-1.9424,-1.9424,-1.9424,-1.9472,-1.9706,-1.9486,-1.9486,-1.9706,-1.9472,-1.9424,-1.9424,-1.9424,-1.9424,-1.9424,-1.9424,0.0,0.0,-1.9424,-1.9424,-1.9424,-1.9424,-1.9424,-1.9417,-1.9299,-1.9125,-1.8905,0.0,0.0,0.0,0.0,0.0,0.0,-0.0978,-0.1086,-0.1426,-0.2146,-0.2249,-0.2406,-0.2831,-0.2661,-0.2505,0.0,0.0,0.0,0.0,0.0,0.0,0.0,0.0,0.0,0.0,0.0,0.0,0.0,0.0,0.0,0.0,0.0,0.0,0.0,0.0,0.0,0.0,-0.3604,0.0,0.0,0.0,0.0,0.0,0.0,0.0,0.0,0.0,-0.5974,-0.7278,-0.8233,-0.9125,-0.995,-1.0593,-1.1765,-1.3018,-1.3513,-1.4099,0.0,-1.5284,-1.5625,-1.5718,-1.5504,-1.4776,-1.3741,-1.2281,0.0,-1.0291,-0.9058,-0.8804,-0.8804,-0.8804,-0.9064,-0.9664,-1.0848,-1.1523,-1.267,0.0,0.0,0.0,0.0,0.0,0.0,0.0,0.0,0.0,0.0,0.0,0.0,0.0,-1.9424,-1.9424,-1.9424,-1.9424,-1.9379,-1.9464,-1.9379,-1.9379,-1.9464,-1.9379,-1.9424,-1.9424,-1.9424,-1.9424,-1.9424,0.0,0.0,0.0,-1.9424,-1.9424,-1.9424,-1.9424,-1.9424,-1.9332,-1.9065,-1.8945,-1.8844,0.0,0.0,0.0,0.0,0.0,0.0,-0.0845,-0.0941,-0.1215,-0.1873,-0.1958,-0.1992,-0.2107,-0.2103,-0.2148,-0.2301,0.0,0.0,0.0,0.0,0.0,0.0,0.0,0.0,0.0,0.0,0.0,0.0,0.0,0.0,0.0,0.0,0.0,0.0,0.0,0.0,0.0,0.0,0.0,0.0,0.0,0.0,0.0,0.0,0.0,0.0,0.0,0.0,-0.6354,-0.689,-0.7896,-0.8938,-0.8965,-0.986,-1.1189,-1.2452,-1.322,-1.3941,-1.4883,-1.5351,-1.5538,-1.5424,-1.4603,-1.3474,-1.2201,-1.1089,-1.0007,-0.9011,-0.8804,-0.8804,-0.8804,-0.8871,-0.9277,-1.0301,-1.0514,-1.1249,-1.31,0.0,0.0,0.0,0.0,0.0,0.0,0.0,0.0,0.0,0.0,0.0,0.0,-1.9424,-1.9424,-1.9424,-1.9424,-1.9424,-1.9424,-1.9424,-1.9424,-1.9424,-1.9424,-1.9424,-1.9424,-1.9424,-1.9424,-1.9424,0.0,0.0,0.0,-1.9424,-1.9424,-1.9424,-1.9424,-1.9259,-1.9085,-1.8965,-1.8641,-1.8308,0.0,0.0,0.0,0.0,0.0,-0.0141,-0.0574,-0.0636,-0.085,-0.1448,-0.153,-0.1523,-0.1505,-0.1594,-0.1703,-0.1811,-0.2186,0.0,0.0,0.0,0.0,0.0,0.0,0.0,0.0,0.0,-0.3,-0.3101,0.0,0.0,0.0,0.0,0.0,0.0,0.0,0.0,0.0,0.0,0.0,0.0,0.0,0.0,0.0,0.0,0.0,0.0,0.0,0.0,0.0,0.0,0.0,-0.7972,-0.7743,-0.8418,-0.9668,-1.1403,-1.2405,-1.318,-1.4275,-1.485,-1.5117,-1.503,-1.4255,-1.314,-1.194,-1.0835,-0.9837,-0.8991,-0.8804,-0.8804,-0.8804,-0.8804,-0.9038,-0.9717,-0.9833,-1.0394,-1.2064,-1.2899,0.0,0.0,0.0,0.0,0.0,0.0,0.0,0.0,0.0,0.0,0.0,-1.9424,-1.9424,-1.9424,-1.9424,-1.9424,-1.9424,-1.9424,-1.9424,-1.9424,-1.9424,-1.9424,-1.9424,-1.9424,-1.9424,-1.9424,0.0,0.0,0.0,-1.9424,-1.9319,-1.9239,-1.9239,-1.9052,-1.8784,-1.8698,-1.8348,-1.7975,0.0,0.0,0.0,0.0,0.0,0.0,-0.0013,-0.0013,-0.0221,-0.0829,-0.0908,-0.1014,-0.1283,-0.1296,-0.1198,-0.0937,-0.1708,0.0,0.0,0.0,0.0,0.0,0.0,0.0,0.0,0.0,-0.3101,-0.3101,-0.3429,-0.36,0.0,0.0,0.0,0.0,0.0,0.0,0.0,0.0,0.0,0.0,0.0,0.0,-0.3604,0.0,0.0,0.0,0.0,0.0,0.0,0.0,0.0,0.0,0.0,-0.7714,-0.8764,-1.0488,-1.1623,-1.2512,-1.3373,-1.4039,-1.4462,-1.4175,-1.3654,-1.2826,-1.1343,-1.0541,-0.9837,-0.8991,-0.8804,-0.8804,-0.8804,-0.8804,-0.8878,-0.9171,-0.9704,-1.0628,-1.2091,-1.3034,0.0,0.0,0.0,0.0,0.0,0.0,0.0,0.0,0.0,0.0,0.0,-1.9424,-1.9424,-1.9424,-1.9424,-1.9424,-1.9424,-1.9424,-1.9424,-1.9424,-1.9424,-1.9424,-1.9424,-1.9424,-1.9424,0.0,0.0,0.0,0.0,-1.9424,-1.9192,-1.8925,-1.8925,-1.8751,-1.8464,-1.8109,-1.7995,-1.7949,0.0,0.0,0.0,0.0,0.0,0.0,0.0,0.0,-0.0063,-0.0262,-0.028,-0.032,-0.0402,-0.0572,-0.0649,-0.057,-0.1395,0.0,0.0,0.0,0.0,0.0,0.0,0.0,0.0,-0.2968,-0.3151,-0.3236,-0.3578,-0.3747,-0.3747,-0.3747,0.0,0.0,0.0,0.0,0.0,0.0,0.0,0.0,0.0,-0.3604,-0.3604,0.0,0.0,0.0,0.0,0.0,0.0,0.0,0.0,0.0,0.0,0.0,0.0,-0.8423,-0.9719,-1.1002,-1.1855,-1.2412,-1.2685,-1.263,-1.2131,-1.1463,-1.0595,-0.991,-0.9357,-0.8905,-0.8804,-0.8804,-0.8804,-0.8804,-0.9098,-0.9993,-1.0468,-1.1089,-1.2151,0.0,0.0,0.0,0.0,0.0,0.0,0.0,0.0,0.0,0.0,0.0,0.0,-1.9424,-1.9424,-1.9424,-1.9424,-1.9424,-1.9424,-1.9424,-1.9424,-1.9424,-1.9424,-1.9424,-1.9424,-1.9424,0.0,0.0,0.0,0.0,0.0,-1.9065,-1.8891,-1.8631,-1.8631,-1.845,-1.8176,-1.8029,-1.7856,-1.7716,0.0,0.0,0.0,0.0,0.0,0.0,0.0,0.0,0.0,0.0,0.0,0.0,0.0,-0.0147,-0.0251,-0.025,-0.095,0.0,0.0,0.0,0.0,0.0,0.0,0.0,-0.2696,-0.2917,-0.3121,-0.3306,-0.3592,-0.3768,-0.3877,-0.3877,-0.3799,-0.3682,0.0,0.0,0.0,0.0,0.0,0.0,-0.358,-0.3544,-0.35,0.0,0.0,0.0,0.0,0.0,0.0,0.0,0.0,0.0,0.0,0.0,0.0,0.0,-0.7906,-0.923,-1.0374,-1.1106,-1.1571,-1.1571,-1.1216,-1.0675,-1.0087,-0.9557,-0.9131,-0.8871,-0.8804,-0.8804,-0.8804,-0.8804,-0.9045,-0.9809,-1.0327,-1.1009,0.0,0.0,0.0,0.0,0.0,0.0,0.0,0.0,0.0,0.0,0.0,0.0,0.0,0.0,-1.9038,-1.9038,-1.931,-1.9424,-1.9424,-1.9424,-1.9424,-1.9424,-1.9424,-1.9305,-1.9199,-1.9199,0.0,0.0,0.0,0.0,0.0,-1.8764,-1.8584,-1.8323,-1.8323,-1.8136,-1.7869,-1.7869,-1.7749,-1.7582,0.0,0.0,0.0,0.0,0.0,0.0,0.0,0.0,0.0,0.0,0.0,0.0,0.0,0.0,0.0,0.0,-0.0402,0.0,0.0,0.0,0.0,0.0,0.0,0.0,-0.2696,-0.2842,-0.305,-0.3323,-0.3531,-0.3758,-0.4011,-0.4011,-0.3948,-0.3792,-0.3792,-0.3737,0.0,0.0,0.0,0.0,-0.3542,-0.3493,0.0,0.0,0.0,0.0,0.0,0.0,0.0,0.0,0.0,0.0,0.0,0.0,0.0,0.0,0.0,0.0,0.0,-0.9964,-1.0769,-1.0808,-1.0653,-1.0325,-0.9775,-0.9406,0.0,-0.8864,-0.8804,-0.8818,-0.8864,-0.8851,-0.8871,-0.8978,-0.9713,-1.0675,0.0,0.0,0.0,0.0,0.0,0.0,0.0,0.0,0.0,0.0,0.0,0.0,0.0,0.0,-1.849,-1.849,-1.9018,-1.9363,-1.9363,-1.9363,-1.9363,-1.9363,-1.9363,-1.9158,-1.8891,-1.8891,0.0,0.0,0.0,0.0,0.0,-1.8457,-1.8283,-1.7962,-1.7962,-1.7836,-1.7582,-1.7582,-1.7582,-1.7582,0.0,0.0,0.0,0.0,0.0,0.0,0.0,0.0,0.0,0.0,0.0,0.0,0.0,0.0,0.0,0.0,0.0,0.0,0.0,0.0,0.0,0.0,0.0,0.0,-0.2696,-0.2937,-0.3219,-0.3524,-0.3788,-0.3987,-0.414,-0.414,-0.4024,-0.3792,-0.3792,-0.3737,0.0,0.0,0.0,0.0,-0.3587,-0.358,0.0,0.0,0.0,0.0,-0.3604,-0.3604,0.0,0.0,0.0,0.0,0.0,0.0,0.0,0.0,-0.5769,-0.6631,-0.6227,0.0,-0.8425,-0.8904,-0.9105,-0.9185,0.0,-0.8958,-0.8865,-0.8824,-0.8804,-0.8945,-0.9392,-0.9292,-0.9477,-1.0596,-1.1363,-1.2124,0.0,0.0,0.0,0.0,0.0,0.0,0.0,0.0,0.0,0.0,0.0,0.0,0.0,0.0,-1.849,-1.849,-1.8624,-1.8698,-1.8698,-1.8698,-1.8698,-1.8698,-1.8698,-1.8664,-1.8591,-1.8591,0.0,0.0,0.0,0.0,-1.8095,-1.8095,-1.7969,-1.7695,-1.7695,-1.7649,-1.7582,-1.7582,-1.7582,-1.7582,0.0,0.0,0.0,0.0,0.0,0.0,0.0,0.0,0.0,0.0,0.0,0.0,0.0,0.0,0.0,0.0,0.0,0.0,0.0,0.0,0.0,0.0,0.0,-0.2114,-0.238,-0.2799,-0.3205,-0.3604,-0.3805,-0.4063,-0.4345,-0.4345,-0.4185,-0.389,-0.3754,-0.3675,0.0,0.0,0.0,-0.348,-0.3573,0.0,0.0,0.0,0.0,0.0,-0.3471,-0.3519,0.0,-0.3655,-0.3658,-0.3658,0.0,0.0,0.0,0.0,-0.4862,-0.5465,-0.4918,-0.6193,-0.7765,-0.8088,-0.8573,-0.8897,-0.8592,-0.841,-0.8209,-0.7857,-0.8049,-0.8448,-0.8934,-0.9232,-0.9786,-1.0855,-1.1169,0.0,0.0,0.0,0.0,0.0,0.0,0.0,0.0,0.0,0.0,0.0,0.0,0.0,0.0,0.0,-1.8076,-1.8076,-1.8076,-1.821,-1.849,-1.849,-1.849,-1.849,-1.849,-1.8424,-1.829,-1.829,0.0,0.0,0.0,0.0,-1.7836,-1.7836,-1.7736,-1.7582,-1.7582,-1.7582,-1.7582,-1.7582,-1.7582,-1.7582,0.0,0.0,0.0,0.0,0.0,0.0,0.0,0.0,0.0,0.0,0.0,0.0,0.0,0.0,0.0,0.0,0.0,0.0,0.0,0.0,0.0,0.0,-0.1551,-0.1895,-0.2065,-0.257,-0.3102,-0.3634,-0.3754,-0.4033,-0.4457,-0.4481,-0.4331,-0.3984,-0.3734,-0.3621,-0.3604,0.0,-0.3503,-0.3353,-0.3527,0.0,0.0,0.0,0.0,0.0,0.0,0.0,0.0,-0.3662,-0.3682,-0.3624,-0.3744,0.0,0.0,0.0,0.0,0.0,-0.4347,-0.5927,-0.7587,-0.7612,-0.8232,-0.8685,-0.8086,-0.7745,-0.7343,-0.6723,-0.7241,-0.786,-0.8109,-0.8974,0.0,-1.0322,0.0,0.0,0.0,0.0,0.0,0.0,0.0,0.0,0.0,0.0,0.0,0.0,0.0,0.0,0.0,0.0,0.0,-1.7582,-1.7582,-1.7829,-1.8343,-1.835,-1.835,-1.835,-1.835,-1.8217,-1.7922,-1.7922,-1.7829,0.0,0.0,0.0,-1.7582,-1.7582,-1.7582,-1.7582,-1.7582,-1.7582,-1.7582,-1.7582,-1.7582,-1.7582,0.0,0.0,0.0,0.0,0.0,0.0,0.0,0.0,0.0,0.0,0.0,0.0,0.0,0.0,0.0,0.0,0.0,0.0,0.0,0.0,0.0,-0.0187,-0.0654,-0.1383,-0.2406,-0.2523,-0.2958,-0.3761,-0.391,-0.4062,-0.4257,-0.4433,-0.4331,-0.3987,-0.3836,-0.3716,-0.3604,-0.3604,-0.3587,-0.3548,0.0,0.0,0.0,0.0,0.0,0.0,0.0,0.0,0.0,-0.3447,-0.3533,-0.3607,-0.3628,0.0,0.0,0.0,0.0,0.0,-0.4116,-0.5071,-0.6146,-0.6273,-0.6765,-0.7168,-0.6898,-0.6803,-0.675,-0.6615,-0.74,-0.812,-0.8043,-0.8776,-0.9406,0.0,0.0,0.0,0.0,0.0,0.0,0.0,0.0,0.0,0.0,0.0,0.0,0.0,0.0,0.0,0.0,0.0,0.0,-1.7582,-1.7582,-1.7622,-1.7722,-1.7722,-1.7722,-1.7722,-1.7722,-1.7695,-1.7655,-1.7655,-1.7629,0.0,0.0,-1.7582,-1.7582,-1.7582,-1.7582,-1.7582,-1.7582,-1.7582,-1.7582,-1.7582,-1.7582,-1.7582,0.0,0.0,0.0,0.0,0.0,0.0,0.0,0.0,0.0,0.0,0.0,0.0,0.0,0.0,0.0,0.0,0.0,0.0,0.0,0.0,0.0,0.0,-0.0201,-0.07,-0.1505,-0.1842,-0.2442,-0.3316,-0.3449,-0.3798,-0.4362,-0.3946,-0.3592,-0.33,-0.3155,-0.319,-0.3334,-0.3334,-0.3402,-0.3477,0.0,0.0,0.0,0.0,0.0,0.0,0.0,0.0,0.0,0.0,-0.3419,-0.3448,-0.3576,0.0,0.0,0.0,0.0,0.0,-0.381,-0.4357,-0.4945,-0.5016,-0.6192,-0.7202,-0.6773,-0.6574,-0.6393,-0.6034,-0.6616,-0.726,-0.7371,0.0,-0.8946,0.0,0.0,0.0,0.0,0.0,0.0,0.0,0.0,0.0,0.0,0.0,0.0,0.0,0.0,0.0,0.0,0.0,0.0,0.0,-1.6387,-1.677,-1.7582,-1.7582,-1.7582,-1.7582,-1.7582,-1.7582,-1.7582,-1.7582,-1.7582,-1.7582,0.0,-1.7582,-1.7582,-1.7582,-1.7582,-1.7582,-1.7582,-1.7582,-1.7582,-1.7582,-1.7582,-1.7582,0.0,0.0,0.0,0.0,0.0,0.0,0.0,0.0,0.0,0.0,0.0,0.0,0.0,0.0,0.0,0.0,0.0,0.0,0.0,0.0,0.0,0.0,0.0,-0.0242,-0.078,-0.1221,-0.1941,-0.2948,-0.3049,-0.3495,-0.4208,-0.3315,-0.2815,-0.2701,-0.2582,-0.2762,-0.3101,-0.3101,-0.3188,-0.3317,0.0,0.0,0.0,0.0,0.0,0.0,0.0,0.0,0.0,0.0,0.0,0.0,0.0,0.0,0.0,-0.3604,-0.3604,-0.3617,-0.3686,-0.3937,-0.421,-0.4308,-0.5655,-0.6885,-0.6498,-0.6268,-0.6032,-0.5582,-0.6124,-0.6692,0.0,-0.762,0.0,0.0,0.0,0.0,0.0,0.0,0.0,0.0,0.0,0.0,0.0,0.0,0.0,0.0,0.0,0.0,0.0,0.0,0.0,0.0,-1.4931,-1.547,-1.6605,-1.6929,-1.7252,-1.7582,-1.7582,-1.7582,-1.7582,-1.7582,-1.7582,-1.7582,-1.7582,-1.7582,-1.7582,-1.7582,-1.7582,-1.7582,-1.7582,-1.7582,-1.7582,-1.7582,-1.7582,-1.7582,0.0,0.0,0.0,0.0,0.0,0.0,0.0,0.0,0.0,0.0,0.0,0.0,0.0,0.0,0.0,0.0,0.0,0.0,0.0,0.0,0.0,0.0,0.0,-0.0337,-0.1049,-0.0997,-0.1652,-0.308,-0.3097,-0.3187,-0.3371,-0.2617,-0.242,-0.2707,-0.2691,-0.2839,-0.3101,-0.3101,-0.3108,-0.3118,-0.3118,0.0,0.0,0.0,0.0,0.0,0.0,0.0,0.0,0.0,0.0,0.0,0.0,0.0,-0.3604,-0.3604,-0.3604,-0.3662,-0.3914,-0.4089,-0.4287,-0.4589,-0.4784,-0.5026,-0.5394,-0.5491,-0.5538,-0.5715,-0.6685,-0.7285,-0.6475,-0.6961,0.0,0.0,0.0,0.0,0.0,0.0,0.0,0.0,0.0,0.0,0.0,0.0,0.0,0.0,0.0,0.0,0.0,0.0,0.0,0.0,0.0,-1.348,-1.3588,-1.4931,-1.6227,-1.7582,-1.7582,-1.7582,-1.7582,-1.7582,-1.7582,-1.7582,-1.7582,-1.7582,-1.7582,-1.7582,-1.7582,-1.7582,-1.7582,-1.7582,-1.7582,-1.7582,-1.7582,-1.7582,0.0,0.0,0.0,0.0,0.0,0.0,0.0,0.0,0.0,0.0,0.0,0.0,0.0,0.0,0.0,0.0,0.0,0.0,0.0,0.0,0.0,0.0,0.0,-0.0136,-0.0419,-0.0366,-0.0828,-0.1856,-0.2306,-0.2331,-0.1931,-0.1647,-0.1506,-0.1471,-0.1846,-0.222,-0.2551,-0.2857,-0.302,-0.3094,-0.3007,-0.2939,0.0,0.0,0.0,0.0,0.0,0.0,0.0,0.0,-0.3086,-0.3236,-0.3413,-0.3525,-0.3604,-0.3604,-0.3604,-0.3628,-0.3717,-0.4056,-0.4409,-0.4549,-0.4859,-0.5231,-0.5555,-0.5887,-0.6177,-0.6441,-0.6905,-0.7178,-0.6849,0.0,0.0,0.0,0.0,0.0,0.0,0.0,0.0,0.0,0.0,0.0,0.0,0.0,0.0,0.0,0.0,0.0,0.0,0.0,0.0,0.0,0.0,-1.2116,-1.296,-1.3534,-1.4054,-1.4637,-1.6657,-1.7582,-1.7582,-1.7582,-1.7582,-1.7582,-1.7582,-1.7534,-1.738,-1.7508,-1.7475,-1.738,-1.7508,-1.7582,-1.7582,-1.7582,-1.7582,-1.7582,0.0,0.0,0.0,0.0,0.0,0.0,0.0,0.0,0.0,0.0,0.0,0.0,0.0,0.0,0.0,0.0,0.0,0.0,0.0,0.0,0.0,0.0,0.0,0.0,0.0,0.0,-0.0362,-0.1104,-0.1608,-0.1582,-0.1103,-0.0854,-0.0722,-0.0714,-0.1134,-0.1545,-0.1951,-0.2408,-0.2664,-0.275,-0.2821,-0.2839,0.0,0.0,0.0,0.0,0.0,0.0,0.0,0.0,-0.2956,-0.3071,-0.329,-0.3422,-0.3517,-0.3587,-0.3634,-0.3668,-0.3668,-0.4037,-0.4416,-0.4539,-0.4982,-0.5511,-0.5911,-0.6288,-0.6644,-0.6997,-0.7146,-0.7227,-0.723,0.0,0.0,0.0,0.0,0.0,0.0,0.0,0.0,0.0,0.0,0.0,0.0,0.0,0.0,0.0,0.0,0.0,0.0,0.0,0.0,0.0,0.0,-1.0647,-1.2037,-1.25,-1.2756,-1.2761,-1.5427,-1.6502,-1.6085,-1.6502,-1.6717,-1.6717,-1.7146,-1.7194,-1.7072,-1.7228,-1.7188,-1.7079,-1.7228,-1.7308,-1.7308,-1.7308,-1.7308,-1.7308,0.0,0.0,0.0,0.0,0.0,0.0,0.0,0.0,0.0,0.0,0.0,0.0,0.0,0.0,0.0,0.0,0.0,0.0,0.0,0.0,0.0,0.0,0.0,0.0,0.0,0.0,-0.0366,-0.1095,-0.1089,-0.1087,-0.107,-0.0334,-0.0257,-0.0692,-0.0706,-0.0923,-0.1334,-0.1798,-0.201,-0.2054,-0.2517,-0.2699,-0.2699,0.0,0.0,0.0,0.0,0.0,0.0,0.0,-0.2907,-0.2943,-0.3212,-0.3306,-0.334,-0.3534,-0.3706,-0.3792,-0.3792,-0.3994,-0.4297,-0.4623,-0.5068,-0.56,-0.6347,-0.6597,-0.6834,-0.733,-0.7422,-0.7421,-0.7573,-0.76,0.0,0.0,0.0,0.0,0.0,0.0,0.0,0.0,0.0,0.0,0.0,0.0,0.0,0.0,0.0,0.0,0.0,0.0,0.0,0.0,0.0,0.0,-1.0383,-1.1822,-1.2536,-1.2587,-1.4021,-1.4078,-1.2864,-1.4185,-1.48,-1.4901,-1.6135,-1.6707,-1.67,-1.67,-1.67,-1.6707,-1.6707,-1.6707,-1.6707,-1.6707,-1.6707,-1.6707,0.0,0.0,0.0,0.0,0.0,0.0,0.0,0.0,0.0,0.0,0.0,0.0,0.0,0.0,0.0,0.0,0.0,0.0,0.0279,0.0109,0.0,0.0,0.0,0.0,0.0,0.0,-0.0105,-0.0334,-0.0329,-0.0324,-0.032,-0.0092,-0.0068,-0.0225,-0.0661,-0.0911,-0.1064,-0.1824,-0.2216,-0.2379,-0.2702,-0.2842,-0.2842,0.0,0.0,0.0,0.0,0.0,0.0,0.0,0.0,0.0,-0.3111,-0.3317,-0.352,-0.3587,-0.3754,-0.3927,-0.3822,-0.4246,-0.4736,-0.4921,-0.5501,-0.617,-0.6671,-0.6905,-0.7125,-0.7726,-0.7756,-0.7695,-0.774,0.0,0.0,0.0,0.0,0.0,0.0,0.0,0.0,0.0,0.0,0.0,0.0,0.0,0.0,0.0,0.0,0.0,0.0,0.0,0.0,0.0,0.0,0.0,-0.8718,-0.9164,-0.9365,-0.9361,-0.9808,-1.1496,-1.4236,-1.4642,-1.5311,-1.6135,-1.655,-1.6587,-1.64,-1.64,-1.652,-1.6707,-1.6707,-1.6707,-1.6707,-1.6707,-1.6707,-1.6707,0.0,0.0,0.0,0.0,0.0,0.0,0.0,0.0,0.0,0.0,0.1803,0.1729,0.0,0.0,0.0,0.1072,0.0657,0.0,0.0401,0.0152,0.0,0.0,0.0,0.0,0.0,0.0,0.0,0.0,0.0,0.0,0.0,0.0,0.0,-0.0024,-0.0386,-0.0541,-0.0595,-0.1301,-0.1808,-0.218,-0.2502,-0.2741,-0.2892,0.0,0.0,0.0,0.0,0.0,0.0,0.0,0.0,0.0,-0.2973,-0.3164,-0.3347,-0.3549,-0.3744,-0.3948,-0.4061,-0.448,-0.4965,-0.5285,-0.583,-0.6463,-0.7054,-0.7305,-0.7479,-0.7901,-0.787,-0.7831,-0.7889,0.0,0.0,0.0,0.0,0.0,0.0,0.0,0.0,0.0,0.0,0.0,0.0,0.0,0.0,0.0,0.0,0.0,0.0,0.0,0.0,0.0,0.0,0.0,-0.8775,-0.8775,-0.8775,-0.8775,-0.8775,-1.0207,-1.2886,-1.2886,-1.3291,-1.4094,-1.4547,-1.501,-1.5348,-1.5348,-1.5748,-1.6359,-1.6359,-1.6359,-1.6359,-1.6359,-1.6359,-1.6359,0.0,0.0,0.1803,0.1803,0.0,0.0,0.0,0.0,0.0,0.1803,0.1803,0.1803,0.0,0.0,0.0,0.1341,0.0814,0.0479,0.0479,0.0201,0.0036,0.0042,0.0014,0.0,0.0,0.0,0.0,0.0,0.0,0.0,0.0,0.0,0.0,0.0,0.0,0.0,-0.0023,-0.0494,-0.1051,-0.1628,-0.2032,-0.2483,-0.2892,-0.2892,0.0,0.0,0.0,0.0,0.0,0.0,0.0,0.0,-0.2862,-0.2899,-0.3012,-0.3436,-0.368,-0.3904,-0.4354,-0.4684,-0.5049,-0.5674,-0.6095,-0.6617,-0.7394,-0.7699,-0.7855,-0.7958,0.0,-0.7875,0.0,0.0,0.0,0.0,0.0,0.0,0.0,0.0,0.0,0.0,0.0,0.0,0.0,0.0,0.0,0.0,0.0,0.0,0.0,0.0,0.0,0.0,0.0,0.0,-0.9805,-0.9805,-0.9805,0.0,-0.9805,-0.9805,-0.9801,-0.9948,-1.0047,-1.0243,-1.1409,-1.2571,-1.3728,-1.3728,-1.4418,-1.5439,-1.5439,-1.5439,-1.5445,-1.5588,-1.5635,-1.5635,0.0,0.0,0.1803,0.1803,0.0,0.0,0.0,0.0,0.1803,0.1803,0.1803,0.1803,0.1803,0.1736,0.0,0.1692,0.1327,0.1105,0.1105,0.0614,0.0312,0.032,0.0108,0.0,0.0,0.0,0.0,0.0,0.0,0.0,0.0,0.0,0.0,0.0,0.0,0.0,-0.0041,-0.0502,-0.1046,-0.1641,-0.2037,-0.2483,-0.2892,-0.2892,-0.2815,0.0,0.0,0.0,0.0,0.0,0.0,0.0,-0.2862,-0.2966,-0.3098,-0.3293,-0.3647,-0.3994,-0.421,-0.4651,-0.5197,-0.5794,-0.6563,-0.7228,-0.7422,-0.7624,-0.7855,-0.7958,-0.7965,0.0,0.0,0.0,0.0,0.0,0.0,0.0,0.0,0.0,0.0,0.0,0.0,0.0,0.0,0.0,0.0,0.0,0.0,0.0,0.0,0.0,0.0,0.0,0.0,-0.8137,-0.8432,-0.8432,-0.8432,0.0,-0.8432,-0.8432,-0.8482,-0.9509,-1.0534,-1.1507,-1.1799,-1.2042,-1.2334,-1.2334,-1.2479,-1.2721,-1.2721,-1.2721,-1.2866,-1.3926,-1.4316,-1.4459,0.0,0.0,0.0,0.0,0.0,0.0,0.0,0.0,0.1803,0.1803,0.1803,0.1803,0.1803,0.1803,0.0,0.0,0.1372,0.1105,0.1105,0.0548,0.0205,0.0209,0.0079,0.0,0.0,0.0,0.0,0.0,0.0,0.0,0.0,0.0,0.0,0.0,0.0,0.0,-0.0021,-0.0253,-0.0707,-0.1288,-0.1485,-0.1868,-0.2306,-0.2486,-0.2478,-0.2397,-0.2613,0.0,0.0,0.0,0.0,0.0,0.0,0.0,-0.2954,-0.3155,-0.3489,-0.3873,-0.4117,-0.4705,-0.542,-0.6162,-0.6865,-0.7415,-0.7415,-0.7546,-0.7733,-0.7814,0.0,0.0,0.0,0.0,0.0,0.0,0.0,0.0,0.0,0.0,0.0,0.0,0.0,0.0,0.0,0.0,0.0,0.0,0.0,0.0,0.0,0.0,0.0,0.0,-0.7988,-0.7988,-0.7988,-0.7988,-0.7988,-0.7988,-0.7988,-0.7988,-0.8038,-0.8726,-0.941,-1.0047,-1.0047,-1.0386,-1.0974,-1.0974,-1.1361,-1.1896,-1.1896,-1.1896,-1.1994,-1.2668,-1.2958,-1.3054,0.0,0.0,0.0,0.0,0.0,0.0,0.0,0.0,0.0,0.1803,0.1803,0.1803,0.1803,0.1803,0.1781,0.0,0.0,0.0,0.0903,0.0374,0.0049,0.0,0.0,0.0,0.0,0.0,0.0,0.0,0.0,0.0,0.0,0.0,0.0,0.0,0.0,0.0,0.0,0.0,-0.0339,-0.0859,-0.0859,-0.1146,-0.1576,-0.1913,-0.1967,-0.1928,-0.2311,-0.246,-0.2477,-0.2547,0.0,0.0,0.0,0.0,-0.2751,-0.2986,-0.33,-0.3626,-0.4001,-0.4735,-0.5607,-0.6444,-0.698,-0.7302,-0.7326,-0.7451,-0.756,-0.756,0.0,0.0,0.0,0.0,0.0,0.0,0.0,0.0,0.0,0.0,0.0,0.0,0.0,0.0,0.0,0.0,0.0,0.0,0.0,0.0,0.0,0.0,-0.7988,-0.7988,-0.7988,-0.7988,-0.7988,-0.7988,-0.7988,-0.7988,-0.7988,-0.7988,-0.7988,-0.7988,-0.7988,-0.7988,-0.7988,-0.8627,-0.9657,-0.9657,-1.0288,-1.1214,-1.1214,-1.1214,-1.1263,-1.1512,-1.156,-1.1604,0.0,0.0,0.0,0.0,0.0,0.0,0.0,0.0,0.0,0.0,0.1803,0.1803,0.1803,0.1803,0.1681,0.1396,0.1296,0.1152,0.0914,0.0,0.0,0.0014,0.0,0.0,0.0,0.0,0.0,0.0,0.0,0.0,0.0,0.0,0.0,0.0,0.0,0.0,0.0,0.0,-0.0286,-0.0731,-0.0731,-0.0967,-0.1353,-0.1404,-0.1414,-0.1406,-0.1471,-0.149,-0.1557,-0.1961,-0.2097,0.0,0.0,0.0,0.0,-0.2886,-0.3128,-0.3401,-0.3615,-0.4525,-0.5579,-0.6351,-0.6746,-0.6977,-0.7098,0.0,-0.7446,0.0,0.0,0.0,0.0,0.0,0.0,0.0,0.0,0.0,0.0,0.0,0.0,0.0,0.0,0.0,0.0,0.0,0.0,0.0,0.0,0.0,0.0,-0.7988,-0.7988,-0.7988,-0.7988,-0.7988,-0.7988,-0.7988,-0.7988,-0.7988,-0.7988,-0.7988,-0.7988,-0.7988,-0.7988,-0.7988,-0.7988,-0.8088,-0.8283,-0.8283,-0.8382,-0.8531,-0.8531,-0.8531,-0.8676,-0.9801,-1.0243,-1.0386,0.0,0.0,0.0,0.0,0.0,0.0,0.0,0.0,0.0,0.0,0.0,0.1803,0.1803,0.1626,0.1463,0.131,0.0994,0.068,0.0414,0.0254,0.0128,0.0,0.0,0.0,0.0,0.0,0.0,0.0,0.0,0.0,0.0,0.0,0.0,0.0,0.0,0.0,0.0,0.0,-0.0126,-0.0316,-0.0306,-0.0408,-0.0607,-0.0869,-0.0958,-0.1001,-0.1211,-0.1305,-0.1338,-0.154,-0.1829,-0.2128,-0.2267,0.0,0.0,0.0,-0.2973,-0.3344,-0.4022,-0.4707,-0.5413,-0.6204,-0.6515,-0.6732,-0.6923,-0.7075,0.0,0.0,0.0,0.0,0.0,0.0,0.0,0.0,0.0,0.0,0.0,0.0,0.0,0.0,0.0,0.0,0.0,0.0,0.0,0.0,0.0,0.0,-0.7988,-0.7988,-0.7988,-0.7988,-0.7988,-0.7988,-0.7988,-0.7988,-0.7988,-0.7988,-0.7988,-0.7988,-0.7988,-0.7988,-0.7988,-0.7988,-0.7988,-0.7988,-0.7988,-0.7988,-0.7988,-0.7988,-0.7988,-0.7988,-0.8088,-0.8676,-0.8874,-0.897,0.0,0.0,0.0,0.0,0.0,0.0,0.0,0.0,0.0,0.0,0.0,0.1803,0.1803,0.0,0.0,0.0,0.0713,0.029,0.0022,0.0,0.0,0.0,0.0,0.0,0.0,0.0,0.0,0.0,0.0,0.0,0.0,0.0,0.0,0.0,0.0,0.0,0.0,0.0,0.0,0.0,0.0,0.0,-0.0042,-0.0392,-0.0526,-0.0564,-0.0861,-0.0964,-0.0995,-0.1109,-0.1455,-0.1819,0.0,0.0,0.0,0.0,0.0,-0.3222,-0.4195,-0.465,-0.4999,-0.5786,-0.6177,-0.6383,0.0,0.0,0.0,0.0,0.0,0.0,0.0,0.0,0.0,0.0,0.0,0.0,0.0,0.0,0.0,0.0,0.0,0.0,0.0,0.0,0.0,0.0,0.0,0.0,-0.7931,-0.7968,-0.7988,-0.7988,-0.7988,-0.7988,-0.7988,-0.7988,-0.7988,-0.7988,-0.7988,-0.7988,-0.7988,-0.7988,-0.7988,-0.7988,-0.7988,-0.7988,-0.7988,-0.7988,-0.7988,-0.7988,-0.7988,-0.7988,-0.7988,-0.7988,-0.7988,-0.7988,0.0,0.0,0.0,0.0,0.0,0.0,0.0,0.0,0.0,0.0,0.0,0.1803,0.1803,0.1496,0.1196,0.0948,0.0601,0.029,0.0022,0.0,0.0,0.0,0.0,0.0,0.0,0.0,0.0,0.0,0.0,0.0,0.0,0.0,0.0,0.0,0.0,0.0,0.0,0.0,0.0,0.0,0.0,0.0,0.0,-0.0024,-0.0025,-0.005,-0.0069,-0.0066,0.0,0.0,0.0,0.0,0.0,-0.1364,-0.1462,0.0,0.0,0.0,-0.3632,-0.3955,-0.423,-0.4972,-0.5515,-0.5915,0.0,0.0,0.0,0.0,0.0,0.0,0.0,0.0,0.0,0.0,0.0,0.0,0.0,0.0,0.0,0.0,0.0,0.0,0.0,0.0,0.0,0.0,0.0,0.0,-0.7824,-0.7911,-0.7988,-0.7988,-0.7988,-0.7988,-0.7988,-0.7988,-0.7988,-0.7988,-0.7988,-0.7988,-0.7988,-0.7988,-0.7988,-0.7988,-0.7988,-0.7988,-0.7988,-0.7988,-0.7988,-0.7988,-0.7988,-0.7988,-0.7988,-0.7988,-0.7988,-0.7988,0.0,0.0,0.0,0.0,0.0,0.0,0.0,0.0,0.0,0.0,0.0,0.0,0.0,0.1496,0.1263,0.1163,0.0892,0.0591,0.0279,0.0257,0.0,0.0,0.0,0.0,0.0,0.0,0.0,0.0,0.0,0.0,0.0,0.0,0.0,0.0,0.0,0.0,0.0,0.0,0.0,0.0,0.0,0.0,0.0,0.0,0.0,0.0,0.0,0.0,0.0,0.0,0.0,0.0,-0.0893,-0.1186,-0.1502,-0.1539,-0.2041,-0.2646,-0.3007,-0.3548,-0.4129,-0.4711,-0.5111,-0.5474,-0.5874,0.0,0.0,0.0,0.0,0.0,0.0,0.0,0.0,0.0,0.0,0.0,0.0,0.0,0.0,0.0,0.0,0.0,0.0,0.0,0.0,0.0,0.0,0.0,-0.7675,-0.7729,-0.7756,-0.7756,-0.7756,-0.7801,-0.7892,-0.7941,-0.7988,-0.7988,-0.7988,-0.7988,-0.7988,-0.7988,-0.7988,-0.7988,-0.7988,-0.7988,-0.7988,-0.7988,-0.7988,-0.7988,-0.7988,-0.7988,-0.7988,-0.7988,-0.7988,-0.7988,0.0,0.0,0.0,0.1803,0.0,0.1803,0.1803,0.1803,0.1803,0.1803,0.0,0.0,0.0,0.0,0.1402,0.1251,0.1072,0.085,0.058,0.0568,0.0,0.0,0.0134,0.009,0.0,0.0,0.0,0.0,0.0,0.0,0.0,0.0,0.0,0.0,0.0,0.0,0.0,0.0,0.0,0.0,0.0,0.0,0.0,0.0,0.0,0.0,0.0,0.0,0.0,0.0,0.0,0.0,-0.0486,-0.0845,-0.1269,-0.113,-0.1571,-0.2133,-0.2282,-0.2792,-0.3338,0.0,0.0,-0.4628,0.0,0.0,0.0,0.0,0.0,0.0,0.0,0.0,0.0,0.0,0.0,0.0,0.0,0.0,0.0,0.0,0.0,0.0,0.0,0.0,0.0,0.0,0.0,0.0,-0.7522,-0.757,-0.76,-0.76,-0.76,-0.7645,-0.774,-0.7841,-0.7843,-0.7843,-0.7843,-0.7867,-0.7914,-0.7914,-0.7941,-0.7988,-0.7988,-0.7988,-0.7988,-0.7988,-0.7988,-0.7988,-0.7988,-0.7988,-0.7988,-0.7988,-0.7988,-0.7988,0.1803,0.1803,0.1806,0.1809,0.1809,0.1813,0.1816,0.1805,0.1805,0.1805,0.0,0.0,0.0,0.0,0.0,0.1185,0.1137,0.1076,0.0934,0.0916,0.0758,0.0434,0.0412,0.029,0.0023,0.0011,0.0011,0.0,0.0,0.0,0.0,0.0,0.0,0.0,0.0,0.0,0.0,0.0,0.0,0.0,0.0,0.0,0.0,0.0,0.0,0.0,0.0,0.0,0.0,0.0,0.0,0.0,0.0,-0.0319,-0.0677,-0.0676,-0.0965,-0.1333,0.0,0.0,0.0,0.0,0.0,0.0,0.0,0.0,0.0,0.0,0.0,0.0,0.0,0.0,0.0,0.0,0.0,0.0,0.0,0.0,0.0,0.0,0.0,0.0,0.0,0.0,0.0,0.0,0.0,-0.7409,-0.7409,-0.7506,-0.7587,-0.7587,-0.759,-0.7594,-0.7594,-0.7597,-0.76,-0.76,-0.76,-0.7672,-0.7804,-0.7804,-0.7889,-0.7982,-0.7982,-0.7985,-0.7988,-0.7988,-0.7988,-0.7988,-0.7988,-0.7988,-0.7988,-0.7988,-0.7988,-0.7988,0.1803,0.1803,0.1829,0.1926,0.1947,0.1972,0.208,0.2087,0.2087,0.0,0.0,0.0,0.2147,0.2246,0.2257,0.2131,0.1983,0.1753,0.1429,0.127,0.1061,0.077,0.0758,0.0608,0.0292,0.0288,0.0196,0.0,0.0,0.0,0.0,0.0,0.0,0.0,0.0,0.0,0.0,0.0,0.0,0.0,0.0,0.0,0.0,0.0,0.0,0.0,0.0,0.0,0.0,0.0,0.0,0.0,0.0,-0.0085,-0.0197,-0.0191,-0.0579,-0.1004,-0.0957,0.0,0.0,0.0,0.0,0.0,0.0,0.0,0.0,0.0,0.0,0.0,0.0,0.0,0.0,0.0,0.0,0.0,0.0,0.0,0.0,0.0,0.0,0.0,0.0,0.0,0.0,0.0,-0.7204,-0.7204,-0.7204,-0.72,-0.7223,-0.7223,-0.7377,-0.7434,-0.7434,-0.7543,-0.76,-0.76,-0.76,-0.7621,-0.7658,-0.7658,-0.7736,-0.7875,-0.7875,-0.7887,-0.7988,-0.7988,-0.7988,-0.7988,-0.7988,-0.7988,-0.7988,-0.7988,-0.7988,-0.7988,0.1887,0.193,0.1985,0.2076,0.2154,0.2239,0.2313,0.2327,0.235,0.0,0.0,0.0,0.2559,0.2737,0.2768,0.2596,0.2469,0.2232,0.1796,0.1664,0.1435,0.1085,0.1152,0.103,0.0702,0.0583,0.0447,0.029,0.0101,0.0,0.0,0.0,0.0,0.0,0.0,0.0,0.0,0.0,0.0,0.0,0.0,0.0,0.0,0.0,0.0,0.0,0.0,0.0,0.0,0.0,0.0,0.0,0.0,0.0,0.0,0.0,-0.024,-0.0499,-0.0424,-0.0712,-0.1049,0.0,0.0,0.0,0.0,0.0,0.0,0.0,0.0,0.0,0.0,0.0,0.0,0.0,0.0,0.0,0.0,0.0,0.0,0.0,0.0,0.0,0.0,0.0,0.0,0.0,-0.7061,-0.7095,-0.7095,-0.7095,-0.7095,-0.7095,-0.7227,-0.7275,-0.7275,-0.7363,-0.7407,-0.7407,-0.7407,-0.7441,-0.7506,-0.7506,-0.7584,-0.7723,-0.7723,-0.7807,-0.7894,-0.7894,-0.7931,-0.7988,-0.7988,-0.7988,-0.7988,-0.7988,-0.7988,-0.7988,0.0,0.2117,0.2207,0.2254,0.2409,0.2536,0.2567,0.2574,0.2613,0.0,0.2788,0.2904,0.3145,0.3259,0.3195,0.2832,0.2754,0.2546,0.2113,0.2026,0.1824,0.1416,0.1555,0.1504,0.1186,0.0938,0.08,0.075,0.0292,0.0061,0.0045,0.0012,0.0,0.0,0.0,0.0,0.0,0.0,0.0,0.0,0.0,0.0,0.0,0.0,0.0,0.0,0.0,0.0,0.0,0.0,0.0,0.0,0.0,0.0,0.0,0.0,0.0,0.0,0.0,0.0,0.0,0.0,0.0,0.0,-0.1873,-0.2587,0.0,0.0,0.0,0.0,0.0,0.0,0.0,0.0,0.0,0.0,0.0,0.0,0.0,0.0,0.0,0.0,0.0,0.0,-0.6862,-0.6862,-0.6977,-0.7048,-0.7048,-0.7061,-0.7071,-0.7071,-0.7088,-0.7095,-0.7095,-0.7095,-0.7095,-0.7095,-0.7095,-0.7214,-0.7346,-0.7346,-0.7428,-0.7577,-0.7577,-0.7655,-0.7787,-0.7804,-0.7899,-0.7988,-0.7988,-0.7988,-0.7988,-0.7988,-0.7988,-0.7988,0.2167,0.2177,0.2284,0.2554,0.2634,0.2733,0.2954,0.2991,0.3027,0.3159,0.3327,0.3491,0.3643,0.3585,0.35,0.3433,0.3073,0.2774,0.258,0.2211,0.2014,0.2027,0.1957,0.1844,0.1669,0.1609,0.14,0.1016,0.0712,0.0483,0.0313,0.0103,0.0,0.0,0.0,0.0,0.0,0.0,0.0,0.0,0.0,0.0,0.0,0.0,0.0,0.0,0.0,0.0,0.0,0.0,0.0,0.0,0.0,0.0,0.0,0.0,0.0,0.0,0.0,0.0,0.0,0.0,0.0,0.0,0.0,-0.1338,0.0,0.0,0.0,0.0,0.0,0.0,0.0,0.0,0.0,0.0,0.0,0.0,0.0,0.0,0.0,0.0,0.0,0.0,-0.6746,-0.6746,-0.677,-0.6787,-0.6787,-0.6859,-0.6927,-0.6927,-0.7038,-0.7095,-0.7095,-0.7095,-0.7095,-0.7095,-0.7095,-0.7112,-0.7139,-0.7139,-0.7268,-0.746,-0.746,-0.7502,-0.7648,-0.7763,-0.7899,-0.7988,-0.7988,-0.7988,-0.7988,-0.7988,-0.7988,-0.7988,0.2347,0.2408,0.253,0.2757,0.2852,0.3002,0.3303,0.3351,0.3429,0.363,0.3792,0.391,0.3907,0.391,0.3822,0.3621,0.3395,0.3083,0.2723,0.2484,0.2299,0.22,0.2235,0.2214,0.2145,0.1762,0.1434,0.1202,0.0632,0.0295,0.0202,0.006,0.0,0.0,0.0,0.0,0.0,0.0,0.0,0.0,0.0,0.0,0.0,0.0,0.0,0.0,0.0,0.0,0.0,0.0,0.0,0.0,0.0,0.0,0.0,0.0,0.0,0.0,0.0,0.0,0.0,0.0,0.0,0.0,0.0,0.0,0.0,0.0,0.0,0.0,0.0,0.0,0.0,0.0,0.0,0.0,0.0,0.0,0.0,0.0,0.0,0.0,0.0,0.0,-0.6542,-0.6688,-0.6702,-0.6702,-0.6702,-0.6773,-0.6814,-0.6814,-0.6885,-0.6913,-0.6991,-0.6991,-0.7024,-0.7095,-0.7095,-0.7095,-0.7095,-0.7095,-0.7139,-0.7255,-0.7255,-0.7343,-0.7492,-0.7563,-0.7682,-0.7834,-0.7931,-0.7988,-0.7988,-0.7988,-0.7988,-0.7988,0.2543,0.263,0.2744,0.2883,0.301,0.3195,0.3515,0.3583,0.3687,0.3957,0.4176,0.426,0.4136,0.4206,0.4142,0.3863,0.3726,0.3447,0.2986,0.2822,0.2642,0.2413,0.2467,0.2539,0.2609,0.1932,0.156,0.1531,0.0664,0.023,0.0215,0.0063,0.0,0.0,0.0,0.0,0.0,0.0,0.0,0.0,0.0,0.0,0.0,0.0,0.0,0.0,0.0,0.0,0.0,0.0,0.0,0.0,0.0,0.0,0.0,0.0,0.0,0.0,0.0,0.0,0.0,0.0,0.0,-0.0169,0.0,0.0,0.0,-0.1668,0.0,0.0,0.0,0.0,0.0,0.0,0.0,0.0,0.0,0.0,0.0,0.0,0.0,0.0,0.0,0.0,-0.6248,-0.6505,-0.6502,-0.6512,-0.6569,-0.6624,-0.6658,-0.6658,-0.6685,-0.6759,-0.6839,-0.6873,-0.6943,-0.7055,-0.7085,-0.7095,-0.7095,-0.7095,-0.7095,-0.7095,-0.7095,-0.721,-0.7329,-0.7405,-0.7444,-0.7587,-0.7882,-0.7944,-0.7948,-0.7978,-0.7988,-0.7988,0.2672,0.2686,0.2744,0.2883,0.301,0.3178,0.3392,0.3515,0.3687,0.3957,0.4382,0.4633,0.4616,0.4539,0.4556,0.4748,0.4155,0.3795,0.3839,0.3249,0.2966,0.3172,0.2744,0.2671,0.3017,0.2718,0.2489,0.2358,0.1552,0.1091,0.0956,0.0303,0.0,0.0,0.0,0.0,0.0,0.0,0.0,0.0,0.0,0.0,0.0,0.0,0.0,0.0,0.0,0.0,0.0,0.0,0.0,0.0,0.0,0.0,0.0,0.0,0.0,0.0,0.0,0.0,0.0,0.0,0.0,0.0,0.0,0.0,-0.0137,-0.0234,0.0,0.0,0.0,0.0,0.0,0.0,0.0,0.0,0.0,0.0,0.0,0.0,0.0,0.0,0.0,0.0,0.0,-0.5881,-0.5786,-0.583,-0.6054,-0.6356,-0.6538,-0.6538,-0.663,-0.6709,-0.6725,-0.6861,-0.6896,-0.691,-0.7038,-0.7095,-0.7095,-0.7095,-0.7095,-0.7095,-0.7095,-0.7105,-0.7132,-0.7316,-0.7429,-0.7473,-0.7723,-0.7838,-0.7851,-0.7941,-0.7988,-0.7988,0.2696,0.2696,0.2744,0.2883,0.301,0.3209,0.358,0.4033,0.4368,0.4406,0.465,0.4853,0.4938,0.4816,0.4779,0.4877,0.0,0.4324,0.0,0.0,0.3512,0.3487,0.3154,0.3,0.3101,0.264,0.2341,0.2216,0.1596,0.1264,0.1204,0.0653,0.0405,0.0398,0.0116,0.0,0.0,0.0,0.0,0.0,0.0,0.0,0.0,0.0,0.0,0.0,0.0,0.0,0.0,0.0,0.0,0.0,0.0,0.0,0.0,0.0,0.0,0.0,0.0,0.0,0.0,0.0,0.0,0.0,0.0,0.0,0.0,0.0,0.0,0.0,0.0,0.0,0.0,0.0,0.0,0.0,0.0,0.0,0.0,0.0,0.0,0.0,0.0,0.0,0.0,0.0,0.0,-0.5586,-0.5881,-0.6098,-0.6257,-0.6385,-0.6453,-0.6525,-0.6566,-0.663,-0.6412,-0.5838,-0.5933,-0.5643,-0.5082,-0.5082,-0.5082,-0.5082,-0.5082,-0.5082,-0.5132,-0.5902,-0.6242,-0.6307,-0.724,-0.7611,-0.7695,-0.776,-0.7834,-0.7909,0.2761,0.2727,0.2744,0.2883,0.301,0.3253,0.3724,0.4328,0.4682,0.4636,0.4799,0.4958,0.5172,0.5104,0.0,0.0,0.5111,0.4853,0.0,0.0,0.4046,0.3853,0.3558,0.0,0.3286,0.273,0.2382,0.2247,0.1738,0.1515,0.1538,0.1083,0.0889,0.093,0.0421,0.0192,0.017,0.0,0.0,0.0,0.0,0.0,0.0,0.0,0.0,0.0,0.0,0.0,0.0,0.0,0.0,0.0,0.0,0.0,0.0,0.0,0.0,0.0,0.0,0.0,0.0,0.0,0.0,0.0,0.0,0.0,0.0,0.0,0.0,0.0,0.0,0.0,0.0,0.0,0.0,0.0,0.0,0.0,0.0,0.0,0.0,0.0,0.0,0.0,0.0,0.0,0.0,0.0,-0.5661,-0.5864,-0.6037,-0.6193,-0.6279,-0.6351,-0.6453,-0.6494,-0.6169,-0.5476,-0.5212,-0.4722,-0.3982,-0.3717,-0.3595,-0.3614,-0.3614,-0.3614,-0.3659,-0.4552,-0.491,-0.5008,-0.5992,-0.6636,-0.7065,-0.7473,-0.7665,-0.7756,0.2903,0.2781,0.2744,0.2883,0.301,0.3253,0.3724,0.4038,0.4291,0.4477,0.0,0.0,0.0,0.0,0.0,0.0,0.0,0.5371,0.5351,0.0,0.447,0.446,0.3904,0.3658,0.0,0.3317,0.3008,0.2864,0.2263,0.2041,0.2161,0.1558,0.1391,0.1542,0.095,0.068,0.064,0.0204,0.0,0.0,0.0,0.0,0.0,0.0,0.0,0.0,0.0,0.0,0.0,0.0,0.0,0.0,0.0,0.0,0.0,0.0,0.0,0.0,0.0,0.0,0.0,0.0,0.0,0.0,0.0,0.0,0.0,0.0,0.0,0.0,0.0,0.0,0.0,0.0,-0.0025,0.0,0.0,0.0,0.0,0.0,0.0,0.0,0.0,0.0,0.0,0.0,0.0,0.0,-0.5378,-0.565,-0.5878,-0.5993,-0.6183,-0.6303,-0.6306,-0.6443,-0.6478,-0.6448,-0.555,-0.5081,-0.5018,-0.4029,-0.3592,-0.3614,-0.3614,-0.3614,-0.3614,-0.3659,-0.3659,-0.3659,-0.3707,-0.4425,-0.562,-0.7068,-0.7604,-0.7628,0.3159,0.3118,0.3087,0.3037,0.3135,0.3413,0.3984,0.4405,0.4786,0.0,0.0,0.0,0.0,0.605,0.6095,0.0,0.0,0.6006,0.5671,0.5405,0.0,0.0,0.0,0.4317,0.0,0.0,0.3548,0.3241,0.2981,0.2832,0.2781,0.2181,0.2,0.2182,0.1666,0.1537,0.0,0.0,0.0,0.0,0.0,0.1649,0.0978,0.0,0.0,0.0,0.0,0.0,0.0,0.0,0.0,0.0,0.0,0.0,0.0,0.0,0.0,0.0,0.0,0.0,0.0,0.0,0.0,0.0,0.0,0.0,0.0,0.0,0.0,0.0,0.0,0.0,0.0,0.0,0.0,0.0,0.0,0.0,0.0,0.0,0.0,0.0,0.0,0.0,0.0,0.0,0.0,0.0,0.0,-0.5162,-0.5671,-0.5983,-0.6081,-0.5809,-0.5234,-0.5277,-0.4622,-0.3239,-0.2939,-0.2406,-0.1698,-0.138,-0.122,-0.1229,-0.1202,-0.121,-0.1299,-0.2057,-0.2858,-0.3659,-0.4463,-0.5489,-0.6482,-0.6217,-0.6718,-0.7485,0.3475,0.3485,0.3438,0.331,0.3475,0.3768,0.423,0.0,0.0,0.0,0.5681,0.0,0.646,0.0,0.6433,0.0,0.6552,0.6363,0.5911,0.585,0.0,0.5409,0.5167,0.0,0.0,0.0,0.0,0.355,0.3381,0.3256,0.3159,0.2722,0.2609,0.2756,0.2319,0.2236,0.2448,0.0,0.2787,0.0,0.0,0.217,0.0,0.0,0.0,0.0,0.0,0.0,0.0,0.0,0.0,0.0,0.0,0.0,0.0,0.0,0.0,0.0,0.0,0.0,0.0,0.0,0.0,0.0,0.0,0.0,0.0,0.0,0.0,0.0,0.0,0.0,0.0,0.0,0.0,0.0,0.0,0.0,0.0,0.0,0.0,0.0,0.0,0.0,-0.2175,-0.183,0.0,0.0,0.0,0.0,-0.4572,-0.4904,-0.4927,-0.4687,-0.4139,-0.4139,-0.3465,-0.2123,-0.1764,-0.1219,-0.0541,-0.017,0.0,0.0,0.0,0.0,-0.0045,-0.0852,-0.1612,-0.2458,-0.3662,-0.4819,-0.5888,-0.598,-0.6607,-0.7453,0.3778,0.3816,0.0,0.0,0.3947,0.0,0.0,0.0,0.545,0.0,0.5874,0.6166,0.6511,0.6545,0.6563,0.6709,0.6722,0.0,0.6064,0.6207,0.0,0.0,0.5579,0.5413,0.4951,0.0,0.0,0.0,0.3509,0.3336,0.3326,0.3185,0.3195,0.3288,0.2928,0.0,0.2984,0.2863,0.2902,0.2996,0.2151,0.1802,0.1645,0.0549,0.0118,0.0079,0.0,0.0,0.0,0.0,0.0,0.0,0.0,0.0,0.0,0.0,0.0,0.0,0.0,0.0,0.0,0.0,0.0,0.0,0.0,0.0,0.0,0.0,0.0,0.0,0.0,0.0,0.0,0.0,0.0,0.0,0.0,0.0,0.0,0.0,0.0,0.0,0.0,0.0,-0.0958,-0.1044,-0.1647,0.0,0.0,0.0,-0.2758,-0.2891,-0.301,-0.3087,-0.3044,-0.3007,-0.3007,-0.2929,-0.1996,-0.1507,-0.1501,-0.0457,0.0,0.0,0.0,0.0,0.0,0.0,-0.0045,-0.0225,-0.1344,-0.2547,-0.3881,-0.6245,-0.7189,-0.7338,0.395,0.4138,0.4307,0.0,0.4243,0.4348,0.0,0.0,0.0,0.0,0.6286,0.6515,0.6922,0.6923,0.694,0.698,0.6984,0.0,0.0,0.0,0.0,0.6363,0.6074,0.5824,0.5713,0.5194,0.0,0.446,0.0,0.3765,0.3673,0.3433,0.3395,0.3527,0.3523,0.3742,0.4106,0.4375,0.4767,0.5201,0.5136,0.4613,0.0,0.0,0.1839,0.1097,0.0275,0.0,0.0,0.0,0.0,0.0,0.0,0.0,0.0,0.0,0.0,0.0,0.0,0.0,0.0,0.0,0.0,0.0,0.0,0.0,0.0,0.0,0.0,0.0,0.0,0.0,0.0,0.0,0.0,0.0,0.0,0.0,0.0,0.0,0.0,0.0,0.0,-0.064,-0.0836,-0.0324,-0.145,-0.1984,0.0,0.0,0.0,-0.2887,-0.292,-0.2622,-0.1995,-0.1996,-0.1566,-0.0784,-0.0549,-0.0394,-0.0396,-0.0122,0.0,0.0,0.0,0.0,0.0,0.0,-0.0539,-0.1389,-0.17,-0.2547,-0.3881,-0.6245,-0.6583,-0.6065,0.4775,0.0,0.0,0.4887,0.0,0.0,0.5182,0.0,0.0,0.6224,0.648,0.0,0.6919,0.7018,0.7095,0.7095,0.7095,0.0,0.6844,0.0,0.0,0.661,0.6488,0.6293,0.6135,0.5667,0.0,0.4792,0.0,0.3984,0.3785,0.358,0.3518,0.361,0.3799,0.407,0.4412,0.5057,0.5568,0.5969,0.5691,0.0,0.0,0.3513,0.2793,0.2223,0.1102,0.0392,0.0,0.0,0.0,0.0,0.0,0.0,0.0,0.0,0.0,0.0,0.0,0.0,0.0,0.0,0.0,0.0,0.0,0.0,0.0,0.0,0.0,0.0,0.0,0.0,0.0,0.0,0.0,0.0,0.0,0.0,0.0,0.0,0.0,0.0,0.0,-0.0365,-0.0452,-0.0023,-0.0761,-0.109,0.0,0.0,0.0,-0.1615,-0.163,-0.1408,-0.0887,-0.0897,-0.0588,0.0,0.0,0.0,0.0,0.0,0.0,0.0,0.0,0.0,0.0,0.0,-0.0404,-0.1076,-0.1612,-0.2236,-0.3081,-0.5489,-0.5938,-0.561,0.5637,0.0,0.0,0.0,0.0,0.0,0.0,0.584,0.0,0.6375,0.0,0.6817,0.6817,0.7048,0.7156,0.7156,0.0,0.7038,0.6807,0.7027,0.6987,0.6576,0.6797,0.6746,0.6395,0.5989,0.0,0.0,0.0,0.4078,0.3819,0.3679,0.3614,0.3645,0.3897,0.0,0.0,0.524,0.5772,0.5958,0.5247,0.4953,0.4849,0.3783,0.3472,0.3487,0.2268,0.1145,0.0197,0.0039,0.0,0.0,0.0,0.0,0.0039,0.0157,0.0118,0.0039,0.0157,0.0118,0.0,0.0,0.0,0.0,0.0,0.0,0.0,0.0,0.0,0.0,0.0,0.0,0.0,0.0,0.0,0.0,0.0,0.0,0.0,0.0,0.0,0.0,0.0,0.0,0.0,0.0,0.0,0.0,0.0,0.0,0.0,0.0,0.0,0.0,0.0,0.0,0.0,0.0,0.0,0.0,0.0,0.0,0.0,0.0,0.0,0.0,0.0,0.0,0.0,-0.009,-0.1165,-0.1567,-0.1835,-0.4109,-0.4912,-0.5151,0.0,0.0,0.0,0.0,0.0,0.6293,0.6474,0.6529,0.6647,0.6903,0.7251,0.7441,0.7441,0.7489,0.7519,0.7519,0.7519,0.0,0.0,0.0,0.0,0.6991,0.692,0.6849,0.6814,0.6149,0.5694,0.0,0.4621,0.4132,0.395,0.3704,0.3665,0.3761,0.3941,0.0,0.4972,0.5416,0.0,0.623,0.6215,0.6263,0.6248,0.5166,0.4763,0.4653,0.3607,0.2496,0.1326,0.0316,0.0,0.0,0.0,0.0,0.0157,0.1058,0.0706,0.0196,0.1097,0.0667,0.0,0.0,0.0,0.0,0.0,0.0,0.0,0.0,0.0,0.0,0.0,0.0,0.0,0.0,0.0,0.0,0.0,0.0,0.0,0.0,0.0,0.0,0.0,0.0,0.0,0.0,0.0,0.0,0.0,0.0,0.0,0.0,0.0,0.0,0.0,0.0,0.0,0.0,0.0,0.0,0.0,0.0,0.0,0.0,0.0,0.0,0.0,0.0,0.0,0.0,-0.0225,-0.0314,-0.0494,-0.1924,-0.2415,-0.278,0.0,0.0,0.0,0.0,0.0,0.0,0.0,0.718,0.0,0.7109,0.7223,0.736,0.736,0.7506,0.76,0.76,0.76,0.7567,0.7495,0.7489,0.7421,0.7265,0.7193,0.0,0.6889,0.6417,0.5966,0.5589,0.4891,0.4372,0.3991,0.3792,0.375,0.3805,0.4111,0.4579,0.0,0.0,0.0,0.632,0.6542,0.6634,0.6657,0.6111,0.5984,0.5867,0.4789,0.4062,0.3467,0.2289,0.1462,0.0933,0.0921,0.0519,0.0199,0.1298,0.1215,0.1058,0.2112,0.1605,0.0824,0.0824,0.0392,0.0,0.0,0.0,0.0,0.0,0.0,0.0,0.0,0.0,0.0,0.0,0.0,0.0,0.0,0.0,0.0,0.0,0.0,0.0,0.0,0.0,0.0,0.0,0.0,0.0,0.0,0.0,0.0,0.0,0.0,0.0,0.0,0.0,0.0,0.0,0.0,0.0,0.0,0.0,0.0,0.0,0.0,0.0,0.0,0.0,0.0,0.0,0.0,0.0,-0.0135,-0.1344,-0.1388,-0.1212,0.0,0.6446,0.0,0.0,0.6929,0.0,0.7383,0.7672,0.7733,0.7331,0.7284,0.7284,0.7284,0.7546,0.7692,0.7692,0.7692,0.7678,0.7648,0.7645,0.7577,0.7424,0.7421,0.7295,0.7027,0.6725,0.6295,0.0,0.0,0.0,0.4132,0.3941,0.389,0.4002,0.4447,0.0,0.0,0.0,0.6064,0.6463,0.6654,0.6766,0.6793,0.6793,0.6868,0.6827,0.5848,0.5619,0.5602,0.4654,0.3376,0.2172,0.2175,0.1348,0.0571,0.1669,0.1776,0.1813,0.2817,0.254,0.1919,0.1919,0.1293,0.0666,0.0666,0.0666,0.0666,0.0666,0.0471,0.0348,0.0331,0.0141,0.0,0.0,0.0,0.0,0.0,0.0,0.0,0.0,0.0,0.0,0.0,0.0,0.0,0.0,0.0,0.0,0.0,0.0,0.0,0.0,0.0,0.0,0.0,0.0,0.0,0.0,0.0,0.0,0.0,0.0,0.0,0.0,0.0,0.0,0.0,0.0,0.0,0.0,0.0,0.0,-0.0135,-0.1076,-0.0807,-0.0269,0.0,0.0,0.0,0.0,0.0,0.0,0.0,0.7828,0.7951,0.7911,0.7904,0.7904,0.7904,0.7931,0.7948,0.7948,0.7948,0.7891,0.7801,0.779,0.7729,0.7584,0.758,0.7502,0.7378,0.7037,0.6661,0.0,0.0,0.0,0.0,0.4195,0.4216,0.4619,0.4931,0.0,0.0,0.5952,0.63,0.6825,0.6856,0.6943,0.7055,0.7055,0.7065,0.7075,0.697,0.6929,0.6939,0.6794,0.5276,0.3435,0.3427,0.259,0.183,0.2844,0.2423,0.1812,0.2829,0.3046,0.2968,0.2968,0.289,0.2812,0.2812,0.2812,0.2812,0.2812,0.2073,0.1467,0.1468,0.0653,0.0,0.0,0.0,0.0,0.0,0.0,0.0,0.0,0.0,0.0,0.0,0.0,0.0,0.0,0.0,0.0,0.0,0.0,0.0,0.0,0.0,0.0,0.0,0.0,0.0,0.0,0.0,0.0,0.0,0.0,0.0,0.0,0.0,0.0,0.0,0.0,0.0,0.0,0.0,0.0,0.0,-0.0135,-0.009,-0.0045,0.0,0.0,0.0,0.0,0.0,0.0,0.0,0.7914,0.7988,0.7988,0.7988,0.7988,0.7988,0.7988,0.7988,0.7988,0.7988,0.7965,0.7901,0.7897,0.7882,0.7733,0.7726,0.7658,0.7512,0.721,0.6881,0.0,0.0,0.0,0.0,0.4655,0.4752,0.5136,0.0,0.5769,0.6179,0.6356,0.6624,0.6893,0.6977,0.7045,0.7095,0.7095,0.7095,0.7095,0.7095,0.7095,0.7095,0.7095,0.6002,0.4692,0.4675,0.3844,0.3063,0.4072,0.4009,0.3798,0.4877,0.4616,0.4062,0.4062,0.3591,0.3085,0.3085,0.3085,0.3085,0.3085,0.2706,0.2208,0.168,0.1146,0.0621,0.0,0.0,0.0,0.0,0.0,0.0,0.0,0.0,0.0,0.0,0.0,0.0,0.0,0.0,0.0,0.0,0.0,0.0,0.0,0.0,0.0,0.0,0.0,0.0,0.0,0.0,0.0,0.0,0.0,0.0,0.0,0.0,0.0,0.0,0.0,0.0,0.0,0.0,0.0,0.0,0.0,0.0,0.0,0.7793,0.0,0.7405,0.0,0.7706,0.7675,0.7941,0.7988,0.7988,0.7988,0.7988,0.7988,0.7988,0.7988,0.7988,0.7988,0.7988,0.7988,0.7988,0.7988,0.7941,0.7882,0.7879,0.0,0.7665,0.7448,0.7125,0.6831,0.6315,0.0,0.0,0.5282,0.5382,0.0,0.5888,0.6169,0.6471,0.6678,0.6854,0.6957,0.7055,0.7095,0.7095,0.7095,0.7095,0.7095,0.7095,0.7095,0.7095,0.7095,0.6561,0.5921,0.5921,0.5065,0.4264,0.4974,0.5098,0.5104,0.5848,0.5634,0.5202,0.5165,0.4608,0.4059,0.4059,0.4059,0.4059,0.4059,0.3679,0.3167,0.2563,0.203,0.1431,0.0518,0.0,0.0,0.0,0.0,0.0,0.0,0.0,0.0,0.0,0.0,0.0,0.0,0.0,0.0,0.0,0.0,0.0,0.0,0.0,0.0,0.0,0.0,0.0,0.0,0.0,0.0,0.0,0.0,0.0,0.0,0.0,0.0,0.0,0.0,0.0,0.0,0.0,0.0,0.0,0.0,0.0,0.0,0.778,0.7804,0.7851,0.7961,0.7985,0.7982,0.7988,0.7988,0.7988,0.7988,0.7988,0.7988,0.7988,0.7988,0.7988,0.7988,0.7988,0.7988,0.7988,0.7988,0.7988,0.0,0.0,0.7917,0.7811,0.7804,0.7584,0.7092,0.0,0.0,0.6282,0.6088,0.6098,0.6293,0.6439,0.6634,0.6879,0.6883,0.6964,0.7095,0.7095,0.7095,0.7095,0.7095,0.7095,0.7095,0.7095,0.7095,0.7095,0.7095,0.7095,0.7095,0.7095,0.6293,0.538,0.5394,0.5271,0.5092,0.4958,0.5663,0.6437,0.6295,0.6261,0.6261,0.6261,0.6261,0.6261,0.6261,0.5325,0.4477,0.4477,0.3503,0.2385,0.1448,0.0,0.0,0.0,0.0,0.0,0.0,0.0,0.0,0.0,0.0,0.0,0.0,0.0,0.0,0.0,0.0,0.0,0.0,0.0,0.0,0.0,0.0,0.0,0.0,0.0,0.0,0.0,0.0,0.0,0.0,0.0,0.0,0.0,0.0,0.0,0.0,0.0,0.0,0.0,0.0,0.0,0.0,0.7911,0.7917,0.7931,0.7982,0.7988,0.7988,0.7988,0.7988,0.7988,0.7988,0.7988,0.7988,0.7988,0.7988,0.7988,0.0,0.7988,0.7988,0.0,0.7988,0.7988,0.7988,0.7988,0.7968,0.7917,0.7865,0.774,0.7597,0.0,0.0,0.0,0.6508,0.6569,0.6719,0.6763,0.6892,0.7028,0.7028,0.7055,0.7095,0.7095,0.7095,0.7095,0.7095,0.7095,0.7095,0.7095,0.7095,0.7095,0.7095,0.7095,0.7095,0.7095,0.6874,0.6552,0.6552,0.643,0.63,0.6256,0.6456,0.659,0.648,0.6446,0.6419,0.6323,0.63,0.63,0.63,0.5826,0.521,0.4621,0.4007,0.328,0.2414,0.2176,0.0,0.0,0.0,0.0,0.0,0.0,0.0,0.0,0.0,0.0,0.0,0.0,0.0,0.0,0.0,0.0,0.0,0.0,0.0,0.0,0.0,0.0,0.0,0.0,0.0,0.0,0.0,0.0,0.0,0.0,0.0,0.0,0.0,0.0,0.0,0.0,0.0,0.0,0.0,0.0,0.0,0.7988,0.7988,0.7988,0.7988,0.7988,0.7988,0.7988,0.7988,0.7988,0.7988,0.7988,0.7988,0.7988,0.7988,0.0,0.7988,0.7988,0.7988,0.7988,0.7988,0.7988,0.7988,0.7988,0.7988,0.7988,0.0,0.0,0.7811,0.7475,0.7217,0.7037,0.7037,0.7088,0.718,0.718,0.7231,0.7267,0.7267,0.7267,0.7267,0.7267,0.7267,0.7267,0.7267,0.7275,0.7227,0.7227,0.7146,0.7095,0.7095,0.7095,0.7095,0.7095,0.7095,0.7095,0.7095,0.7034,0.6953,0.69,0.6858,0.6736,0.6566,0.6511,0.6474,0.633,0.63,0.63,0.63,0.6061,0.5686,0.5084,0.476,0.4305,0.3351,0.3073,0.2702,0.1854,0.0,0.0,0.0,0.0,0.0,0.0,0.0,0.0,0.0,0.0,0.0,0.0,0.0,0.0,0.0,0.0,0.0,0.0,0.0,0.0,0.0,0.0,0.0,0.0,0.0,0.0,0.0,0.0,0.0,0.0,0.0,0.0,0.0,0.0,0.0,0.0,0.0,0.0,0.0,0.8137,0.8088,0.0,0.0,0.7988,0.0,0.7988,0.7988,0.7988,0.7988,0.7988,0.7988,0.7988,0.7988,0.7988,0.7988,0.0,0.0,0.0,0.7988,0.7988,0.7988,0.7988,0.7988,0.7988,0.7988,0.7921,0.7828,0.7695,0.7624,0.7614,0.7614,0.7607,0.76,0.76,0.76,0.76,0.76,0.76,0.76,0.76,0.76,0.76,0.76,0.7512,0.7433,0.7433,0.7295,0.7129,0.7129,0.7122,0.7112,0.7112,0.7105,0.7095,0.7095,0.7095,0.7068,0.6937,0.69,0.6871,0.6576,0.6528,0.6474,0.633,0.63,0.63,0.63,0.6139,0.5946,0.583,0.5684,0.5258,0.4259,0.3973,0.3573,0.2707,0.0,0.0,0.0,0.0,0.0,0.0,0.0091,0.0062,0.0,0.0,0.0,0.0,0.0,0.0,0.0,0.0,0.0,0.0,0.0,0.0,0.0,0.0,0.0,0.0,0.0,0.0,0.0,0.0,0.0,0.0,0.0,0.0,0.0,0.0,0.0,0.0,0.0,0.0,0.0,0.0,0.0,0.7988,0.7988,0.7988,0.7988,0.7988,0.7988,0.7988,0.7988,0.7988,0.7988,0.7988,0.7988,0.7988,0.7988,0.7988,0.7988,0.7988,0.7988,0.7988,0.7988,0.7988,0.7988,0.7988,0.7988,0.7971,0.7934,0.7901,0.7875,0.7763,0.7763,0.7702,0.76,0.76,0.76,0.76,0.76,0.76,0.76,0.76,0.76,0.76,0.76,0.7577,0.7546,0.7546,0.7522,0.7489,0.7489,0.7414,0.7316,0.7316,0.7238,0.7095,0.7095,0.7095,0.7088,0.7055,0.7048,0.7004,0.6865,0.6644,0.6474,0.633,0.63,0.63,0.63,0.6139,0.5946,0.583,0.5684,0.543,0.4932,0.4712,0.433,0.3453,0.3297,0.0,0.0,0.2268,0.1977,0.1066,0.1002,0.0727,0.0,0.0,0.0,0.0,0.0,0.0,0.0,0.0,0.0,0.0,0.0,0.0,0.0,0.0,0.0,0.0,0.0,0.0,0.0,0.0,0.0,0.0,0.0,0.0,0.0,0.0,0.0,0.0,0.0,0.0,0.0,1.0096,0.941,0.8726,0.8088,0.7988,0.7988,0.7988,0.7988,0.7988,0.7988,0.7988,0.7988,0.7988,0.7988,0.7988,0.7988,0.7988,0.7988,0.7988,0.7988,0.7988,0.7988,0.7988,0.7988,0.7988,0.7988,0.7988,0.7988,0.7988,0.7948,0.7916,0.7916,0.7875,0.7801,0.7801,0.7801,0.7801,0.7801,0.7801,0.7801,0.7801,0.7801,0.7801,0.7801,0.7756,0.7695,0.7695,0.7655,0.76,0.76,0.7546,0.7461,0.7439,0.7316,0.7231,0.7119,0.7095,0.7095,0.7095,0.7095,0.7061,0.692,0.6698,0.6494,0.6416,0.6347,0.63,0.63,0.6231,0.6088,0.5932,0.5786,0.5589,0.5284,0.5111,0.4808,0.4273,0.4195,0.0,0.3175,0.3169,0.2898,0.2109,0.2038,0.1661,0.0786,0.0,0.0,0.0034,0.0,0.0,0.0,0.0,0.0,0.0,0.0,0.0,0.0,0.0,0.0,0.0,0.0,0.0,0.0,0.0,0.0,0.0,0.0,0.0,0.0,0.0,0.0,0.0,0.0,0.0,0.0,1.0774,1.0435,0.985,0.8531,0.8283,0.8233,0.8038,0.7988,0.7988,0.7988,0.7988,0.7988,0.7988,0.7988,0.7988,0.7988,0.7988,0.7988,0.7988,0.7988,0.7988,0.7988,0.7988,0.7988,0.7988,0.7988,0.7988,0.7988,0.7988,0.7988,0.7988,0.7988,0.7988,0.7988,0.7988,0.7988,0.7988,0.7988,0.7988,0.7988,0.7988,0.7988,0.7988,0.7988,0.7911,0.7845,0.7845,0.777,0.7665,0.7665,0.7651,0.7607,0.7478,0.7467,0.7377,0.7221,0.7132,0.7125,0.7102,0.7095,0.7061,0.692,0.6732,0.6569,0.6521,0.6419,0.6327,0.6306,0.63,0.6252,0.602,0.5905,0.5698,0.5412,0.5216,0.5042,0.4877,0.0,0.471,0.4109,0.4054,0.3841,0.321,0.3149,0.2774,0.1897,0.1831,0.1441,0.0,0.0332,0.0225,0.0257,0.0075,0.0,0.0,0.0,0.0,0.0,0.0,0.0,0.0,0.0,0.0,0.0,0.0,0.0,0.0,0.0,0.0,0.0,0.0,0.0,0.0,0.0,0.0,0.0,1.3343,1.2377,1.1214,0.9899,0.9706,0.9312,0.8187,0.7988,0.7988,0.7988,0.7988,0.7988,0.7988,0.7988,0.7988,0.7988,0.7988,0.7988,0.7988,0.7988,0.7988,0.7988,0.7988,0.7988,0.7988,0.7988,0.7988,0.7988,0.7988,0.7988,0.7988,0.7988,0.7988,0.7988,0.7988,0.7988,0.7988,0.7988,0.7988,0.7988,0.7988,0.7988,0.7988,0.7988,0.7975,0.7955,0.7955,0.7941,0.7921,0.7921,0.7885,0.7773,0.775,0.7662,0.7536,0.738,0.7336,0.7309,0.7132,0.7095,0.7061,0.692,0.6852,0.679,0.6573,0.6494,0.6446,0.6323,0.63,0.6252,0.602,0.5905,0.5661,0.5201,0.5113,0.5005,0.4765,0.0,0.5081,0.5143,0.5255,0.5048,0.4321,0.4239,0.3855,0.2923,0.2863,0.2792,0.2638,0.1821,0.1357,0.1353,0.0462,0.0,0.0,0.0,0.0,0.0,0.0,0.0,0.0,0.0,0.0,0.0,0.0,0.0,0.0,0.0,0.0,0.0,0.0,0.0,0.0,0.0,0.0,0.0,1.4022,1.3199,1.228,1.1214,1.0632,1.0043,0.9217,0.9069,0.8825,0.8088,0.7988,0.7988,0.7988,0.7988,0.7988,0.7988,0.7988,0.7988,0.7988,0.7988,0.7988,0.7988,0.7988,0.7988,0.7988,0.7988,0.7988,0.7988,0.7988,0.7988,0.7988,0.7988,0.7988,0.7988,0.7988,0.7988,0.7988,0.7988,0.7988,0.7988,0.7988,0.7988,0.7988,0.7988,0.7988,0.7988,0.7988,0.7988,0.7988,0.7988,0.7941,0.787,0.7838,0.7767,0.7685,0.7539,0.7377,0.7231,0.7115,0.7095,0.7082,0.7014,0.6943,0.6849,0.6749,0.659,0.6494,0.6426,0.6354,0.6279,0.6166,0.6027,0.583,0.5538,0.5426,0.0,0.0,0.524,0.5403,0.5508,0.5613,0.5616,0.5316,0.5292,0.4922,0.4036,0.3975,0.372,0.3117,0.2657,0.2422,0.2422,0.0857,0.0,0.0,0.0,0.0,0.0,0.0,0.0,0.0,0.0,0.0,0.0,0.0,0.0,0.0,0.0,0.0,0.0,0.0,0.0,0.0,0.0,0.0,0.0,1.4746,1.4249,1.3696,1.2661,1.1918,1.1281,1.065,1.0516,1.0109,0.9172,0.8698,0.8482,0.8482,0.8187,0.7988,0.7988,0.7988,0.7988,0.7988,0.7988,0.7988,0.7988,0.7988,0.7988,0.7988,0.7988,0.7988,0.7988,0.7988,0.7988,0.7988,0.7988,0.7988,0.7988,0.7988,0.7988,0.7988,0.7988,0.7988,0.7988,0.7988,0.7988,0.7988,0.7988,0.7988,0.7988,0.7988,0.7988,0.7988,0.7988,0.7988,0.7968,0.7899,0.7865,0.7834,0.7692,0.7458,0.7186,0.7115,0.7095,0.7095,0.7095,0.7014,0.6927,0.6893,0.6746,0.6569,0.6573,0.645,0.6351,0.6351,0.6156,0.5942,0.5827,0.0,0.0,0.0,0.5579,0.565,0.5688,0.5789,0.5915,0.6067,0.6084,0.5777,0.513,0.5065,0.473,0.3884,0.3596,0.3357,0.3124,0.1331,0.0353,0.0353,0.0118,0.0,0.0,0.0,0.0,0.0,0.0,0.0,0.0,0.0,0.0,0.0,0.0,0.0,0.0,0.0,0.0,0.0,0.0,0.0,0.0,1.649,1.649,1.5937,1.437,1.4077,1.3633,1.2403,1.1983,1.1825,1.2029,1.0798,0.9854,0.9854,0.8726,0.7988,0.7988,0.7988,0.7988,0.7988,0.7988,0.7988,0.7988,0.7988,0.7988,0.7988,0.7988,0.7988,0.7988,0.7988,0.7988,0.7988,0.7988,0.7988,0.7988,0.7988,0.7988,0.7988,0.7988,0.7988,0.7988,0.7988,0.7988,0.7988,0.7988,0.7988,0.7988,0.7988,0.7988,0.7988,0.7988,0.7988,0.7988,0.7975,0.7971,0.7941,0.7841,0.7685,0.7506,0.7173,0.7095,0.7095,0.7095,0.7088,0.7048,0.6916,0.6869,0.6854,0.6712,0.6563,0.6497,0.6497,0.6224,0.5942,0.5827,0.0,0.0,0.5593,0.5694,0.5837,0.5942,0.5969,0.6074,0.6269,0.6282,0.6244,0.6202,0.6173,0.6138,0.6047,0.5112,0.4139,0.3124,0.2034,0.1489,0.1489,0.051,0.0,0.0,0.0,0.0,0.0,0.0,0.0,0.0,0.0,0.0,0.0,0.0,0.0,0.0,0.0,0.0,0.0,0.0,0.0,0.0,1.6707,1.6807,1.6656,1.5913,1.5864,1.5494,1.4116,1.3763,1.344,1.2724,1.1988,1.116,1.0317,0.9623,0.892,0.8088,0.7988,0.7988,0.7988,0.7988,0.7988,0.7988,0.7988,0.7988,0.7988,0.7988,0.7988,0.7988,0.7988,0.7988,0.7988,0.7988,0.7988,0.7988,0.7988,0.7988,0.7988,0.7988,0.7988,0.7988,0.7988,0.7988,0.7988,0.7988,0.7988,0.7988,0.7988,0.7988,0.7988,0.7988,0.7988,0.7988,0.7988,0.7988,0.7961,0.7858,0.7773,0.7665,0.7366,0.7285,0.7261,0.7122,0.7095,0.7082,0.7028,0.695,0.6869,0.6854,0.6719,0.6614,0.6614,0.6444,0.6285,0.6227,0.0,0.5925,0.5871,0.5908,0.5929,0.5986,0.6115,0.6235,0.6293,0.63,0.63,0.63,0.63,0.63,0.63,0.5906,0.5512,0.5079,0.4064,0.3205,0.2542,0.1488,0.1342,0.2041,0.0663,0.0381,0.1073,0.0354,0.0,0.0,0.0,0.0,0.0,0.0,0.0,0.0,0.0,0.0,0.0,0.0,0.0,0.0,1.6981,1.7088,1.7114,1.6887,1.6954,1.6739,1.5719,1.5474,1.5089,1.4299,1.3583,1.2783,1.187,1.1188,1.0231,0.8849,0.8656,0.8432,0.8038,0.7988,0.7988,0.7988,0.7988,0.7988,0.7988,0.7988,0.7988,0.7988,0.7988,0.7988,0.7988,0.7988,0.7988,0.7988,0.7988,0.7988,0.7988,0.7988,0.7988,0.7988,0.7988,0.7988,0.7988,0.7988,0.7988,0.7988,0.7988,0.7988,0.7988,0.7988,0.7988,0.7988,0.7988,0.7988,0.7968,0.7913,0.7882,0.7828,0.7577,0.7478,0.7394,0.7146,0.7095,0.7095,0.7095,0.7021,0.6953,0.6953,0.6875,0.6773,0.6773,0.6647,0.6569,0.6518,0.6302,0.6152,0.6108,0.6101,0.6101,0.6101,0.6235,0.63,0.63,0.63,0.63,0.63,0.63,0.63,0.63,0.63,0.63,0.63,0.5589,0.4859,0.4182,0.2787,0.2493,0.3278,0.1743,0.1317,0.1778,0.0932,0.0359,0.0,0.0,0.0,0.0,0.0,0.0,0.0,0.0,0.0,0.0,0.0,0.0,0.0,1.7582,1.7582,1.7548,1.7253,1.7206,1.7206,1.7206,1.6901,1.682,1.7166,1.5795,1.48,1.48,1.3367,1.1883,1.0525,1.0157,0.9414,0.8091,0.7988,0.7988,0.7988,0.7988,0.7988,0.7988,0.7988,0.7988,0.7988,0.7988,0.7988,0.7988,0.7988,0.7988,0.7988,0.7988,0.7988,0.7988,0.7988,0.7988,0.7988,0.7988,0.7988,0.7988,0.7988,0.7988,0.7988,0.7988,0.7988,0.7988,0.7988,0.7988,0.7988,0.7988,0.7988,0.7988,0.7988,0.7988,0.7958,0.7851,0.7709,0.7526,0.7176,0.7098,0.7095,0.7095,0.7095,0.7095,0.7095,0.6987,0.6886,0.6886,0.6807,0.6654,0.6542,0.6515,0.6463,0.632,0.6303,0.6303,0.63,0.63,0.63,0.63,0.63,0.63,0.63,0.63,0.63,0.63,0.63,0.63,0.63,0.63,0.6368,0.6511,0.4265,0.3202,0.3322,0.3316,0.2799,0.1822,0.1817,0.1165,0.0,0.0,0.0,0.0,0.0,0.0,0.0,0.0,0.0,0.0,0.0,0.0,0.0,1.7582,1.7582,1.7555,1.7468,1.7507,1.7507,1.7507,1.7382,1.7355,1.7494,1.6878,1.6125,1.5188,1.4485,1.3516,1.22,1.1123,0.9823,0.8309,0.8099,0.7988,0.7988,0.7988,0.7988,0.7988,0.7988,0.7988,0.7988,0.7988,0.7988,0.7988,0.7988,0.7988,0.7988,0.7988,0.7988,0.7988,0.7988,0.7988,0.7988,0.7988,0.7988,0.7988,0.7988,0.7988,0.7988,0.7988,0.7988,0.7988,0.7988,0.7988,0.7988,0.7988,0.7988,0.7988,0.7988,0.7988,0.7958,0.7851,0.778,0.7675,0.7377,0.7221,0.7095,0.7095,0.7095,0.7095,0.7095,0.7061,0.7034,0.7034,0.6916,0.6848,0.68,0.6702,0.658,0.647,0.645,0.6412,0.6313,0.63,0.63,0.63,0.63,0.63,0.63,0.63,0.63,0.63,0.63,0.63,0.63,0.63,0.6368,0.6511,0.506,0.4862,0.5816,0.4274,0.3815,0.4249,0.2586,0.1612,0.121,0.0359,0.0,0.0,0.0,0.0,0.0,0.0,0.0,0.0,0.0,0.0,0.0,1.7582,1.7582,1.7582,1.7582,1.7582,1.7582,1.7582,1.7582,1.7582,1.7582,1.7481,1.7055,1.626,1.59,1.5215,1.3881,1.2395,1.1079,0.9989,0.9824,0.9432,0.8825,0.8775,0.8528,0.7988,0.7988,0.7988,0.7988,0.7988,0.7988,0.7988,0.7988,0.7988,0.7988,0.7988,0.7988,0.7988,0.7988,0.7988,0.7988,0.7988,0.7988,0.7988,0.7988,0.7988,0.7988,0.7988,0.7988,0.7988,0.7988,0.7988,0.7988,0.7988,0.7988,0.7988,0.7988,0.7988,0.7971,0.7877,0.7858,0.777,0.759,0.7387,0.7231,0.7231,0.7139,0.7095,0.7095,0.7095,0.7095,0.7095,0.7024,0.695,0.6896,0.6851,0.6736,0.6583,0.6563,0.6549,0.6402,0.6381,0.6361,0.6306,0.63,0.63,0.63,0.63,0.6323,0.6381,0.6381,0.6412,0.6474,0.6474,0.6505,0.6651,0.603,0.5859,0.6187,0.4844,0.4114,0.3931,0.2459,0.1522,0.1031,0.0314,0.0,0.0,0.0,0.0,0.0,0.0,0.0,0.0,0.0,0.0,0.0,1.7582,1.7582,1.7582,1.7582,1.7582,1.7582,1.7582,1.7582,1.7582,1.7582,1.7582,1.7582,1.7582,1.74,1.6762,1.5505,1.3961,1.2858,1.25,1.2419,1.176,1.0274,1.022,0.9624,0.8382,0.8137,0.7988,0.7988,0.7988,0.7988,0.7988,0.7988,0.7988,0.7988,0.7988,0.7988,0.7988,0.7988,0.7988,0.7988,0.7988,0.7988,0.7988,0.7988,0.7988,0.7988,0.7988,0.7988,0.7988,0.7988,0.7988,0.7988,0.7988,0.7988,0.7988,0.7988,0.7988,0.7988,0.7988,0.7887,0.7831,0.7831,0.7621,0.745,0.7422,0.7261,0.7112,0.7098,0.7095,0.7095,0.7095,0.7095,0.7055,0.6927,0.6906,0.6852,0.6742,0.6722,0.6664,0.6552,0.6532,0.648,0.6351,0.6337,0.6337,0.6337,0.6337,0.6395,0.6525,0.6532,0.6556,0.6695,0.6702,0.6773,0.6883,0.6886,0.6368,0.5287,0.5287,0.4162,0.2102,0.2013,0.1299,0.0135,0.0045,0.0,0.0,0.0,0.0,0.0,0.0,0.0,0.0,0.0,0.0,0.0,1.7582,1.7582,1.7582,1.7582,1.7582,1.7582,1.7582,1.7582,1.7582,1.7582,1.7582,1.7582,1.7582,1.7522,1.7377,1.7114,1.5587,1.4153,1.294,1.2782,1.2435,1.1919,1.186,1.1633,1.1072,0.9069,0.7988,0.7988,0.7988,0.7988,0.7988,0.7988,0.7988,0.7988,0.7988,0.7988,0.7988,0.7988,0.7988,0.7988,0.7988,0.7988,0.7988,0.7988,0.7988,0.7988,0.7988,0.7988,0.7988,0.7988,0.7988,0.7988,0.7988,0.7988,0.7988,0.7988,0.7988,0.7988,0.7988,0.7965,0.7941,0.7941,0.7851,0.7655,0.747,0.7346,0.7285,0.7122,0.7095,0.7095,0.7095,0.7095,0.7085,0.7055,0.7051,0.7001,0.6856,0.6836,0.682,0.6668,0.6651,0.6637,0.6607,0.6607,0.6607,0.6607,0.6607,0.6617,0.6651,0.6651,0.6664,0.6698,0.6702,0.6773,0.6883,0.6886,0.6807,0.6646,0.6646,0.5954,0.4601,0.366,0.2547,0.1344,0.0404,0.0,0.0,0.0,0.0,0.0,0.0,0.0,0.0,0.0,0.0,0.0,1.7582,1.7582,1.7582,1.7582,1.7582,1.7582,1.7582,1.7582,1.7582,1.7582,1.7582,1.7582,1.7582,1.7582,1.7582,1.7582,1.6806,1.5968,1.5041,1.4963,1.4463,1.3601,1.3545,1.3184,1.2363,1.0866,0.9743,0.897,0.897,0.8627,0.7988,0.7988,0.7988,0.7988,0.7988,0.7988,0.7988,0.7988,0.7988,0.7988,0.7988,0.7988,0.7988,0.7988,0.7988,0.7988,0.7988,0.7988,0.7988,0.7988,0.7988,0.7988,0.7988,0.7988,0.7988,0.7988,0.7988,0.7988,0.7988,0.7988,0.7988,0.7988,0.7931,0.7862,0.7634,0.7529,0.7438,0.7282,0.7251,0.7227,0.7109,0.7095,0.7095,0.7095,0.7095,0.7068,0.6997,0.6987,0.693,0.6827,0.681,0.678,0.6709,0.6702,0.6702,0.6702,0.6702,0.6732,0.6807,0.681,0.6841,0.6909,0.6909,0.6906,0.6987,0.6987,0.7021,0.7095,0.6561,0.5667,0.4508,0.3304,0.2726,0.2592,0.1389,0.0852,0.0852,0.0852,0.0539,0.0,0.0,0.0,0.0,0.0,0.0,0.0,1.7582,1.7582,1.7582,1.7582,1.7582,1.7582,1.7582,1.7582,1.7582,1.7582,1.7582,1.7582,1.7582,1.7582,1.7582,1.7582,1.7582,1.7534,1.7293,1.728,1.6664,1.5289,1.5226,1.4644,1.3478,1.3238,1.2223,1.039,1.0355,0.9756,0.8676,0.8676,0.8528,0.8333,0.8333,0.8237,0.7988,0.7988,0.7988,0.7988,0.7988,0.7988,0.7988,0.7988,0.7988,0.7988,0.7988,0.7988,0.7988,0.7988,0.7988,0.7988,0.7988,0.7988,0.7988,0.7988,0.7988,0.7988,0.7988,0.7988,0.7988,0.7988,0.7988,0.7958,0.7879,0.774,0.7594,0.7441,0.7436,0.7333,0.7204,0.7112,0.7095,0.7095,0.7095,0.7095,0.7095,0.7095,0.7051,0.6933,0.6923,0.6873,0.679,0.6776,0.6776,0.6776,0.6776,0.6831,0.6916,0.6923,0.6974,0.7092,0.7095,0.7095,0.7095,0.7095,0.7095,0.7095,0.616,0.5043,0.3883,0.286,0.286,0.3525,0.2547,0.2102,0.2102,0.1879,0.121,0.0269,0.009,0.0,0.0,0.0,0.0,0.0,1.7582,1.7582,1.7582,1.7582,1.7582,1.7582,1.7582,1.7582,1.7582,1.7582,1.7582,1.7582,1.7582,1.7582,1.7582,1.7582,1.7582,1.7562,1.7522,1.7522,1.7343,1.6889,1.6876,1.6655,1.6199,1.6153,1.4784,1.2089,1.1796,1.1556,1.1365,1.1365,1.0779,0.9706,0.9706,0.9069,0.7988,0.7988,0.7988,0.7988,0.7988,0.7988,0.7988,0.7988,0.7988,0.7988,0.7988,0.7988,0.7988,0.7988,0.7988,0.7988,0.7988,0.7988,0.7988,0.7988,0.7988,0.7988,0.7988,0.7988,0.7988,0.7988,0.7988,0.7985,0.7965,0.7892,0.7743,0.7597,0.7461,0.7409,0.7346,0.7231,0.7095,0.7095,0.7095,0.7095,0.7095,0.7095,0.7088,0.7068,0.7068,0.7058,0.7038,0.7038,0.7038,0.7038,0.7038,0.7045,0.7065,0.7068,0.7078,0.7095,0.7095,0.7095,0.7095,0.7095,0.7095,0.7095,0.6962,0.6248,0.5134,0.5001,0.4419,0.357,0.3436,0.3349,0.326,0.2236,0.1701,0.1433,0.0404,0.0,0.0,0.0,0.0,0.0,1.7582,1.7582,1.7582,1.7582,1.7582,1.7582,1.7582,1.7582,1.7582,1.7582,1.7582,1.7582,1.7582,1.7582,1.7582,1.7582,1.7582,1.7582,1.7582,1.7582,1.7522,1.7454,1.744,1.7328,1.7201,1.7034,1.6374,1.5062,1.3844,1.2866,1.2181,1.2006,1.1604,1.1023,1.0342,0.9657,0.9069,0.8333,0.7988,0.7988,0.7988,0.7988,0.7988,0.7988,0.7988,0.7988,0.7988,0.7988,0.7988,0.7988,0.7988,0.7988,0.7988,0.7988,0.7988,0.7988,0.7988,0.7988,0.7988,0.7988,0.7988,0.7988,0.7988,0.7988,0.7988,0.7938,0.7896,0.7746,0.7662,0.7594,0.7512,0.7373,0.7272,0.7272,0.7152,0.7095,0.7095,0.7095,0.7095,0.7095,0.7095,0.7095,0.7095,0.7095,0.7095,0.7095,0.7095,0.7095,0.7095,0.7095,0.7095,0.7095,0.7095,0.7095,0.7095,0.7095,0.7095,0.7095,0.7095,0.6827,0.6337,0.5672,0.5445,0.5531,0.4863,0.4596,0.4552,0.402,0.2995,0.1746,0.121,0.0583,0.0,0.0,0.0,0.009]}]]